Time,TemperatureF,DewpointF,PressureIn,WindDirection,WindDirectionDegrees,WindSpeedMPH,WindSpeedGustMPH,Humidity,HourlyPrecipIn,Conditions,Clouds,dailyrainin,SoftwareType,DateUTC
2013-01-26 00:00:00,36.2,29.4,29.91,NE,55,0.0,3.0,76,0.00,,---,0.00,VWS V13.01,2013-01-26 07:00:00,
2013-01-26 00:01:00,36.2,29.4,29.91,NE,55,0.0,0.0,76,0.00,,---,0.00,VWS V13.01,2013-01-26 07:01:00,
2013-01-26 00:02:00,36.2,29.4,29.91,NNE,19,0.0,5.0,76,0.00,,---,0.00,VWS V13.01,2013-01-26 07:02:00,
2013-01-26 00:03:00,36.2,29.4,29.91,NNE,20,0.0,5.0,76,0.00,,---,0.00,VWS V13.01,2013-01-26 07:03:00,
2013-01-26 00:04:00,36.2,29.4,29.91,NE,46,2.0,5.0,76,0.00,,---,0.00,VWS V13.01,2013-01-26 07:04:00,
2013-01-26 00:05:00,36.2,29.4,29.91,NNE,24,2.0,5.0,76,0.00,,---,0.00,VWS V13.01,2013-01-26 07:05:00,
2013-01-26 00:06:00,36.2,29.4,29.91,NE,55,1.0,2.0,76,0.00,,---,0.00,VWS V13.01,2013-01-26 07:06:00,
2013-01-26 00:07:00,36.2,29.4,29.91,SE,133,0.0,2.0,76,0.00,,---,0.00,VWS V13.01,2013-01-26 07:07:00,
2013-01-26 00:08:00,36.2,29.4,29.91,SE,133,0.0,2.0,76,0.00,,---,0.00,VWS V13.01,2013-01-26 07:08:00,
2013-01-26 00:09:00,36.2,29.4,29.91,ENE,58,0.0,2.0,76,0.00,,---,0.00,VWS V13.01,2013-01-26 07:09:00,
2013-01-26 00:10:00,36.2,29.4,29.91,ENE,59,0.0,2.0,76,0.00,,---,0.00,VWS V13.01,2013-01-26 07:10:00,
2013-01-26 00:11:00,36.2,29.4,29.91,ENE,59,0.0,0.0,76,0.00,,---,0.00,VWS V13.01,2013-01-26 07:11:00,
2013-01-26 00:12:00,36.2,29.4,29.91,ENE,66,1.0,2.0,76,0.00,,---,0.00,VWS V13.01,2013-01-26 07:12:00,
2013-01-26 00:13:00,36.2,29.4,29.91,ENE,69,0.0,2.0,76,0.00,,---,0.00,VWS V13.01,2013-01-26 07:13:00,
2013-01-26 00:14:00,36.2,29.4,29.90,ENE,69,0.0,2.0,76,0.00,,---,0.00,VWS V13.01,2013-01-26 07:14:00,
2013-01-26 00:15:00,36.2,29.4,29.90,ENE,69,0.0,2.0,76,0.00,,---,0.00,VWS V13.01,2013-01-26 07:15:00,
2013-01-26 00:16:00,36.2,29.4,29.90,ENE,69,0.0,0.0,76,0.00,,---,0.00,VWS V13.01,2013-01-26 07:16:00,
2013-01-26 00:17:00,36.2,29.4,29.90,ENE,69,0.0,0.0,76,0.00,,---,0.00,VWS V13.01,2013-01-26 07:17:00,
2013-01-26 00:18:00,36.0,29.2,29.90,ENE,69,0.0,0.0,76,0.00,,---,0.00,VWS V13.01,2013-01-26 07:18:00,
2013-01-26 00:19:00,36.0,29.2,29.90,East,101,0.0,1.0,76,0.00,,---,0.00,VWS V13.01,2013-01-26 07:19:00,
2013-01-26 00:20:00,36.0,29.2,29.90,NE,44,6.0,6.0,76,0.00,,---,0.00,VWS V13.01,2013-01-26 07:20:00,
2013-01-26 00:21:00,36.0,28.9,29.90,NNW,344,0.0,10.0,75,0.00,,---,0.00,VWS V13.01,2013-01-26 07:21:00,
2013-01-26 00:22:00,36.2,29.0,29.90,NNW,344,0.0,10.0,75,0.00,,---,0.00,VWS V13.01,2013-01-26 07:22:00,
2013-01-26 00:23:00,36.2,29.0,29.90,NNW,344,0.0,10.0,75,0.00,,---,0.00,VWS V13.01,2013-01-26 07:23:00,
2013-01-26 00:24:00,36.2,29.4,29.90,NNW,344,0.0,10.0,76,0.00,,---,0.00,VWS V13.01,2013-01-26 07:24:00,
2013-01-26 00:25:00,36.2,29.4,29.90,NNW,344,0.0,10.0,76,0.00,,---,0.00,VWS V13.01,2013-01-26 07:25:00,
2013-01-26 00:26:00,36.2,29.4,29.90,NE,55,1.0,2.0,76,0.00,,---,0.00,VWS V13.01,2013-01-26 07:26:00,
2013-01-26 00:27:00,36.2,29.4,29.90,NE,55,0.0,2.0,76,0.00,,---,0.00,VWS V13.01,2013-01-26 07:27:00,
2013-01-26 00:28:00,36.2,29.4,29.90,NE,54,0.0,2.0,76,0.00,,---,0.00,VWS V13.01,2013-01-26 07:28:00,
2013-01-26 00:29:00,36.2,29.4,29.90,NE,54,0.0,2.0,76,0.00,,---,0.00,VWS V13.01,2013-01-26 07:29:00,
2013-01-26 00:30:00,36.2,29.4,29.88,ENE,59,0.0,2.0,76,0.00,,---,0.00,VWS V13.01,2013-01-26 07:30:00,
2013-01-26 00:31:00,36.0,29.2,29.88,NNE,22,1.0,1.0,76,0.00,,---,0.00,VWS V13.01,2013-01-26 07:31:00,
2013-01-26 00:32:00,36.0,29.2,29.88,NNE,24,0.0,4.0,76,0.00,,---,0.00,VWS V13.01,2013-01-26 07:32:00,
2013-01-26 00:33:00,36.0,29.2,29.88,NNE,24,0.0,4.0,76,0.00,,---,0.00,VWS V13.01,2013-01-26 07:33:00,
2013-01-26 00:34:00,36.0,29.2,29.88,NNE,24,0.0,4.0,76,0.00,,---,0.00,VWS V13.01,2013-01-26 07:34:00,
2013-01-26 00:35:00,36.0,29.2,29.88,NNE,24,0.0,4.0,76,0.00,,---,0.00,VWS V13.01,2013-01-26 07:35:00,
2013-01-26 00:36:00,36.0,29.2,29.88,NNE,24,0.0,0.0,76,0.00,,---,0.00,VWS V13.01,2013-01-26 07:36:00,
2013-01-26 00:37:00,35.9,29.1,29.88,NNE,24,0.0,0.0,76,0.00,,---,0.00,VWS V13.01,2013-01-26 07:37:00,
2013-01-26 00:38:00,35.9,29.1,29.88,NNE,24,0.0,0.0,76,0.00,,---,0.00,VWS V13.01,2013-01-26 07:38:00,
2013-01-26 00:39:00,35.9,29.1,29.88,NNE,24,0.0,0.0,76,0.00,,---,0.00,VWS V13.01,2013-01-26 07:39:00,
2013-01-26 00:40:00,35.9,29.1,29.88,NNE,24,0.0,0.0,76,0.00,,---,0.00,VWS V13.01,2013-01-26 07:40:00,
2013-01-26 00:41:00,35.8,29.0,29.88,NNE,24,0.0,1.0,76,0.00,,---,0.00,VWS V13.01,2013-01-26 07:41:00,
2013-01-26 00:42:00,35.8,29.0,29.88,NNE,24,0.0,1.0,76,0.00,,---,0.00,VWS V13.01,2013-01-26 07:42:00,
2013-01-26 00:43:00,35.6,29.1,29.88,NNE,24,0.0,1.0,77,0.00,,---,0.00,VWS V13.01,2013-01-26 07:43:00,
2013-01-26 00:44:00,35.6,29.1,29.90,NNE,24,0.0,1.0,77,0.00,,---,0.00,VWS V13.01,2013-01-26 07:44:00,
2013-01-26 00:45:00,35.6,29.1,29.90,NNE,24,0.0,1.0,77,0.00,,---,0.00,VWS V13.01,2013-01-26 07:45:00,
2013-01-26 00:46:00,35.5,29.0,29.90,NNE,24,0.0,0.0,77,0.00,,---,0.00,VWS V13.01,2013-01-26 07:46:00,
2013-01-26 00:47:00,35.5,29.0,29.90,NNE,24,0.0,0.0,77,0.00,,---,0.00,VWS V13.01,2013-01-26 07:47:00,
2013-01-26 00:48:00,35.5,29.0,29.90,NNE,24,0.0,0.0,77,0.00,,---,0.00,VWS V13.01,2013-01-26 07:48:00,
2013-01-26 00:49:00,35.5,29.0,29.90,NNE,24,0.0,0.0,77,0.00,,---,0.00,VWS V13.01,2013-01-26 07:49:00,
2013-01-26 00:50:00,35.3,28.8,29.90,NNE,24,0.0,0.0,77,0.00,,---,0.00,VWS V13.01,2013-01-26 07:50:00,
2013-01-26 00:51:00,35.3,28.8,29.90,NNE,24,0.0,0.0,77,0.00,,---,0.00,VWS V13.01,2013-01-26 07:51:00,
2013-01-26 00:52:00,35.3,28.8,29.90,NNE,24,0.0,0.0,77,0.00,,---,0.00,VWS V13.01,2013-01-26 07:52:00,
2013-01-26 00:53:00,35.2,29.0,29.90,NNE,24,0.0,0.0,78,0.00,,---,0.00,VWS V13.01,2013-01-26 07:53:00,
2013-01-26 00:54:00,35.2,29.0,29.90,NNE,24,0.0,0.0,78,0.00,,---,0.00,VWS V13.01,2013-01-26 07:54:00,
2013-01-26 00:55:00,35.2,29.0,29.90,NNE,24,0.0,0.0,78,0.00,,---,0.00,VWS V13.01,2013-01-26 07:55:00,
2013-01-26 00:56:00,35.2,29.0,29.90,NNE,24,0.0,0.0,78,0.00,,---,0.00,VWS V13.01,2013-01-26 07:56:00,
2013-01-26 00:57:00,35.0,28.9,29.90,NNE,24,0.0,0.0,78,0.00,,---,0.00,VWS V13.01,2013-01-26 07:57:00,
2013-01-26 00:58:00,35.0,28.9,29.90,NNE,24,0.0,0.0,78,0.00,,---,0.00,VWS V13.01,2013-01-26 07:58:00,
2013-01-26 00:59:00,35.0,28.9,29.90,NNE,24,0.0,0.0,78,0.00,,---,0.00,VWS V13.01,2013-01-26 07:59:00,
2013-01-26 01:00:00,35.0,28.9,29.90,NNE,24,0.0,0.0,78,0.00,,---,0.00,VWS V13.01,2013-01-26 08:00:00,
2013-01-26 01:01:00,35.0,28.9,29.90,NNE,24,0.0,0.0,78,0.00,,---,0.00,VWS V13.01,2013-01-26 08:01:00,
2013-01-26 01:02:00,35.0,28.9,29.90,NNE,24,0.0,0.0,78,0.00,,---,0.00,VWS V13.01,2013-01-26 08:02:00,
2013-01-26 01:03:00,35.0,28.9,29.90,NNE,24,0.0,0.0,78,0.00,,---,0.00,VWS V13.01,2013-01-26 08:03:00,
2013-01-26 01:04:00,35.0,28.9,29.90,NNE,24,0.0,0.0,78,0.00,,---,0.00,VWS V13.01,2013-01-26 08:04:00,
2013-01-26 01:05:00,35.0,28.9,29.90,NNE,24,0.0,0.0,78,0.00,,---,0.00,VWS V13.01,2013-01-26 08:05:00,
2013-01-26 01:06:00,35.0,28.5,29.90,NNW,342,4.0,4.0,77,0.00,,---,0.00,VWS V13.01,2013-01-26 08:06:00,
2013-01-26 01:07:00,35.0,28.5,29.90,NNW,348,0.0,5.0,77,0.00,,---,0.00,VWS V13.01,2013-01-26 08:07:00,
2013-01-26 01:08:00,35.2,28.4,29.90,North,5,3.0,5.0,76,0.00,,---,0.00,VWS V13.01,2013-01-26 08:08:00,
2013-01-26 01:09:00,35.2,28.4,29.90,NNE,17,0.0,5.0,76,0.00,,---,0.00,VWS V13.01,2013-01-26 08:09:00,
2013-01-26 01:10:00,35.3,28.5,29.90,NNE,17,0.0,5.0,76,0.00,,---,0.00,VWS V13.01,2013-01-26 08:10:00,
2013-01-26 01:11:00,35.5,28.4,29.90,NW,304,0.0,2.0,75,0.00,,---,0.00,VWS V13.01,2013-01-26 08:11:00,
2013-01-26 01:12:00,35.5,28.4,29.90,NNW,337,0.0,3.0,75,0.00,,---,0.00,VWS V13.01,2013-01-26 08:12:00,
2013-01-26 01:13:00,35.6,28.5,29.90,NNW,337,1.0,3.0,75,0.00,,---,0.00,VWS V13.01,2013-01-26 08:13:00,
2013-01-26 01:14:00,35.8,28.7,29.91,North,351,0.0,3.0,75,0.00,,---,0.00,VWS V13.01,2013-01-26 08:14:00,
2013-01-26 01:15:00,35.9,28.4,29.91,North,351,1.0,3.0,74,0.00,,---,0.00,VWS V13.01,2013-01-26 08:15:00,
2013-01-26 01:16:00,35.9,28.4,29.91,North,351,0.0,1.0,74,0.00,,---,0.00,VWS V13.01,2013-01-26 08:16:00,
2013-01-26 01:17:00,36.0,28.2,29.91,NNE,23,0.0,1.0,73,0.00,,---,0.00,VWS V13.01,2013-01-26 08:17:00,
2013-01-26 01:18:00,36.0,28.2,29.91,NNE,23,0.0,1.0,73,0.00,,---,0.00,VWS V13.01,2013-01-26 08:18:00,
2013-01-26 01:19:00,36.2,28.4,29.91,NNE,33,0.0,3.0,73,0.00,,---,0.00,VWS V13.01,2013-01-26 08:19:00,
2013-01-26 01:20:00,36.2,28.4,29.91,NNE,33,0.0,3.0,73,0.00,,---,0.00,VWS V13.01,2013-01-26 08:20:00,
2013-01-26 01:21:00,36.3,28.1,29.91,NNE,33,0.0,1.0,72,0.00,,---,0.00,VWS V13.01,2013-01-26 08:21:00,
2013-01-26 01:22:00,36.3,28.5,29.91,NNE,33,0.0,1.0,73,0.00,,---,0.00,VWS V13.01,2013-01-26 08:22:00,
2013-01-26 01:23:00,36.5,28.7,29.91,NNE,33,0.0,1.0,73,0.00,,---,0.00,VWS V13.01,2013-01-26 08:23:00,
2013-01-26 01:24:00,36.5,28.7,29.91,NNE,33,0.0,1.0,73,0.00,,---,0.00,VWS V13.01,2013-01-26 08:24:00,
2013-01-26 01:25:00,36.5,28.7,29.91,NNE,33,0.0,1.0,73,0.00,,---,0.00,VWS V13.01,2013-01-26 08:25:00,
2013-01-26 01:26:00,36.5,29.0,29.91,NNE,33,0.0,0.0,74,0.00,,---,0.00,VWS V13.01,2013-01-26 08:26:00,
2013-01-26 01:27:00,36.5,29.0,29.91,NNE,33,0.0,0.0,74,0.00,,---,0.00,VWS V13.01,2013-01-26 08:27:00,
2013-01-26 01:28:00,36.3,28.5,29.91,NNE,33,0.0,0.0,73,0.00,,---,0.00,VWS V13.01,2013-01-26 08:28:00,
2013-01-26 01:29:00,36.3,28.5,29.91,NNE,33,0.0,0.0,73,0.00,,---,0.00,VWS V13.01,2013-01-26 08:29:00,
2013-01-26 01:30:00,36.3,28.5,29.91,NNE,33,0.0,0.0,73,0.00,,---,0.00,VWS V13.01,2013-01-26 08:30:00,
2013-01-26 01:31:00,36.3,28.5,29.91,NNE,33,0.0,0.0,73,0.00,,---,0.00,VWS V13.01,2013-01-26 08:31:00,
2013-01-26 01:32:00,36.2,28.4,29.91,NNE,33,0.0,0.0,73,0.00,,---,0.00,VWS V13.01,2013-01-26 08:32:00,
2013-01-26 01:33:00,36.2,28.4,29.91,NNE,33,0.0,0.0,73,0.00,,---,0.00,VWS V13.01,2013-01-26 08:33:00,
2013-01-26 01:34:00,36.2,28.4,29.91,NNE,33,0.0,0.0,73,0.00,,---,0.00,VWS V13.01,2013-01-26 08:34:00,
2013-01-26 01:35:00,36.2,28.4,29.91,NNE,33,0.0,0.0,73,0.00,,---,0.00,VWS V13.01,2013-01-26 08:35:00,
2013-01-26 01:36:00,36.0,28.2,29.91,NNE,33,0.0,0.0,73,0.00,,---,0.00,VWS V13.01,2013-01-26 08:36:00,
2013-01-26 01:37:00,36.0,28.2,29.91,NNE,33,0.0,0.0,73,0.00,,---,0.00,VWS V13.01,2013-01-26 08:37:00,
2013-01-26 01:38:00,35.9,28.4,29.91,NNE,33,0.0,0.0,74,0.00,,---,0.00,VWS V13.01,2013-01-26 08:38:00,
2013-01-26 01:39:00,35.9,28.8,29.91,NNE,33,0.0,0.0,75,0.00,,---,0.00,VWS V13.01,2013-01-26 08:39:00,
2013-01-26 01:40:00,35.8,28.3,29.91,NNE,33,0.0,0.0,74,0.00,,---,0.00,VWS V13.01,2013-01-26 08:40:00,
2013-01-26 01:41:00,35.8,28.3,29.91,NNE,33,0.0,3.0,74,0.00,,---,0.00,VWS V13.01,2013-01-26 08:41:00,
2013-01-26 01:42:00,35.8,28.3,29.91,NNE,33,0.0,3.0,74,0.00,,---,0.00,VWS V13.01,2013-01-26 08:42:00,
2013-01-26 01:43:00,35.6,28.1,29.91,NNE,33,0.0,3.0,74,0.00,,---,0.00,VWS V13.01,2013-01-26 08:43:00,
2013-01-26 01:44:00,35.6,28.5,29.91,NNE,33,0.0,3.0,75,0.00,,---,0.00,VWS V13.01,2013-01-26 08:44:00,
2013-01-26 01:45:00,35.6,28.5,29.91,NNE,33,0.0,3.0,75,0.00,,---,0.00,VWS V13.01,2013-01-26 08:45:00,
2013-01-26 01:46:00,35.6,28.5,29.91,NNE,33,0.0,0.0,75,0.00,,---,0.00,VWS V13.01,2013-01-26 08:46:00,
2013-01-26 01:47:00,35.5,28.4,29.91,NNE,33,0.0,0.0,75,0.00,,---,0.00,VWS V13.01,2013-01-26 08:47:00,
2013-01-26 01:48:00,35.5,28.4,29.91,WNW,289,2.0,2.0,75,0.00,,---,0.00,VWS V13.01,2013-01-26 08:48:00,
2013-01-26 01:49:00,35.5,28.0,29.91,WNW,291,0.0,2.0,74,0.00,,---,0.00,VWS V13.01,2013-01-26 08:49:00,
2013-01-26 01:50:00,35.5,28.0,29.91,WNW,291,0.0,2.0,74,0.00,,---,0.00,VWS V13.01,2013-01-26 08:50:00,
2013-01-26 01:51:00,35.5,28.4,29.91,WNW,291,0.0,0.0,75,0.00,,---,0.00,VWS V13.01,2013-01-26 08:51:00,
2013-01-26 01:52:00,35.5,28.0,29.91,NE,43,3.0,3.0,74,0.00,,---,0.00,VWS V13.01,2013-01-26 08:52:00,
2013-01-26 01:53:00,35.5,28.0,29.91,NE,48,1.0,3.0,74,0.00,,---,0.00,VWS V13.01,2013-01-26 08:53:00,
2013-01-26 01:54:00,35.5,28.0,29.91,NE,48,0.0,3.0,74,0.00,,---,0.00,VWS V13.01,2013-01-26 08:54:00,
2013-01-26 01:55:00,35.5,28.0,29.91,NE,48,0.0,3.0,74,0.00,,---,0.00,VWS V13.01,2013-01-26 08:55:00,
2013-01-26 01:56:00,35.5,28.4,29.91,NE,48,0.0,0.0,75,0.00,,---,0.00,VWS V13.01,2013-01-26 08:56:00,
2013-01-26 01:57:00,35.5,28.0,29.91,NE,48,1.0,1.0,74,0.00,,---,0.00,VWS V13.01,2013-01-26 08:57:00,
2013-01-26 01:58:00,35.5,28.0,29.91,NE,48,0.0,1.0,74,0.00,,---,0.00,VWS V13.01,2013-01-26 08:58:00,
2013-01-26 01:59:00,35.5,28.0,29.91,NE,48,0.0,1.0,74,0.00,,---,0.00,VWS V13.01,2013-01-26 08:59:00,
2013-01-26 02:00:00,35.5,28.0,29.91,NE,48,1.0,3.0,74,0.00,,---,0.00,VWS V13.01,2013-01-26 09:00:00,
2013-01-26 02:01:00,35.5,28.0,29.91,NE,48,0.0,1.0,74,0.00,,---,0.00,VWS V13.01,2013-01-26 09:01:00,
2013-01-26 02:02:00,35.5,28.0,29.91,NE,48,0.0,1.0,74,0.00,,---,0.00,VWS V13.01,2013-01-26 09:02:00,
2013-01-26 02:03:00,35.5,28.0,29.91,NE,48,0.0,1.0,74,0.00,,---,0.00,VWS V13.01,2013-01-26 09:03:00,
2013-01-26 02:04:00,35.5,28.4,29.91,NE,48,0.0,1.0,75,0.00,,---,0.00,VWS V13.01,2013-01-26 09:04:00,
2013-01-26 02:05:00,35.5,28.4,29.91,NE,48,0.0,1.0,75,0.00,,---,0.00,VWS V13.01,2013-01-26 09:05:00,
2013-01-26 02:06:00,35.5,28.4,29.91,NE,48,0.0,0.0,75,0.00,,---,0.00,VWS V13.01,2013-01-26 09:06:00,
2013-01-26 02:07:00,35.5,28.4,29.91,NE,48,0.0,0.0,75,0.00,,---,0.00,VWS V13.01,2013-01-26 09:07:00,
2013-01-26 02:08:00,35.5,28.4,29.91,NE,48,0.0,0.0,75,0.00,,---,0.00,VWS V13.01,2013-01-26 09:08:00,
2013-01-26 02:09:00,35.3,28.2,29.91,NE,48,1.0,2.0,75,0.00,,---,0.00,VWS V13.01,2013-01-26 09:09:00,
2013-01-26 02:10:00,35.3,27.9,29.91,NE,48,0.0,2.0,74,0.00,,---,0.00,VWS V13.01,2013-01-26 09:10:00,
2013-01-26 02:11:00,35.3,27.9,29.91,NE,48,0.0,1.0,74,0.00,,---,0.00,VWS V13.01,2013-01-26 09:11:00,
2013-01-26 02:12:00,35.3,28.2,29.91,NE,48,0.0,1.0,75,0.00,,---,0.00,VWS V13.01,2013-01-26 09:12:00,
2013-01-26 02:13:00,35.3,28.2,29.91,NE,48,0.0,1.0,75,0.00,,---,0.00,VWS V13.01,2013-01-26 09:13:00,
2013-01-26 02:14:00,35.3,27.9,29.92,North,5,1.0,6.0,74,0.00,,---,0.00,VWS V13.01,2013-01-26 09:14:00,
2013-01-26 02:15:00,35.3,27.5,29.92,North,5,0.0,6.0,73,0.00,,---,0.00,VWS V13.01,2013-01-26 09:15:00,
2013-01-26 02:16:00,35.3,27.5,29.92,North,5,0.0,0.0,73,0.00,,---,0.00,VWS V13.01,2013-01-26 09:16:00,
2013-01-26 02:17:00,35.3,27.9,29.92,North,5,0.0,0.0,74,0.00,,---,0.00,VWS V13.01,2013-01-26 09:17:00,
2013-01-26 02:18:00,35.3,27.9,29.92,ESE,121,3.0,4.0,74,0.00,,---,0.00,VWS V13.01,2013-01-26 09:18:00,
2013-01-26 02:19:00,35.3,27.5,29.92,SE,125,0.0,4.0,73,0.00,,---,0.00,VWS V13.01,2013-01-26 09:19:00,
2013-01-26 02:20:00,35.3,27.5,29.92,SE,125,0.0,4.0,73,0.00,,---,0.00,VWS V13.01,2013-01-26 09:20:00,
2013-01-26 02:21:00,35.3,27.9,29.92,SE,125,0.0,0.0,74,0.00,,---,0.00,VWS V13.01,2013-01-26 09:21:00,
2013-01-26 02:22:00,35.3,28.2,29.92,SE,125,0.0,0.0,75,0.00,,---,0.00,VWS V13.01,2013-01-26 09:22:00,
2013-01-26 02:23:00,35.3,27.9,29.92,SE,125,0.0,0.0,74,0.00,,---,0.00,VWS V13.01,2013-01-26 09:23:00,
2013-01-26 02:24:00,35.3,27.9,29.92,SE,125,0.0,0.0,74,0.00,,---,0.00,VWS V13.01,2013-01-26 09:24:00,
2013-01-26 02:25:00,35.3,27.9,29.92,SE,125,0.0,0.0,74,0.00,,---,0.00,VWS V13.01,2013-01-26 09:25:00,
2013-01-26 02:26:00,35.3,27.9,29.92,SE,125,0.0,0.0,74,0.00,,---,0.00,VWS V13.01,2013-01-26 09:26:00,
2013-01-26 02:27:00,35.3,27.9,29.92,SE,125,0.0,0.0,74,0.00,,---,0.00,VWS V13.01,2013-01-26 09:27:00,
2013-01-26 02:28:00,35.3,28.2,29.92,SE,125,0.0,0.0,75,0.00,,---,0.00,VWS V13.01,2013-01-26 09:28:00,
2013-01-26 02:29:00,35.3,28.2,29.92,SE,125,0.0,0.0,75,0.00,,---,0.00,VWS V13.01,2013-01-26 09:29:00,
2013-01-26 02:30:00,35.3,28.2,29.91,SE,125,0.0,0.0,75,0.00,,---,0.00,VWS V13.01,2013-01-26 09:30:00,
2013-01-26 02:31:00,35.2,28.1,29.91,NE,49,1.0,1.0,75,0.00,,---,0.00,VWS V13.01,2013-01-26 09:31:00,
2013-01-26 02:32:00,35.2,27.8,29.91,ENE,70,0.0,2.0,74,0.00,,---,0.00,VWS V13.01,2013-01-26 09:32:00,
2013-01-26 02:33:00,35.2,27.8,29.91,ENE,70,0.0,2.0,74,0.00,,---,0.00,VWS V13.01,2013-01-26 09:33:00,
2013-01-26 02:34:00,35.2,28.1,29.91,ENE,70,0.0,2.0,75,0.00,,---,0.00,VWS V13.01,2013-01-26 09:34:00,
2013-01-26 02:35:00,35.2,28.1,29.91,ENE,70,1.0,2.0,75,0.00,,---,0.00,VWS V13.01,2013-01-26 09:35:00,
2013-01-26 02:36:00,35.2,27.8,29.91,ENE,70,0.0,2.0,74,0.00,,---,0.00,VWS V13.01,2013-01-26 09:36:00,
2013-01-26 02:37:00,35.2,28.1,29.91,ENE,70,0.0,2.0,75,0.00,,---,0.00,VWS V13.01,2013-01-26 09:37:00,
2013-01-26 02:38:00,35.2,28.1,29.91,ENE,70,0.0,2.0,75,0.00,,---,0.00,VWS V13.01,2013-01-26 09:38:00,
2013-01-26 02:39:00,35.2,28.1,29.91,ENE,70,0.0,2.0,75,0.00,,---,0.00,VWS V13.01,2013-01-26 09:39:00,
2013-01-26 02:40:00,35.2,28.1,29.91,ENE,70,0.0,2.0,75,0.00,,---,0.00,VWS V13.01,2013-01-26 09:40:00,
2013-01-26 02:41:00,35.0,27.6,29.91,ENE,70,0.0,0.0,74,0.00,,---,0.00,VWS V13.01,2013-01-26 09:41:00,
2013-01-26 02:42:00,35.0,27.9,29.91,NNE,26,0.0,0.0,75,0.00,,---,0.00,VWS V13.01,2013-01-26 09:42:00,
2013-01-26 02:43:00,35.0,27.6,29.91,NNE,26,0.0,0.0,74,0.00,,---,0.00,VWS V13.01,2013-01-26 09:43:00,
2013-01-26 02:44:00,35.0,27.6,29.90,NNE,26,1.0,1.0,74,0.00,,---,0.00,VWS V13.01,2013-01-26 09:44:00,
2013-01-26 02:45:00,35.0,27.6,29.90,NNE,26,0.0,1.0,74,0.00,,---,0.00,VWS V13.01,2013-01-26 09:45:00,
2013-01-26 02:46:00,35.0,27.6,29.90,NNE,26,0.0,0.0,74,0.00,,---,0.00,VWS V13.01,2013-01-26 09:46:00,
2013-01-26 02:47:00,35.0,27.9,29.90,NNE,26,0.0,0.0,75,0.00,,---,0.00,VWS V13.01,2013-01-26 09:47:00,
2013-01-26 02:48:00,35.0,27.6,29.90,NNE,26,0.0,0.0,74,0.00,,---,0.00,VWS V13.01,2013-01-26 09:48:00,
2013-01-26 02:49:00,35.0,27.6,29.90,NNE,26,0.0,0.0,74,0.00,,---,0.00,VWS V13.01,2013-01-26 09:49:00,
2013-01-26 02:50:00,35.2,27.8,29.90,NNE,26,2.0,2.0,74,0.00,,---,0.00,VWS V13.01,2013-01-26 09:50:00,
2013-01-26 02:51:00,35.2,27.8,29.90,ENE,74,0.0,3.0,74,0.00,,---,0.00,VWS V13.01,2013-01-26 09:51:00,
2013-01-26 02:52:00,35.2,27.8,29.90,NE,49,0.0,3.0,74,0.00,,---,0.00,VWS V13.01,2013-01-26 09:52:00,
2013-01-26 02:53:00,35.2,27.8,29.90,NE,49,1.0,3.0,74,0.00,,---,0.00,VWS V13.01,2013-01-26 09:53:00,
2013-01-26 02:54:00,35.2,27.8,29.90,ESE,115,0.0,3.0,74,0.00,,---,0.00,VWS V13.01,2013-01-26 09:54:00,
2013-01-26 02:55:00,35.2,27.8,29.90,ESE,115,0.0,3.0,74,0.00,,---,0.00,VWS V13.01,2013-01-26 09:55:00,
2013-01-26 02:56:00,35.2,27.8,29.90,ESE,115,0.0,0.0,74,0.00,,---,0.00,VWS V13.01,2013-01-26 09:56:00,
2013-01-26 02:57:00,35.2,27.8,29.90,ESE,115,0.0,0.0,74,0.00,,---,0.00,VWS V13.01,2013-01-26 09:57:00,
2013-01-26 02:58:00,35.2,28.1,29.90,ESE,115,0.0,0.0,75,0.00,,---,0.00,VWS V13.01,2013-01-26 09:58:00,
2013-01-26 02:59:00,35.2,27.4,29.90,NNW,348,0.0,6.0,73,0.00,,---,0.00,VWS V13.01,2013-01-26 09:59:00,
2013-01-26 03:00:00,35.2,27.4,29.90,NNW,348,0.0,6.0,73,0.00,,---,0.00,VWS V13.01,2013-01-26 10:00:00,
2013-01-26 03:01:00,35.3,27.9,29.90,NNW,348,0.0,0.0,74,0.00,,---,0.00,VWS V13.01,2013-01-26 10:01:00,
2013-01-26 03:02:00,35.3,27.9,29.90,NNW,348,0.0,0.0,74,0.00,,---,0.00,VWS V13.01,2013-01-26 10:02:00,
2013-01-26 03:03:00,35.3,28.2,29.90,NNW,348,0.0,0.0,75,0.00,,---,0.00,VWS V13.01,2013-01-26 10:03:00,
2013-01-26 03:04:00,35.3,27.9,29.90,NNW,348,0.0,0.0,74,0.00,,---,0.00,VWS V13.01,2013-01-26 10:04:00,
2013-01-26 03:05:00,35.3,27.9,29.90,NNW,348,0.0,0.0,74,0.00,,---,0.00,VWS V13.01,2013-01-26 10:05:00,
2013-01-26 03:06:00,35.3,27.5,29.90,NNW,348,0.0,0.0,73,0.00,,---,0.00,VWS V13.01,2013-01-26 10:06:00,
2013-01-26 03:07:00,35.3,27.5,29.90,NNW,348,0.0,0.0,73,0.00,,---,0.00,VWS V13.01,2013-01-26 10:07:00,
2013-01-26 03:08:00,35.3,27.9,29.90,NNW,348,0.0,0.0,74,0.00,,---,0.00,VWS V13.01,2013-01-26 10:08:00,
2013-01-26 03:09:00,35.3,27.9,29.90,NNW,348,0.0,0.0,74,0.00,,---,0.00,VWS V13.01,2013-01-26 10:09:00,
2013-01-26 03:10:00,35.3,27.9,29.90,NNW,348,0.0,0.0,74,0.00,,---,0.00,VWS V13.01,2013-01-26 10:10:00,
2013-01-26 03:11:00,35.3,27.9,29.90,NNW,348,0.0,1.0,74,0.00,,---,0.00,VWS V13.01,2013-01-26 10:11:00,
2013-01-26 03:12:00,35.3,27.2,29.90,NNW,348,0.0,1.0,72,0.00,,---,0.00,VWS V13.01,2013-01-26 10:12:00,
2013-01-26 03:13:00,35.3,27.5,29.90,NNW,348,0.0,1.0,73,0.00,,---,0.00,VWS V13.01,2013-01-26 10:13:00,
2013-01-26 03:14:00,35.3,27.9,29.91,NNW,348,0.0,1.0,74,0.00,,---,0.00,VWS V13.01,2013-01-26 10:14:00,
2013-01-26 03:15:00,35.3,27.5,29.91,NNW,348,0.0,1.0,73,0.00,,---,0.00,VWS V13.01,2013-01-26 10:15:00,
2013-01-26 03:16:00,35.3,27.5,29.91,NNW,348,0.0,0.0,73,0.00,,---,0.00,VWS V13.01,2013-01-26 10:16:00,
2013-01-26 03:17:00,35.3,27.5,29.91,NNW,348,0.0,0.0,73,0.00,,---,0.00,VWS V13.01,2013-01-26 10:17:00,
2013-01-26 03:18:00,35.3,27.9,29.91,NNW,348,0.0,0.0,74,0.00,,---,0.00,VWS V13.01,2013-01-26 10:18:00,
2013-01-26 03:19:00,35.3,27.5,29.91,NNW,348,0.0,0.0,73,0.00,,---,0.00,VWS V13.01,2013-01-26 10:19:00,
2013-01-26 03:20:00,35.3,27.9,29.91,NNW,348,0.0,0.0,74,0.00,,---,0.00,VWS V13.01,2013-01-26 10:20:00,
2013-01-26 03:21:00,35.3,27.9,29.91,NNW,348,0.0,0.0,74,0.00,,---,0.00,VWS V13.01,2013-01-26 10:21:00,
2013-01-26 03:22:00,35.3,27.9,29.91,NNW,348,0.0,0.0,74,0.00,,---,0.00,VWS V13.01,2013-01-26 10:22:00,
2013-01-26 03:23:00,35.3,27.9,29.91,NNW,348,0.0,0.0,74,0.00,,---,0.00,VWS V13.01,2013-01-26 10:23:00,
2013-01-26 03:24:00,35.3,27.9,29.91,NNW,348,0.0,0.0,74,0.00,,---,0.00,VWS V13.01,2013-01-26 10:24:00,
2013-01-26 03:25:00,35.3,27.9,29.91,NNW,348,0.0,0.0,74,0.00,,---,0.00,VWS V13.01,2013-01-26 10:25:00,
2013-01-26 03:26:00,35.2,27.8,29.91,NNW,348,0.0,0.0,74,0.00,,---,0.00,VWS V13.01,2013-01-26 10:26:00,
2013-01-26 03:27:00,35.2,27.8,29.91,NNW,348,0.0,0.0,74,0.00,,---,0.00,VWS V13.01,2013-01-26 10:27:00,
2013-01-26 03:28:00,35.2,27.8,29.91,NNW,348,0.0,0.0,74,0.00,,---,0.00,VWS V13.01,2013-01-26 10:28:00,
2013-01-26 03:29:00,35.2,27.8,29.90,NNW,348,0.0,0.0,74,0.00,,---,0.00,VWS V13.01,2013-01-26 10:29:00,
2013-01-26 03:30:00,35.2,27.8,29.90,NNW,348,1.0,1.0,74,0.00,,---,0.00,VWS V13.01,2013-01-26 10:30:00,
2013-01-26 03:31:00,35.2,27.4,29.90,East,93,0.0,3.0,73,0.00,,---,0.00,VWS V13.01,2013-01-26 10:31:00,
2013-01-26 03:32:00,35.2,27.8,29.90,East,93,0.0,3.0,74,0.00,,---,0.00,VWS V13.01,2013-01-26 10:32:00,
2013-01-26 03:33:00,35.2,27.8,29.90,East,93,0.0,3.0,74,0.00,,---,0.00,VWS V13.01,2013-01-26 10:33:00,
2013-01-26 03:34:00,35.0,27.6,29.90,East,93,0.0,3.0,74,0.00,,---,0.00,VWS V13.01,2013-01-26 10:34:00,
2013-01-26 03:35:00,35.0,27.6,29.90,East,93,0.0,3.0,74,0.00,,---,0.00,VWS V13.01,2013-01-26 10:35:00,
2013-01-26 03:36:00,35.0,27.6,29.90,East,93,0.0,0.0,74,0.00,,---,0.00,VWS V13.01,2013-01-26 10:36:00,
2013-01-26 03:37:00,35.0,27.6,29.90,East,93,0.0,0.0,74,0.00,,---,0.00,VWS V13.01,2013-01-26 10:37:00,
2013-01-26 03:38:00,35.0,27.6,29.90,NE,40,0.0,0.0,74,0.00,,---,0.00,VWS V13.01,2013-01-26 10:38:00,
2013-01-26 03:39:00,35.0,27.2,29.90,NE,41,0.0,0.0,73,0.00,,---,0.00,VWS V13.01,2013-01-26 10:39:00,
2013-01-26 03:40:00,34.9,27.1,29.90,NE,40,0.0,0.0,73,0.00,,---,0.00,VWS V13.01,2013-01-26 10:40:00,
2013-01-26 03:41:00,34.9,27.5,29.90,NE,41,0.0,0.0,74,0.00,,---,0.00,VWS V13.01,2013-01-26 10:41:00,
2013-01-26 03:42:00,34.9,27.5,29.90,NE,40,0.0,1.0,74,0.00,,---,0.00,VWS V13.01,2013-01-26 10:42:00,
2013-01-26 03:43:00,34.9,27.8,29.90,NE,41,0.0,1.0,75,0.00,,---,0.00,VWS V13.01,2013-01-26 10:43:00,
2013-01-26 03:44:00,34.9,27.5,29.90,NE,40,0.0,1.0,74,0.00,,---,0.00,VWS V13.01,2013-01-26 10:44:00,
2013-01-26 03:45:00,34.9,27.5,29.90,NE,40,0.0,1.0,74,0.00,,---,0.00,VWS V13.01,2013-01-26 10:45:00,
2013-01-26 03:46:00,34.9,27.5,29.90,NE,40,0.0,1.0,74,0.00,,---,0.00,VWS V13.01,2013-01-26 10:46:00,
2013-01-26 03:47:00,34.9,27.5,29.90,NE,40,0.0,1.0,74,0.00,,---,0.00,VWS V13.01,2013-01-26 10:47:00,
2013-01-26 03:48:00,34.7,27.3,29.90,NE,40,0.0,1.0,74,0.00,,---,0.00,VWS V13.01,2013-01-26 10:48:00,
2013-01-26 03:49:00,34.7,27.6,29.90,NE,40,0.0,1.0,75,0.00,,---,0.00,VWS V13.01,2013-01-26 10:49:00,
2013-01-26 03:50:00,34.7,27.3,29.90,NE,40,0.0,1.0,74,0.00,,---,0.00,VWS V13.01,2013-01-26 10:50:00,
2013-01-26 03:51:00,34.7,27.3,29.90,NE,40,0.0,0.0,74,0.00,,---,0.00,VWS V13.01,2013-01-26 10:51:00,
2013-01-26 03:52:00,34.7,27.3,29.90,NE,40,0.0,0.0,74,0.00,,---,0.00,VWS V13.01,2013-01-26 10:52:00,
2013-01-26 03:53:00,34.7,27.3,29.90,NE,40,0.0,0.0,74,0.00,,---,0.00,VWS V13.01,2013-01-26 10:53:00,
2013-01-26 03:54:00,34.7,27.0,29.90,NE,40,0.0,0.0,73,0.00,,---,0.00,VWS V13.01,2013-01-26 10:54:00,
2013-01-26 03:55:00,34.7,27.0,29.90,NE,40,0.0,0.0,73,0.00,,---,0.00,VWS V13.01,2013-01-26 10:55:00,
2013-01-26 03:56:00,34.7,27.3,29.90,NE,42,0.0,0.0,74,0.00,,---,0.00,VWS V13.01,2013-01-26 10:56:00,
2013-01-26 03:57:00,34.7,27.3,29.90,NE,42,0.0,0.0,74,0.00,,---,0.00,VWS V13.01,2013-01-26 10:57:00,
2013-01-26 03:58:00,34.7,27.0,29.90,NE,42,0.0,0.0,73,0.00,,---,0.00,VWS V13.01,2013-01-26 10:58:00,
2013-01-26 03:59:00,34.7,27.3,29.90,NE,42,0.0,0.0,74,0.00,,---,0.00,VWS V13.01,2013-01-26 10:59:00,
2013-01-26 04:00:00,34.7,27.3,29.90,NE,42,0.0,0.0,74,0.00,,---,0.00,VWS V13.01,2013-01-26 11:00:00,
2013-01-26 04:01:00,34.7,27.3,29.90,NE,42,0.0,0.0,74,0.00,,---,0.00,VWS V13.01,2013-01-26 11:01:00,
2013-01-26 04:02:00,34.7,27.3,29.90,NE,42,0.0,0.0,74,0.00,,---,0.00,VWS V13.01,2013-01-26 11:02:00,
2013-01-26 04:03:00,34.9,27.1,29.90,NE,42,0.0,0.0,73,0.00,,---,0.00,VWS V13.01,2013-01-26 11:03:00,
2013-01-26 04:04:00,34.9,27.5,29.90,NE,42,0.0,0.0,74,0.00,,---,0.00,VWS V13.01,2013-01-26 11:04:00,
2013-01-26 04:05:00,34.9,27.5,29.90,NE,42,0.0,0.0,74,0.00,,---,0.00,VWS V13.01,2013-01-26 11:05:00,
2013-01-26 04:06:00,34.9,27.5,29.90,NE,42,0.0,0.0,74,0.00,,---,0.00,VWS V13.01,2013-01-26 11:06:00,
2013-01-26 04:07:00,34.9,27.1,29.90,NE,42,0.0,0.0,73,0.00,,---,0.00,VWS V13.01,2013-01-26 11:07:00,
2013-01-26 04:08:00,34.7,27.0,29.90,NE,42,0.0,0.0,73,0.00,,---,0.00,VWS V13.01,2013-01-26 11:08:00,
2013-01-26 04:09:00,34.7,27.0,29.90,NE,42,0.0,0.0,73,0.00,,---,0.00,VWS V13.01,2013-01-26 11:09:00,
2013-01-26 04:10:00,34.9,27.1,29.90,NE,42,0.0,0.0,73,0.00,,---,0.00,VWS V13.01,2013-01-26 11:10:00,
2013-01-26 04:11:00,34.7,27.0,29.90,NE,42,0.0,0.0,73,0.00,,---,0.00,VWS V13.01,2013-01-26 11:11:00,
2013-01-26 04:12:00,34.9,27.1,29.90,NE,42,0.0,0.0,73,0.00,,---,0.00,VWS V13.01,2013-01-26 11:12:00,
2013-01-26 04:13:00,34.9,27.1,29.90,NE,42,0.0,0.0,73,0.00,,---,0.00,VWS V13.01,2013-01-26 11:13:00,
2013-01-26 04:14:00,34.7,27.0,29.90,NE,42,0.0,0.0,73,0.00,,---,0.00,VWS V13.01,2013-01-26 11:14:00,
2013-01-26 04:15:00,34.7,27.0,29.90,NE,42,0.0,0.0,73,0.00,,---,0.00,VWS V13.01,2013-01-26 11:15:00,
2013-01-26 04:16:00,34.7,27.0,29.90,NE,42,0.0,0.0,73,0.00,,---,0.00,VWS V13.01,2013-01-26 11:16:00,
2013-01-26 04:17:00,34.7,26.6,29.90,NE,42,0.0,0.0,72,0.00,,---,0.00,VWS V13.01,2013-01-26 11:17:00,
2013-01-26 04:18:00,34.7,27.0,29.90,NE,42,0.0,2.0,73,0.00,,---,0.00,VWS V13.01,2013-01-26 11:18:00,
2013-01-26 04:19:00,34.7,27.3,29.90,NE,42,0.0,2.0,74,0.00,,---,0.00,VWS V13.01,2013-01-26 11:19:00,
2013-01-26 04:20:00,34.7,27.3,29.90,NE,42,0.0,2.0,74,0.00,,---,0.00,VWS V13.01,2013-01-26 11:20:00,
2013-01-26 04:21:00,34.6,27.2,29.90,NE,42,0.0,0.0,74,0.00,,---,0.00,VWS V13.01,2013-01-26 11:21:00,
2013-01-26 04:22:00,34.6,27.2,29.90,NE,42,0.0,0.0,74,0.00,,---,0.00,VWS V13.01,2013-01-26 11:22:00,
2013-01-26 04:23:00,34.6,27.5,29.90,NE,42,0.0,0.0,75,0.00,,---,0.00,VWS V13.01,2013-01-26 11:23:00,
2013-01-26 04:24:00,34.6,27.2,29.90,NE,42,0.0,0.0,74,0.00,,---,0.00,VWS V13.01,2013-01-26 11:24:00,
2013-01-26 04:25:00,34.6,27.2,29.90,NE,42,0.0,0.0,74,0.00,,---,0.00,VWS V13.01,2013-01-26 11:25:00,
2013-01-26 04:26:00,34.4,27.0,29.90,NE,42,0.0,0.0,74,0.00,,---,0.00,VWS V13.01,2013-01-26 11:26:00,
2013-01-26 04:27:00,34.4,27.3,29.90,NE,42,0.0,0.0,75,0.00,,---,0.00,VWS V13.01,2013-01-26 11:27:00,
2013-01-26 04:28:00,34.4,27.3,29.90,NE,42,0.0,0.0,75,0.00,,---,0.00,VWS V13.01,2013-01-26 11:28:00,
2013-01-26 04:29:00,34.4,27.6,29.90,NE,42,0.0,0.0,76,0.00,,---,0.00,VWS V13.01,2013-01-26 11:29:00,
2013-01-26 04:30:00,34.4,27.3,29.90,NE,42,0.0,0.0,75,0.00,,---,0.00,VWS V13.01,2013-01-26 11:30:00,
2013-01-26 04:31:00,34.3,27.2,29.90,NE,42,0.0,1.0,75,0.00,,---,0.00,VWS V13.01,2013-01-26 11:31:00,
2013-01-26 04:32:00,34.3,27.2,29.90,NE,42,0.0,1.0,75,0.00,,---,0.00,VWS V13.01,2013-01-26 11:32:00,
2013-01-26 04:33:00,34.3,27.2,29.90,NE,42,0.0,1.0,75,0.00,,---,0.00,VWS V13.01,2013-01-26 11:33:00,
2013-01-26 04:34:00,34.3,27.2,29.90,NE,42,0.0,1.0,75,0.00,,---,0.00,VWS V13.01,2013-01-26 11:34:00,
2013-01-26 04:35:00,34.3,26.9,29.90,NE,42,0.0,1.0,74,0.00,,---,0.00,VWS V13.01,2013-01-26 11:35:00,
2013-01-26 04:36:00,34.3,26.9,29.90,NE,42,0.0,0.0,74,0.00,,---,0.00,VWS V13.01,2013-01-26 11:36:00,
2013-01-26 04:37:00,34.3,26.9,29.90,NE,42,0.0,0.0,74,0.00,,---,0.00,VWS V13.01,2013-01-26 11:37:00,
2013-01-26 04:38:00,34.1,26.7,29.90,SSW,198,0.0,3.0,74,0.00,,---,0.00,VWS V13.01,2013-01-26 11:38:00,
2013-01-26 04:39:00,34.1,26.7,29.90,SSW,198,0.0,3.0,74,0.00,,---,0.00,VWS V13.01,2013-01-26 11:39:00,
2013-01-26 04:40:00,34.1,26.7,29.90,SSW,198,0.0,3.0,74,0.00,,---,0.00,VWS V13.01,2013-01-26 11:40:00,
2013-01-26 04:41:00,34.3,27.2,29.90,ENE,62,1.0,2.0,75,0.00,,---,0.00,VWS V13.01,2013-01-26 11:41:00,
2013-01-26 04:42:00,34.3,27.2,29.90,ENE,62,1.0,2.0,75,0.00,,---,0.00,VWS V13.01,2013-01-26 11:42:00,
2013-01-26 04:43:00,34.3,26.9,29.90,ENE,62,0.0,2.0,74,0.00,,---,0.00,VWS V13.01,2013-01-26 11:43:00,
2013-01-26 04:44:00,34.3,27.2,29.90,ENE,62,0.0,2.0,75,0.00,,---,0.00,VWS V13.01,2013-01-26 11:44:00,
2013-01-26 04:45:00,34.3,26.9,29.90,ENE,62,0.0,2.0,74,0.00,,---,0.00,VWS V13.01,2013-01-26 11:45:00,
2013-01-26 04:46:00,34.3,26.6,29.90,ENE,62,0.0,0.0,73,0.00,,---,0.00,VWS V13.01,2013-01-26 11:46:00,
2013-01-26 04:47:00,34.3,26.9,29.90,ENE,62,0.0,0.0,74,0.00,,---,0.00,VWS V13.01,2013-01-26 11:47:00,
2013-01-26 04:48:00,34.4,27.3,29.90,ENE,62,0.0,0.0,75,0.00,,---,0.00,VWS V13.01,2013-01-26 11:48:00,
2013-01-26 04:49:00,34.4,27.0,29.90,ENE,62,0.0,0.0,74,0.00,,---,0.00,VWS V13.01,2013-01-26 11:49:00,
2013-01-26 04:50:00,34.4,27.0,29.90,ENE,62,0.0,0.0,74,0.00,,---,0.00,VWS V13.01,2013-01-26 11:50:00,
2013-01-26 04:51:00,34.4,27.0,29.90,ESE,107,1.0,3.0,74,0.00,,---,0.00,VWS V13.01,2013-01-26 11:51:00,
2013-01-26 04:52:00,34.4,27.0,29.90,ESE,109,0.0,3.0,74,0.00,,---,0.00,VWS V13.01,2013-01-26 11:52:00,
2013-01-26 04:53:00,34.6,27.2,29.90,NW,322,7.0,7.0,74,0.00,,---,0.00,VWS V13.01,2013-01-26 11:53:00,
2013-01-26 04:54:00,34.6,26.5,29.90,NE,48,0.0,7.0,72,0.00,,---,0.00,VWS V13.01,2013-01-26 11:54:00,
2013-01-26 04:55:00,34.6,26.5,29.90,NNE,17,0.0,7.0,72,0.00,,---,0.00,VWS V13.01,2013-01-26 11:55:00,
2013-01-26 04:56:00,34.7,26.6,29.90,NNE,17,0.0,0.0,72,0.00,,---,0.00,VWS V13.01,2013-01-26 11:56:00,
2013-01-26 04:57:00,34.7,27.0,29.90,ENE,65,0.0,0.0,73,0.00,,---,0.00,VWS V13.01,2013-01-26 11:57:00,
2013-01-26 04:58:00,34.7,26.6,29.90,ENE,61,0.0,1.0,72,0.00,,---,0.00,VWS V13.01,2013-01-26 11:58:00,
2013-01-26 04:59:00,34.9,27.1,29.89,ENE,61,0.0,1.0,73,0.00,,---,0.00,VWS V13.01,2013-01-26 11:59:00,
2013-01-26 05:00:00,34.9,27.1,29.89,ENE,61,0.0,1.0,73,0.00,,---,0.00,VWS V13.01,2013-01-26 12:00:00,
2013-01-26 05:01:00,34.9,26.8,29.89,ENE,61,1.0,1.0,72,0.00,,---,0.00,VWS V13.01,2013-01-26 12:01:00,
2013-01-26 05:02:00,35.0,26.9,29.89,ENE,61,0.0,1.0,72,0.00,,---,0.00,VWS V13.01,2013-01-26 12:02:00,
2013-01-26 05:03:00,35.0,27.2,29.89,ENE,61,0.0,1.0,73,0.00,,---,0.00,VWS V13.01,2013-01-26 12:03:00,
2013-01-26 05:04:00,35.0,27.2,29.89,ENE,61,0.0,1.0,73,0.00,,---,0.00,VWS V13.01,2013-01-26 12:04:00,
2013-01-26 05:05:00,35.0,27.2,29.89,ENE,61,0.0,1.0,73,0.00,,---,0.00,VWS V13.01,2013-01-26 12:05:00,
2013-01-26 05:06:00,35.0,26.9,29.89,ENE,61,0.0,0.0,72,0.00,,---,0.00,VWS V13.01,2013-01-26 12:06:00,
2013-01-26 05:07:00,35.0,26.9,29.89,ENE,61,0.0,0.0,72,0.00,,---,0.00,VWS V13.01,2013-01-26 12:07:00,
2013-01-26 05:08:00,35.0,27.2,29.89,ENE,61,0.0,0.0,73,0.00,,---,0.00,VWS V13.01,2013-01-26 12:08:00,
2013-01-26 05:09:00,35.0,27.2,29.89,ENE,61,0.0,0.0,73,0.00,,---,0.00,VWS V13.01,2013-01-26 12:09:00,
2013-01-26 05:10:00,35.0,27.2,29.89,ENE,61,0.0,0.0,73,0.00,,---,0.00,VWS V13.01,2013-01-26 12:10:00,
2013-01-26 05:11:00,35.0,27.2,29.89,ENE,61,0.0,0.0,73,0.00,,---,0.00,VWS V13.01,2013-01-26 12:11:00,
2013-01-26 05:12:00,35.0,26.9,29.89,ENE,61,0.0,0.0,72,0.00,,---,0.00,VWS V13.01,2013-01-26 12:12:00,
2013-01-26 05:13:00,35.0,26.9,29.89,ENE,61,0.0,0.0,72,0.00,,---,0.00,VWS V13.01,2013-01-26 12:13:00,
2013-01-26 05:14:00,35.0,26.9,29.89,ENE,61,0.0,0.0,72,0.00,,---,0.00,VWS V13.01,2013-01-26 12:14:00,
2013-01-26 05:15:00,35.0,26.9,29.90,ENE,61,0.0,0.0,72,0.00,,---,0.00,VWS V13.01,2013-01-26 12:15:00,
2013-01-26 05:16:00,35.0,27.2,29.90,ENE,61,0.0,0.0,73,0.00,,---,0.00,VWS V13.01,2013-01-26 12:16:00,
2013-01-26 05:17:00,35.0,27.2,29.90,ENE,61,0.0,1.0,73,0.00,,---,0.00,VWS V13.01,2013-01-26 12:17:00,
2013-01-26 05:18:00,34.9,27.1,29.90,ENE,61,0.0,1.0,73,0.00,,---,0.00,VWS V13.01,2013-01-26 12:18:00,
2013-01-26 05:19:00,34.9,27.1,29.90,ENE,61,0.0,1.0,73,0.00,,---,0.00,VWS V13.01,2013-01-26 12:19:00,
2013-01-26 05:20:00,34.9,27.5,29.90,ENE,61,0.0,1.0,74,0.00,,---,0.00,VWS V13.01,2013-01-26 12:20:00,
2013-01-26 05:21:00,34.9,27.1,29.90,ENE,61,0.0,2.0,73,0.00,,---,0.00,VWS V13.01,2013-01-26 12:21:00,
2013-01-26 05:22:00,34.9,27.1,29.90,ENE,61,0.0,2.0,73,0.00,,---,0.00,VWS V13.01,2013-01-26 12:22:00,
2013-01-26 05:23:00,34.9,27.1,29.90,ENE,61,0.0,2.0,73,0.00,,---,0.00,VWS V13.01,2013-01-26 12:23:00,
2013-01-26 05:24:00,34.9,27.1,29.90,ENE,61,0.0,2.0,73,0.00,,---,0.00,VWS V13.01,2013-01-26 12:24:00,
2013-01-26 05:25:00,34.9,27.5,29.90,ENE,61,0.0,2.0,74,0.00,,---,0.00,VWS V13.01,2013-01-26 12:25:00,
2013-01-26 05:26:00,34.9,27.5,29.90,ENE,61,0.0,0.0,74,0.00,,---,0.00,VWS V13.01,2013-01-26 12:26:00,
2013-01-26 05:27:00,34.9,27.5,29.90,ENE,61,0.0,0.0,74,0.00,,---,0.00,VWS V13.01,2013-01-26 12:27:00,
2013-01-26 05:28:00,34.9,27.5,29.90,ENE,61,0.0,0.0,74,0.00,,---,0.00,VWS V13.01,2013-01-26 12:28:00,
2013-01-26 05:29:00,34.9,27.5,29.89,ENE,61,0.0,0.0,74,0.00,,---,0.00,VWS V13.01,2013-01-26 12:29:00,
2013-01-26 05:30:00,34.9,27.1,29.89,ENE,61,0.0,0.0,73,0.00,,---,0.00,VWS V13.01,2013-01-26 12:30:00,
2013-01-26 05:31:00,34.9,27.5,29.89,ENE,61,0.0,0.0,74,0.00,,---,0.00,VWS V13.01,2013-01-26 12:31:00,
2013-01-26 05:32:00,34.9,27.5,29.89,ENE,61,0.0,0.0,74,0.00,,---,0.00,VWS V13.01,2013-01-26 12:32:00,
2013-01-26 05:33:00,34.9,27.1,29.89,ENE,61,0.0,2.0,73,0.00,,---,0.00,VWS V13.01,2013-01-26 12:33:00,
2013-01-26 05:34:00,34.9,27.1,29.89,ENE,61,0.0,2.0,73,0.00,,---,0.00,VWS V13.01,2013-01-26 12:34:00,
2013-01-26 05:35:00,34.9,27.1,29.89,ENE,61,0.0,2.0,73,0.00,,---,0.00,VWS V13.01,2013-01-26 12:35:00,
2013-01-26 05:36:00,34.9,27.5,29.89,ENE,61,0.0,0.0,74,0.00,,---,0.00,VWS V13.01,2013-01-26 12:36:00,
2013-01-26 05:37:00,34.9,27.5,29.89,ENE,61,0.0,0.0,74,0.00,,---,0.00,VWS V13.01,2013-01-26 12:37:00,
2013-01-26 05:38:00,34.9,27.5,29.89,ENE,61,0.0,0.0,74,0.00,,---,0.00,VWS V13.01,2013-01-26 12:38:00,
2013-01-26 05:39:00,34.9,27.5,29.89,ENE,61,1.0,2.0,74,0.00,,---,0.00,VWS V13.01,2013-01-26 12:39:00,
2013-01-26 05:40:00,34.9,26.8,29.89,ENE,61,0.0,2.0,72,0.00,,---,0.00,VWS V13.01,2013-01-26 12:40:00,
2013-01-26 05:41:00,34.9,27.1,29.89,ENE,61,0.0,0.0,73,0.00,,---,0.00,VWS V13.01,2013-01-26 12:41:00,
2013-01-26 05:42:00,34.9,27.1,29.89,ENE,61,0.0,0.0,73,0.00,,---,0.00,VWS V13.01,2013-01-26 12:42:00,
2013-01-26 05:43:00,34.9,27.1,29.89,ENE,61,0.0,0.0,73,0.00,,---,0.00,VWS V13.01,2013-01-26 12:43:00,
2013-01-26 05:44:00,34.9,27.1,29.89,ENE,61,0.0,0.0,73,0.00,,---,0.00,VWS V13.01,2013-01-26 12:44:00,
2013-01-26 05:45:00,34.9,27.1,29.89,ENE,61,0.0,0.0,73,0.00,,---,0.00,VWS V13.01,2013-01-26 12:45:00,
2013-01-26 05:46:00,34.9,27.1,29.89,ENE,61,0.0,0.0,73,0.00,,---,0.00,VWS V13.01,2013-01-26 12:46:00,
2013-01-26 05:47:00,34.9,27.5,29.89,ENE,61,0.0,0.0,74,0.00,,---,0.00,VWS V13.01,2013-01-26 12:47:00,
2013-01-26 05:48:00,34.7,27.0,29.89,ENE,61,0.0,0.0,73,0.00,,---,0.00,VWS V13.01,2013-01-26 12:48:00,
2013-01-26 05:49:00,34.7,27.0,29.89,ENE,61,0.0,0.0,73,0.00,,---,0.00,VWS V13.01,2013-01-26 12:49:00,
2013-01-26 05:50:00,34.7,27.0,29.89,ENE,61,0.0,0.0,73,0.00,,---,0.00,VWS V13.01,2013-01-26 12:50:00,
2013-01-26 05:51:00,34.7,27.3,29.89,ENE,61,0.0,0.0,74,0.00,,---,0.00,VWS V13.01,2013-01-26 12:51:00,
2013-01-26 05:52:00,34.7,27.3,29.89,ENE,61,0.0,0.0,74,0.00,,---,0.00,VWS V13.01,2013-01-26 12:52:00,
2013-01-26 05:53:00,34.7,27.3,29.89,ENE,61,0.0,0.0,74,0.00,,---,0.00,VWS V13.01,2013-01-26 12:53:00,
2013-01-26 05:54:00,34.7,27.3,29.89,ENE,61,0.0,0.0,74,0.00,,---,0.00,VWS V13.01,2013-01-26 12:54:00,
2013-01-26 05:55:00,34.6,27.2,29.89,ENE,61,0.0,0.0,74,0.00,,---,0.00,VWS V13.01,2013-01-26 12:55:00,
2013-01-26 05:56:00,34.6,27.2,29.89,ENE,61,0.0,0.0,74,0.00,,---,0.00,VWS V13.01,2013-01-26 12:56:00,
2013-01-26 05:57:00,34.6,27.2,29.89,ENE,61,0.0,0.0,74,0.00,,---,0.00,VWS V13.01,2013-01-26 12:57:00,
2013-01-26 05:58:00,34.6,27.2,29.89,ENE,61,0.0,0.0,74,0.00,,---,0.00,VWS V13.01,2013-01-26 12:58:00,
2013-01-26 05:59:00,34.6,26.9,29.89,ENE,61,0.0,0.0,73,0.00,,---,0.00,VWS V13.01,2013-01-26 12:59:00,
2013-01-26 06:00:00,34.6,26.9,29.90,ENE,61,0.0,0.0,73,0.00,,---,0.00,VWS V13.01,2013-01-26 13:00:00,
2013-01-26 06:01:00,34.6,26.9,29.90,ENE,61,0.0,0.0,73,0.00,,---,0.00,VWS V13.01,2013-01-26 13:01:00,
2013-01-26 06:02:00,34.6,26.9,29.90,ENE,61,0.0,0.0,73,0.00,,---,0.00,VWS V13.01,2013-01-26 13:02:00,
2013-01-26 06:03:00,34.6,27.2,29.90,ENE,61,0.0,1.0,74,0.00,,---,0.00,VWS V13.01,2013-01-26 13:03:00,
2013-01-26 06:04:00,34.6,26.9,29.90,ENE,61,0.0,1.0,73,0.00,,---,0.00,VWS V13.01,2013-01-26 13:04:00,
2013-01-26 06:05:00,34.6,27.2,29.90,ENE,61,0.0,1.0,74,0.00,,---,0.00,VWS V13.01,2013-01-26 13:05:00,
2013-01-26 06:06:00,34.6,27.5,29.90,ENE,61,0.0,0.0,75,0.00,,---,0.00,VWS V13.01,2013-01-26 13:06:00,
2013-01-26 06:07:00,34.6,27.5,29.90,ENE,61,0.0,0.0,75,0.00,,---,0.00,VWS V13.01,2013-01-26 13:07:00,
2013-01-26 06:08:00,34.6,27.5,29.90,ENE,61,0.0,0.0,75,0.00,,---,0.00,VWS V13.01,2013-01-26 13:08:00,
2013-01-26 06:09:00,34.4,27.0,29.90,ENE,61,0.0,0.0,74,0.00,,---,0.00,VWS V13.01,2013-01-26 13:09:00,
2013-01-26 06:10:00,34.4,27.3,29.90,ENE,61,0.0,0.0,75,0.00,,---,0.00,VWS V13.01,2013-01-26 13:10:00,
2013-01-26 06:11:00,34.4,27.3,29.90,ENE,61,0.0,0.0,75,0.00,,---,0.00,VWS V13.01,2013-01-26 13:11:00,
2013-01-26 06:12:00,34.4,27.3,29.90,ENE,61,0.0,0.0,75,0.00,,---,0.00,VWS V13.01,2013-01-26 13:12:00,
2013-01-26 06:13:00,34.4,27.0,29.90,ENE,61,0.0,0.0,74,0.00,,---,0.00,VWS V13.01,2013-01-26 13:13:00,
2013-01-26 06:14:00,34.3,27.2,29.91,ENE,61,0.0,0.0,75,0.00,,---,0.00,VWS V13.01,2013-01-26 13:14:00,
2013-01-26 06:15:00,34.3,27.2,29.91,ENE,61,0.0,0.0,75,0.00,,---,0.00,VWS V13.01,2013-01-26 13:15:00,
2013-01-26 06:16:00,34.3,27.2,29.91,ENE,61,0.0,0.0,75,0.00,,---,0.00,VWS V13.01,2013-01-26 13:16:00,
2013-01-26 06:17:00,34.3,27.2,29.91,ENE,61,0.0,0.0,75,0.00,,---,0.00,VWS V13.01,2013-01-26 13:17:00,
2013-01-26 06:18:00,34.3,27.2,29.91,ENE,61,0.0,0.0,75,0.00,,---,0.00,VWS V13.01,2013-01-26 13:18:00,
2013-01-26 06:19:00,34.3,27.2,29.91,ENE,61,0.0,0.0,75,0.00,,---,0.00,VWS V13.01,2013-01-26 13:19:00,
2013-01-26 06:20:00,34.3,27.2,29.91,ENE,61,0.0,0.0,75,0.00,,---,0.00,VWS V13.01,2013-01-26 13:20:00,
2013-01-26 06:21:00,34.3,26.9,29.91,ENE,61,0.0,0.0,74,0.00,,---,0.00,VWS V13.01,2013-01-26 13:21:00,
2013-01-26 06:22:00,34.1,26.7,29.91,ENE,61,0.0,0.0,74,0.00,,---,0.00,VWS V13.01,2013-01-26 13:22:00,
2013-01-26 06:23:00,34.1,26.7,29.91,ENE,61,0.0,0.0,74,0.00,,---,0.00,VWS V13.01,2013-01-26 13:23:00,
2013-01-26 06:24:00,34.1,26.7,29.91,ENE,61,0.0,0.0,74,0.00,,---,0.00,VWS V13.01,2013-01-26 13:24:00,
2013-01-26 06:25:00,34.1,26.7,29.91,ENE,61,0.0,0.0,74,0.00,,---,0.00,VWS V13.01,2013-01-26 13:25:00,
2013-01-26 06:26:00,34.1,27.0,29.91,ENE,61,0.0,0.0,75,0.00,,---,0.00,VWS V13.01,2013-01-26 13:26:00,
2013-01-26 06:27:00,34.1,27.0,29.91,ENE,61,0.0,0.0,75,0.00,,---,0.00,VWS V13.01,2013-01-26 13:27:00,
2013-01-26 06:28:00,34.0,26.9,29.91,ENE,61,0.0,0.0,75,0.00,,---,0.00,VWS V13.01,2013-01-26 13:28:00,
2013-01-26 06:29:00,34.0,26.9,29.91,ENE,61,0.0,0.0,75,0.00,,---,0.00,VWS V13.01,2013-01-26 13:29:00,
2013-01-26 06:30:00,34.0,27.2,29.91,ENE,61,0.0,0.0,76,0.00,,---,0.00,VWS V13.01,2013-01-26 13:30:00,
2013-01-26 06:31:00,34.0,27.2,29.91,ENE,61,0.0,0.0,76,0.00,,---,0.00,VWS V13.01,2013-01-26 13:31:00,
2013-01-26 06:32:00,34.0,27.2,29.91,ENE,61,0.0,0.0,76,0.00,,---,0.00,VWS V13.01,2013-01-26 13:32:00,
2013-01-26 06:33:00,33.8,27.0,29.91,ENE,61,0.0,0.0,76,0.00,,---,0.00,VWS V13.01,2013-01-26 13:33:00,
2013-01-26 06:34:00,33.8,27.0,29.91,ENE,61,0.0,0.0,76,0.00,,---,0.00,VWS V13.01,2013-01-26 13:34:00,
2013-01-26 06:35:00,33.8,26.7,29.91,ENE,61,0.0,0.0,75,0.00,,---,0.00,VWS V13.01,2013-01-26 13:35:00,
2013-01-26 06:36:00,33.8,26.7,29.91,ENE,61,0.0,0.0,75,0.00,,---,0.00,VWS V13.01,2013-01-26 13:36:00,
2013-01-26 06:37:00,33.8,26.7,29.91,ENE,61,0.0,0.0,75,0.00,,---,0.00,VWS V13.01,2013-01-26 13:37:00,
2013-01-26 06:38:00,33.8,26.7,29.91,ENE,61,0.0,0.0,75,0.00,,---,0.00,VWS V13.01,2013-01-26 13:38:00,
2013-01-26 06:39:00,33.8,26.7,29.91,ENE,61,0.0,0.0,75,0.00,,---,0.00,VWS V13.01,2013-01-26 13:39:00,
2013-01-26 06:40:00,33.8,26.4,29.91,ENE,61,0.0,0.0,74,0.00,,---,0.00,VWS V13.01,2013-01-26 13:40:00,
2013-01-26 06:41:00,33.8,26.7,29.91,ENE,61,0.0,0.0,75,0.00,,---,0.00,VWS V13.01,2013-01-26 13:41:00,
2013-01-26 06:42:00,33.8,26.7,29.91,ENE,61,0.0,0.0,75,0.00,,---,0.00,VWS V13.01,2013-01-26 13:42:00,
2013-01-26 06:43:00,33.7,26.6,29.91,ENE,61,0.0,0.0,75,0.00,,---,0.00,VWS V13.01,2013-01-26 13:43:00,
2013-01-26 06:44:00,33.7,26.6,29.91,ENE,61,0.0,0.0,75,0.00,,---,0.00,VWS V13.01,2013-01-26 13:44:00,
2013-01-26 06:45:00,33.7,27.0,29.90,ENE,61,0.0,0.0,76,0.00,,---,0.00,VWS V13.01,2013-01-26 13:45:00,
2013-01-26 06:46:00,33.7,27.0,29.90,ENE,61,0.0,0.0,76,0.00,,---,0.00,VWS V13.01,2013-01-26 13:46:00,
2013-01-26 06:47:00,33.7,27.0,29.90,ENE,61,0.0,0.0,76,0.00,,---,0.00,VWS V13.01,2013-01-26 13:47:00,
2013-01-26 06:48:00,33.7,27.0,29.90,ENE,61,0.0,0.0,76,0.00,,---,0.00,VWS V13.01,2013-01-26 13:48:00,
2013-01-26 06:49:00,33.7,27.0,29.90,ENE,61,0.0,0.0,76,0.00,,---,0.00,VWS V13.01,2013-01-26 13:49:00,
2013-01-26 06:50:00,33.7,27.0,29.90,ENE,61,0.0,0.0,76,0.00,,---,0.00,VWS V13.01,2013-01-26 13:50:00,
2013-01-26 06:51:00,33.7,27.0,29.90,ENE,61,0.0,0.0,76,0.00,,---,0.00,VWS V13.01,2013-01-26 13:51:00,
2013-01-26 06:52:00,33.7,27.0,29.90,ENE,61,0.0,0.0,76,0.00,,---,0.00,VWS V13.01,2013-01-26 13:52:00,
2013-01-26 06:53:00,33.8,27.0,29.90,ENE,61,0.0,0.0,76,0.00,,---,0.00,VWS V13.01,2013-01-26 13:53:00,
2013-01-26 06:54:00,33.8,27.0,29.90,ENE,61,0.0,0.0,76,0.00,,---,0.00,VWS V13.01,2013-01-26 13:54:00,
2013-01-26 06:55:00,33.8,27.4,29.90,ENE,61,0.0,0.0,77,0.00,,---,0.00,VWS V13.01,2013-01-26 13:55:00,
2013-01-26 06:56:00,33.8,27.4,29.90,ENE,61,0.0,0.0,77,0.00,,---,0.00,VWS V13.01,2013-01-26 13:56:00,
2013-01-26 06:57:00,33.8,27.4,29.90,ENE,61,0.0,0.0,77,0.00,,---,0.00,VWS V13.01,2013-01-26 13:57:00,
2013-01-26 06:58:00,34.0,27.6,29.90,ENE,61,0.0,0.0,77,0.00,,---,0.00,VWS V13.01,2013-01-26 13:58:00,
2013-01-26 06:59:00,34.0,27.6,29.90,ENE,61,0.0,0.0,77,0.00,,---,0.00,VWS V13.01,2013-01-26 13:59:00,
2013-01-26 07:00:00,34.0,27.6,29.90,ENE,61,0.0,0.0,77,0.00,,---,0.00,VWS V13.01,2013-01-26 14:00:00,
2013-01-26 07:01:00,34.0,27.6,29.90,ENE,61,0.0,0.0,77,0.00,,---,0.00,VWS V13.01,2013-01-26 14:01:00,
2013-01-26 07:02:00,34.0,27.6,29.90,ENE,61,0.0,0.0,77,0.00,,---,0.00,VWS V13.01,2013-01-26 14:02:00,
2013-01-26 07:03:00,34.0,27.6,29.90,ENE,61,0.0,0.0,77,0.00,,---,0.00,VWS V13.01,2013-01-26 14:03:00,
2013-01-26 07:04:00,34.0,27.6,29.90,ENE,61,0.0,0.0,77,0.00,,---,0.00,VWS V13.01,2013-01-26 14:04:00,
2013-01-26 07:05:00,34.0,27.6,29.90,ENE,61,0.0,0.0,77,0.00,,---,0.00,VWS V13.01,2013-01-26 14:05:00,
2013-01-26 07:06:00,34.0,27.2,29.90,ENE,61,0.0,0.0,76,0.00,,---,0.00,VWS V13.01,2013-01-26 14:06:00,
2013-01-26 07:07:00,34.0,27.6,29.90,ENE,61,0.0,0.0,77,0.00,,---,0.00,VWS V13.01,2013-01-26 14:07:00,
2013-01-26 07:08:00,34.0,27.2,29.90,ENE,61,0.0,0.0,76,0.00,,---,0.00,VWS V13.01,2013-01-26 14:08:00,
2013-01-26 07:09:00,34.0,27.2,29.90,ENE,61,0.0,1.0,76,0.00,,---,0.00,VWS V13.01,2013-01-26 14:09:00,
2013-01-26 07:10:00,34.1,27.3,29.90,ENE,61,0.0,1.0,76,0.00,,---,0.00,VWS V13.01,2013-01-26 14:10:00,
2013-01-26 07:11:00,34.1,27.3,29.90,ENE,61,0.0,0.0,76,0.00,,---,0.00,VWS V13.01,2013-01-26 14:11:00,
2013-01-26 07:12:00,34.1,27.3,29.90,ENE,61,0.0,0.0,76,0.00,,---,0.00,VWS V13.01,2013-01-26 14:12:00,
2013-01-26 07:13:00,34.1,27.3,29.90,ENE,61,0.0,0.0,76,0.00,,---,0.00,VWS V13.01,2013-01-26 14:13:00,
2013-01-26 07:14:00,34.1,27.0,29.89,ENE,61,0.0,0.0,75,0.00,,---,0.00,VWS V13.01,2013-01-26 14:14:00,
2013-01-26 07:15:00,34.1,27.0,29.89,ENE,61,0.0,0.0,75,0.00,,---,0.00,VWS V13.01,2013-01-26 14:15:00,
2013-01-26 07:16:00,34.1,27.0,29.89,ENE,61,0.0,0.0,75,0.00,,---,0.00,VWS V13.01,2013-01-26 14:16:00,
2013-01-26 07:17:00,34.1,27.0,29.89,ENE,61,0.0,0.0,75,0.00,,---,0.00,VWS V13.01,2013-01-26 14:17:00,
2013-01-26 07:18:00,34.1,27.0,29.89,ENE,61,0.0,0.0,75,0.00,,---,0.00,VWS V13.01,2013-01-26 14:18:00,
2013-01-26 07:19:00,34.1,26.7,29.89,ENE,61,0.0,0.0,74,0.00,,---,0.00,VWS V13.01,2013-01-26 14:19:00,
2013-01-26 07:20:00,34.1,26.7,29.89,ENE,61,0.0,0.0,74,0.00,,---,0.00,VWS V13.01,2013-01-26 14:20:00,
2013-01-26 07:21:00,34.1,26.7,29.89,ENE,61,0.0,0.0,74,0.00,,---,0.00,VWS V13.01,2013-01-26 14:21:00,
2013-01-26 07:22:00,34.1,26.7,29.89,ENE,61,0.0,0.0,74,0.00,,---,0.00,VWS V13.01,2013-01-26 14:22:00,
2013-01-26 07:23:00,34.1,26.7,29.89,ENE,61,0.0,0.0,74,0.00,,---,0.00,VWS V13.01,2013-01-26 14:23:00,
2013-01-26 07:24:00,34.1,26.7,29.89,ENE,61,0.0,2.0,74,0.00,,---,0.00,VWS V13.01,2013-01-26 14:24:00,
2013-01-26 07:25:00,34.1,26.7,29.89,ENE,61,0.0,2.0,74,0.00,,---,0.00,VWS V13.01,2013-01-26 14:25:00,
2013-01-26 07:26:00,34.0,26.6,29.89,ENE,61,0.0,0.0,74,0.00,,---,0.00,VWS V13.01,2013-01-26 14:26:00,
2013-01-26 07:27:00,34.0,26.6,29.89,ENE,61,0.0,0.0,74,0.00,,---,0.00,VWS V13.01,2013-01-26 14:27:00,
2013-01-26 07:28:00,34.0,26.3,29.89,ENE,61,0.0,0.0,73,0.00,,---,0.00,VWS V13.01,2013-01-26 14:28:00,
2013-01-26 07:29:00,34.0,26.6,29.88,ENE,61,0.0,0.0,74,0.00,,---,0.00,VWS V13.01,2013-01-26 14:29:00,
2013-01-26 07:30:00,34.0,26.9,29.88,ENE,61,0.0,0.0,75,0.00,,---,0.00,VWS V13.01,2013-01-26 14:30:00,
2013-01-26 07:31:00,34.0,26.9,29.88,ENE,61,0.0,0.0,75,0.00,,---,0.00,VWS V13.01,2013-01-26 14:31:00,
2013-01-26 07:32:00,34.0,26.9,29.88,ENE,61,0.0,0.0,75,0.00,,---,0.00,VWS V13.01,2013-01-26 14:32:00,
2013-01-26 07:33:00,33.8,26.4,29.88,ENE,61,0.0,0.0,74,0.00,,---,0.00,VWS V13.01,2013-01-26 14:33:00,
2013-01-26 07:34:00,33.8,26.4,29.88,ENE,61,0.0,0.0,74,0.00,,---,0.00,VWS V13.01,2013-01-26 14:34:00,
2013-01-26 07:35:00,33.8,26.4,29.88,ENE,61,0.0,0.0,74,0.00,,---,0.00,VWS V13.01,2013-01-26 14:35:00,
2013-01-26 07:36:00,33.8,26.4,29.88,ENE,61,0.0,0.0,74,0.00,,---,0.00,VWS V13.01,2013-01-26 14:36:00,
2013-01-26 07:37:00,33.7,26.3,29.88,ENE,61,0.0,0.0,74,0.00,,---,0.00,VWS V13.01,2013-01-26 14:37:00,
2013-01-26 07:38:00,33.7,26.6,29.88,ENE,61,0.0,0.0,75,0.00,,---,0.00,VWS V13.01,2013-01-26 14:38:00,
2013-01-26 07:39:00,33.7,27.0,29.88,ENE,61,0.0,0.0,76,0.00,,---,0.00,VWS V13.01,2013-01-26 14:39:00,
2013-01-26 07:40:00,33.7,27.0,29.88,ENE,61,0.0,0.0,76,0.00,,---,0.00,VWS V13.01,2013-01-26 14:40:00,
2013-01-26 07:41:00,33.7,26.6,29.88,ENE,61,0.0,0.0,75,0.00,,---,0.00,VWS V13.01,2013-01-26 14:41:00,
2013-01-26 07:42:00,33.7,27.0,29.88,ENE,61,0.0,0.0,76,0.00,,---,0.00,VWS V13.01,2013-01-26 14:42:00,
2013-01-26 07:43:00,33.7,27.0,29.88,ENE,61,0.0,0.0,76,0.00,,---,0.00,VWS V13.01,2013-01-26 14:43:00,
2013-01-26 07:44:00,33.7,26.6,29.88,ENE,61,0.0,0.0,75,0.00,,---,0.00,VWS V13.01,2013-01-26 14:44:00,
2013-01-26 07:45:00,33.7,26.6,29.88,ENE,61,0.0,0.0,75,0.00,,---,0.00,VWS V13.01,2013-01-26 14:45:00,
2013-01-26 07:46:00,33.7,26.6,29.88,ENE,61,0.0,0.0,75,0.00,,---,0.00,VWS V13.01,2013-01-26 14:46:00,
2013-01-26 07:47:00,33.5,26.1,29.88,ENE,61,0.0,0.0,74,0.00,,---,0.00,VWS V13.01,2013-01-26 14:47:00,
2013-01-26 07:48:00,33.7,26.6,29.88,ENE,61,0.0,0.0,75,0.00,,---,0.00,VWS V13.01,2013-01-26 14:48:00,
2013-01-26 07:49:00,33.7,26.6,29.88,ESE,118,0.0,5.0,75,0.00,,---,0.00,VWS V13.01,2013-01-26 14:49:00,
2013-01-26 07:50:00,33.7,26.3,29.88,ESE,118,0.0,5.0,74,0.00,,---,0.00,VWS V13.01,2013-01-26 14:50:00,
2013-01-26 07:51:00,33.7,26.6,29.88,ESE,118,0.0,0.0,75,0.00,,---,0.00,VWS V13.01,2013-01-26 14:51:00,
2013-01-26 07:52:00,33.7,26.6,29.88,ESE,118,0.0,0.0,75,0.00,,---,0.00,VWS V13.01,2013-01-26 14:52:00,
2013-01-26 07:53:00,33.7,26.6,29.88,ESE,118,0.0,0.0,75,0.00,,---,0.00,VWS V13.01,2013-01-26 14:53:00,
2013-01-26 07:54:00,33.7,26.6,29.88,ESE,118,0.0,0.0,75,0.00,,---,0.00,VWS V13.01,2013-01-26 14:54:00,
2013-01-26 07:55:00,33.8,26.7,29.88,ESE,118,0.0,0.0,75,0.00,,---,0.00,VWS V13.01,2013-01-26 14:55:00,
2013-01-26 07:56:00,33.8,26.7,29.88,ESE,118,0.0,1.0,75,0.00,,---,0.00,VWS V13.01,2013-01-26 14:56:00,
2013-01-26 07:57:00,33.8,26.4,29.88,ESE,118,0.0,1.0,74,0.00,,---,0.00,VWS V13.01,2013-01-26 14:57:00,
2013-01-26 07:58:00,33.8,26.4,29.88,ESE,118,0.0,1.0,74,0.00,,---,0.00,VWS V13.01,2013-01-26 14:58:00,
2013-01-26 07:59:00,33.8,26.4,29.87,ESE,118,0.0,1.0,74,0.00,,---,0.00,VWS V13.01,2013-01-26 14:59:00,
2013-01-26 08:00:00,33.8,26.4,29.87,ESE,118,0.0,1.0,74,0.00,,---,0.00,VWS V13.01,2013-01-26 15:00:00,
2013-01-26 08:01:00,33.7,26.3,29.87,ESE,118,0.0,0.0,74,0.00,,---,0.00,VWS V13.01,2013-01-26 15:01:00,
2013-01-26 08:02:00,33.7,26.3,29.87,ESE,118,0.0,0.0,74,0.00,,---,0.00,VWS V13.01,2013-01-26 15:02:00,
2013-01-26 08:03:00,33.7,26.3,29.87,ESE,118,0.0,0.0,74,0.00,,---,0.00,VWS V13.01,2013-01-26 15:03:00,
2013-01-26 08:04:00,33.7,26.3,29.87,ESE,118,0.0,0.0,74,0.00,,---,0.00,VWS V13.01,2013-01-26 15:04:00,
2013-01-26 08:05:00,33.7,26.6,29.87,ESE,118,0.0,0.0,75,0.00,,---,0.00,VWS V13.01,2013-01-26 15:05:00,
2013-01-26 08:06:00,33.7,26.3,29.87,ESE,118,0.0,0.0,74,0.00,,---,0.00,VWS V13.01,2013-01-26 15:06:00,
2013-01-26 08:07:00,33.7,26.3,29.87,ESE,118,0.0,1.0,74,0.00,,---,0.00,VWS V13.01,2013-01-26 15:07:00,
2013-01-26 08:08:00,33.7,26.3,29.87,ESE,118,0.0,1.0,74,0.00,,---,0.00,VWS V13.01,2013-01-26 15:08:00,
2013-01-26 08:09:00,33.7,26.3,29.87,ESE,118,0.0,1.0,74,0.00,,---,0.00,VWS V13.01,2013-01-26 15:09:00,
2013-01-26 08:10:00,33.7,26.3,29.87,ESE,118,0.0,1.0,74,0.00,,---,0.00,VWS V13.01,2013-01-26 15:10:00,
2013-01-26 08:11:00,33.7,26.3,29.87,ESE,118,0.0,0.0,74,0.00,,---,0.00,VWS V13.01,2013-01-26 15:11:00,
2013-01-26 08:12:00,33.7,26.3,29.87,ESE,118,0.0,0.0,74,0.00,,---,0.00,VWS V13.01,2013-01-26 15:12:00,
2013-01-26 08:13:00,33.7,26.0,29.87,ESE,118,0.0,0.0,73,0.00,,---,0.00,VWS V13.01,2013-01-26 15:13:00,
2013-01-26 08:14:00,33.7,26.3,29.87,ESE,118,0.0,0.0,74,0.00,,---,0.00,VWS V13.01,2013-01-26 15:14:00,
2013-01-26 08:15:00,33.7,26.3,29.87,ESE,118,0.0,0.0,74,0.00,,---,0.00,VWS V13.01,2013-01-26 15:15:00,
2013-01-26 08:16:00,33.7,26.3,29.87,ESE,118,0.0,0.0,74,0.00,,---,0.00,VWS V13.01,2013-01-26 15:16:00,
2013-01-26 08:17:00,33.7,26.3,29.87,ESE,118,0.0,0.0,74,0.00,,---,0.00,VWS V13.01,2013-01-26 15:17:00,
2013-01-26 08:18:00,33.7,26.3,29.87,ESE,118,0.0,0.0,74,0.00,,---,0.00,VWS V13.01,2013-01-26 15:18:00,
2013-01-26 08:19:00,33.7,26.3,29.87,ESE,118,0.0,0.0,74,0.00,,---,0.00,VWS V13.01,2013-01-26 15:19:00,
2013-01-26 08:20:00,33.7,26.3,29.87,ESE,118,0.0,0.0,74,0.00,,---,0.00,VWS V13.01,2013-01-26 15:20:00,
2013-01-26 08:21:00,33.7,26.3,29.87,ESE,118,0.0,0.0,74,0.00,,---,0.00,VWS V13.01,2013-01-26 15:21:00,
2013-01-26 08:22:00,33.8,26.4,29.87,ESE,118,0.0,0.0,74,0.00,,---,0.00,VWS V13.01,2013-01-26 15:22:00,
2013-01-26 08:23:00,33.8,26.4,29.87,ESE,118,0.0,0.0,74,0.00,,---,0.00,VWS V13.01,2013-01-26 15:23:00,
2013-01-26 08:24:00,33.8,26.7,29.87,ESE,118,0.0,0.0,75,0.00,,---,0.00,VWS V13.01,2013-01-26 15:24:00,
2013-01-26 08:25:00,33.8,26.7,29.87,ESE,118,0.0,0.0,75,0.00,,---,0.00,VWS V13.01,2013-01-26 15:25:00,
2013-01-26 08:26:00,33.8,26.7,29.87,ESE,118,0.0,0.0,75,0.00,,---,0.00,VWS V13.01,2013-01-26 15:26:00,
2013-01-26 08:27:00,33.8,26.7,29.87,ESE,118,0.0,0.0,75,0.00,,---,0.00,VWS V13.01,2013-01-26 15:27:00,
2013-01-26 08:28:00,33.8,26.7,29.87,ESE,118,0.0,0.0,75,0.00,,---,0.00,VWS V13.01,2013-01-26 15:28:00,
2013-01-26 08:29:00,33.8,26.7,29.87,ESE,118,0.0,0.0,75,0.00,,---,0.00,VWS V13.01,2013-01-26 15:29:00,
2013-01-26 08:30:00,33.8,26.7,29.87,ESE,118,0.0,0.0,75,0.00,,---,0.00,VWS V13.01,2013-01-26 15:30:00,
2013-01-26 08:31:00,33.8,26.7,29.87,ESE,118,0.0,0.0,75,0.00,,---,0.00,VWS V13.01,2013-01-26 15:31:00,
2013-01-26 08:32:00,33.8,26.4,29.87,ESE,118,0.0,0.0,74,0.00,,---,0.00,VWS V13.01,2013-01-26 15:32:00,
2013-01-26 08:33:00,33.8,26.7,29.87,ESE,118,0.0,0.0,75,0.00,,---,0.00,VWS V13.01,2013-01-26 15:33:00,
2013-01-26 08:34:00,33.8,26.4,29.87,ESE,118,0.0,0.0,74,0.00,,---,0.00,VWS V13.01,2013-01-26 15:34:00,
2013-01-26 08:35:00,33.8,26.4,29.87,ESE,118,0.0,0.0,74,0.00,,---,0.00,VWS V13.01,2013-01-26 15:35:00,
2013-01-26 08:36:00,33.8,26.4,29.87,ESE,118,0.0,0.0,74,0.00,,---,0.00,VWS V13.01,2013-01-26 15:36:00,
2013-01-26 08:37:00,33.8,26.4,29.87,ESE,118,0.0,0.0,74,0.00,,---,0.00,VWS V13.01,2013-01-26 15:37:00,
2013-01-26 08:38:00,33.8,26.4,29.87,ESE,118,0.0,0.0,74,0.00,,---,0.00,VWS V13.01,2013-01-26 15:38:00,
2013-01-26 08:39:00,33.8,26.4,29.87,ESE,118,0.0,0.0,74,0.00,,---,0.00,VWS V13.01,2013-01-26 15:39:00,
2013-01-26 08:40:00,34.0,26.6,29.87,ESE,118,0.0,0.0,74,0.00,,---,0.00,VWS V13.01,2013-01-26 15:40:00,
2013-01-26 08:41:00,34.0,26.6,29.87,ESE,118,0.0,0.0,74,0.00,,---,0.00,VWS V13.01,2013-01-26 15:41:00,
2013-01-26 08:42:00,34.0,26.6,29.87,ESE,118,0.0,0.0,74,0.00,,---,0.00,VWS V13.01,2013-01-26 15:42:00,
2013-01-26 08:43:00,34.0,26.9,29.87,ESE,118,0.0,0.0,75,0.00,,---,0.00,VWS V13.01,2013-01-26 15:43:00,
2013-01-26 08:44:00,34.0,26.6,29.87,ESE,118,0.0,0.0,74,0.00,,---,0.00,VWS V13.01,2013-01-26 15:44:00,
2013-01-26 08:45:00,34.0,26.9,29.87,ESE,118,0.0,0.0,75,0.00,,---,0.00,VWS V13.01,2013-01-26 15:45:00,
2013-01-26 08:46:00,34.0,26.9,29.87,ESE,118,0.0,0.0,75,0.00,,---,0.00,VWS V13.01,2013-01-26 15:46:00,
2013-01-26 08:47:00,34.0,26.6,29.87,ESE,118,0.0,0.0,74,0.00,,---,0.00,VWS V13.01,2013-01-26 15:47:00,
2013-01-26 08:48:00,34.0,26.9,29.87,ESE,118,0.0,0.0,75,0.00,,---,0.00,VWS V13.01,2013-01-26 15:48:00,
2013-01-26 08:49:00,34.0,26.6,29.87,ESE,118,0.0,0.0,74,0.00,,---,0.00,VWS V13.01,2013-01-26 15:49:00,
2013-01-26 08:50:00,34.0,26.6,29.87,ESE,118,0.0,0.0,74,0.00,,---,0.00,VWS V13.01,2013-01-26 15:50:00,
2013-01-26 08:51:00,34.0,26.6,29.87,ESE,118,0.0,0.0,74,0.00,,---,0.00,VWS V13.01,2013-01-26 15:51:00,
2013-01-26 08:52:00,34.0,26.6,29.87,ESE,118,0.0,0.0,74,0.00,,---,0.00,VWS V13.01,2013-01-26 15:52:00,
2013-01-26 08:53:00,34.0,26.6,29.87,ESE,118,0.0,0.0,74,0.00,,---,0.00,VWS V13.01,2013-01-26 15:53:00,
2013-01-26 08:54:00,34.0,26.3,29.87,ESE,118,0.0,0.0,73,0.00,,---,0.00,VWS V13.01,2013-01-26 15:54:00,
2013-01-26 08:55:00,34.0,26.6,29.87,ESE,118,0.0,0.0,74,0.00,,---,0.00,VWS V13.01,2013-01-26 15:55:00,
2013-01-26 08:56:00,34.1,26.7,29.87,ESE,118,0.0,0.0,74,0.00,,---,0.00,VWS V13.01,2013-01-26 15:56:00,
2013-01-26 08:57:00,34.1,26.7,29.87,ESE,118,0.0,0.0,74,0.00,,---,0.00,VWS V13.01,2013-01-26 15:57:00,
2013-01-26 08:58:00,34.1,26.7,29.87,ESE,118,0.0,0.0,74,0.00,,---,0.00,VWS V13.01,2013-01-26 15:58:00,
2013-01-26 08:59:00,34.1,26.7,29.86,ESE,118,0.0,0.0,74,0.00,,---,0.00,VWS V13.01,2013-01-26 15:59:00,
2013-01-26 09:00:00,34.1,26.7,29.86,ESE,118,0.0,0.0,74,0.00,,---,0.00,VWS V13.01,2013-01-26 16:00:00,
2013-01-26 09:01:00,34.1,26.7,29.86,ESE,118,0.0,0.0,74,0.00,,---,0.00,VWS V13.01,2013-01-26 16:01:00,
2013-01-26 09:02:00,34.1,26.7,29.86,NW,317,1.0,1.0,74,0.00,,---,0.00,VWS V13.01,2013-01-26 16:02:00,
2013-01-26 09:03:00,34.3,26.6,29.86,NW,325,0.0,1.0,73,0.00,,---,0.00,VWS V13.01,2013-01-26 16:03:00,
2013-01-26 09:04:00,34.3,26.9,29.86,NW,325,0.0,1.0,74,0.00,,---,0.00,VWS V13.01,2013-01-26 16:04:00,
2013-01-26 09:05:00,34.3,26.6,29.86,NW,325,0.0,1.0,73,0.00,,---,0.00,VWS V13.01,2013-01-26 16:05:00,
2013-01-26 09:06:00,34.3,26.6,29.86,NW,325,0.0,0.0,73,0.00,,---,0.00,VWS V13.01,2013-01-26 16:06:00,
2013-01-26 09:07:00,34.3,26.6,29.86,NNW,336,0.0,1.0,73,0.00,,---,0.00,VWS V13.01,2013-01-26 16:07:00,
2013-01-26 09:08:00,34.4,26.3,29.86,NNW,336,0.0,1.0,72,0.00,,---,0.00,VWS V13.01,2013-01-26 16:08:00,
2013-01-26 09:09:00,34.4,26.7,29.86,NNW,336,0.0,1.0,73,0.00,,---,0.00,VWS V13.01,2013-01-26 16:09:00,
2013-01-26 09:10:00,34.4,26.3,29.86,NNW,336,0.0,1.0,72,0.00,,---,0.00,VWS V13.01,2013-01-26 16:10:00,
2013-01-26 09:11:00,34.6,26.9,29.86,NNW,336,0.0,0.0,73,0.00,,---,0.00,VWS V13.01,2013-01-26 16:11:00,
2013-01-26 09:12:00,34.6,26.5,29.86,North,355,0.0,2.0,72,0.00,,---,0.00,VWS V13.01,2013-01-26 16:12:00,
2013-01-26 09:13:00,34.7,26.6,29.86,North,355,0.0,2.0,72,0.00,,---,0.00,VWS V13.01,2013-01-26 16:13:00,
2013-01-26 09:14:00,34.7,26.6,29.86,North,355,0.0,2.0,72,0.00,,---,0.00,VWS V13.01,2013-01-26 16:14:00,
2013-01-26 09:15:00,34.7,27.0,29.86,North,355,0.0,2.0,73,0.00,,---,0.00,VWS V13.01,2013-01-26 16:15:00,
2013-01-26 09:16:00,34.9,26.5,29.86,North,355,0.0,0.0,71,0.00,,---,0.00,VWS V13.01,2013-01-26 16:16:00,
2013-01-26 09:17:00,34.9,26.8,29.86,North,355,0.0,0.0,72,0.00,,---,0.00,VWS V13.01,2013-01-26 16:17:00,
2013-01-26 09:18:00,34.9,26.8,29.86,North,355,0.0,0.0,72,0.00,,---,0.00,VWS V13.01,2013-01-26 16:18:00,
2013-01-26 09:19:00,35.0,26.9,29.86,North,355,0.0,0.0,72,0.00,,---,0.00,VWS V13.01,2013-01-26 16:19:00,
2013-01-26 09:20:00,35.0,26.9,29.86,North,5,2.0,2.0,72,0.00,,---,0.00,VWS V13.01,2013-01-26 16:20:00,
2013-01-26 09:21:00,35.0,26.6,29.86,North,5,0.0,2.0,71,0.00,,---,0.00,VWS V13.01,2013-01-26 16:21:00,
2013-01-26 09:22:00,35.0,26.6,29.86,North,5,0.0,2.0,71,0.00,,---,0.00,VWS V13.01,2013-01-26 16:22:00,
2013-01-26 09:23:00,35.2,26.8,29.86,North,5,0.0,2.0,71,0.00,,---,0.00,VWS V13.01,2013-01-26 16:23:00,
2013-01-26 09:24:00,35.2,26.4,29.86,North,5,0.0,2.0,70,0.00,,---,0.00,VWS V13.01,2013-01-26 16:24:00,
2013-01-26 09:25:00,35.2,26.8,29.86,North,5,0.0,2.0,71,0.00,,---,0.00,VWS V13.01,2013-01-26 16:25:00,
2013-01-26 09:26:00,35.3,26.9,29.86,North,5,0.0,0.0,71,0.00,,---,0.00,VWS V13.01,2013-01-26 16:26:00,
2013-01-26 09:27:00,35.3,26.9,29.86,NE,41,1.0,1.0,71,0.00,,---,0.00,VWS V13.01,2013-01-26 16:27:00,
2013-01-26 09:28:00,35.3,26.5,29.86,NE,45,0.0,3.0,70,0.00,,---,0.00,VWS V13.01,2013-01-26 16:28:00,
2013-01-26 09:29:00,35.3,26.2,29.86,NE,45,0.0,3.0,69,0.00,,---,0.00,VWS V13.01,2013-01-26 16:29:00,
2013-01-26 09:30:00,35.5,27.0,29.85,NE,45,0.0,3.0,71,0.00,,---,0.00,VWS V13.01,2013-01-26 16:30:00,
2013-01-26 09:31:00,35.5,27.0,29.85,NE,45,0.0,0.0,71,0.00,,---,0.00,VWS V13.01,2013-01-26 16:31:00,
2013-01-26 09:32:00,35.5,26.7,29.85,NE,46,0.0,0.0,70,0.00,,---,0.00,VWS V13.01,2013-01-26 16:32:00,
2013-01-26 09:33:00,35.5,26.7,29.85,NE,46,0.0,0.0,70,0.00,,---,0.00,VWS V13.01,2013-01-26 16:33:00,
2013-01-26 09:34:00,35.6,27.5,29.85,NE,46,0.0,0.0,72,0.00,,---,0.00,VWS V13.01,2013-01-26 16:34:00,
2013-01-26 09:35:00,35.6,27.1,29.85,NE,46,0.0,0.0,71,0.00,,---,0.00,VWS V13.01,2013-01-26 16:35:00,
2013-01-26 09:36:00,35.6,26.8,29.85,NE,45,0.0,2.0,70,0.00,,---,0.00,VWS V13.01,2013-01-26 16:36:00,
2013-01-26 09:37:00,35.6,27.1,29.85,NE,44,0.0,2.0,71,0.00,,---,0.00,VWS V13.01,2013-01-26 16:37:00,
2013-01-26 09:38:00,35.8,27.0,29.85,NE,45,0.0,2.0,70,0.00,,---,0.00,VWS V13.01,2013-01-26 16:38:00,
2013-01-26 09:39:00,35.8,27.0,29.85,ENE,65,0.0,2.0,70,0.00,,---,0.00,VWS V13.01,2013-01-26 16:39:00,
2013-01-26 09:40:00,35.8,26.6,29.85,ENE,65,0.0,2.0,69,0.00,,---,0.00,VWS V13.01,2013-01-26 16:40:00,
2013-01-26 09:41:00,35.8,26.3,29.85,NNW,328,0.0,5.0,68,0.00,,---,0.00,VWS V13.01,2013-01-26 16:41:00,
2013-01-26 09:42:00,35.9,26.0,29.85,NE,51,0.0,5.0,67,0.00,,---,0.00,VWS V13.01,2013-01-26 16:42:00,
2013-01-26 09:43:00,35.9,26.0,29.85,NNE,28,1.0,5.0,67,0.00,,---,0.00,VWS V13.01,2013-01-26 16:43:00,
2013-01-26 09:44:00,35.9,26.0,29.85,ENE,59,2.0,5.0,67,0.00,,---,0.00,VWS V13.01,2013-01-26 16:44:00,
2013-01-26 09:45:00,35.9,26.0,29.85,ENE,63,0.0,5.0,67,0.00,,---,0.00,VWS V13.01,2013-01-26 16:45:00,
2013-01-26 09:46:00,36.0,26.1,29.85,ENE,63,2.0,2.0,67,0.00,,---,0.00,VWS V13.01,2013-01-26 16:46:00,
2013-01-26 09:47:00,36.0,26.5,29.85,ENE,63,0.0,2.0,68,0.00,,---,0.00,VWS V13.01,2013-01-26 16:47:00,
2013-01-26 09:48:00,36.0,26.5,29.85,ENE,63,0.0,2.0,68,0.00,,---,0.00,VWS V13.01,2013-01-26 16:48:00,
2013-01-26 09:49:00,36.2,26.7,29.85,ENE,63,0.0,2.0,68,0.00,,---,0.00,VWS V13.01,2013-01-26 16:49:00,
2013-01-26 09:50:00,36.2,26.7,29.85,ENE,63,0.0,2.0,68,0.00,,---,0.00,VWS V13.01,2013-01-26 16:50:00,
2013-01-26 09:51:00,36.2,26.7,29.85,East,88,3.0,3.0,68,0.00,,---,0.00,VWS V13.01,2013-01-26 16:51:00,
2013-01-26 09:52:00,36.2,26.3,29.85,East,88,0.0,3.0,67,0.00,,---,0.00,VWS V13.01,2013-01-26 16:52:00,
2013-01-26 09:53:00,36.3,26.8,29.85,East,88,0.0,3.0,68,0.00,,---,0.00,VWS V13.01,2013-01-26 16:53:00,
2013-01-26 09:54:00,36.3,26.8,29.85,East,88,0.0,3.0,68,0.00,,---,0.00,VWS V13.01,2013-01-26 16:54:00,
2013-01-26 09:55:00,36.3,27.1,29.85,East,88,1.0,3.0,69,0.00,,---,0.00,VWS V13.01,2013-01-26 16:55:00,
2013-01-26 09:56:00,36.5,26.6,29.85,NNE,28,0.0,2.0,67,0.00,,---,0.00,VWS V13.01,2013-01-26 16:56:00,
2013-01-26 09:57:00,36.5,27.0,29.85,ENE,71,0.0,2.0,68,0.00,,---,0.00,VWS V13.01,2013-01-26 16:57:00,
2013-01-26 09:58:00,36.5,26.6,29.85,ENE,71,0.0,2.0,67,0.00,,---,0.00,VWS V13.01,2013-01-26 16:58:00,
2013-01-26 09:59:00,36.5,26.6,29.84,ENE,70,1.0,2.0,67,0.00,,---,0.00,VWS V13.01,2013-01-26 16:59:00,
2013-01-26 10:00:00,36.5,26.6,29.84,NE,55,3.0,5.0,67,0.00,,---,0.00,VWS V13.01,2013-01-26 17:00:00,
2013-01-26 10:01:00,36.6,26.3,29.84,ENE,62,1.0,3.0,66,0.00,,---,0.00,VWS V13.01,2013-01-26 17:01:00,
2013-01-26 10:02:00,36.6,26.7,29.84,ENE,62,0.0,3.0,67,0.00,,---,0.00,VWS V13.01,2013-01-26 17:02:00,
2013-01-26 10:03:00,36.6,27.0,29.84,NE,34,1.0,3.0,68,0.00,,---,0.00,VWS V13.01,2013-01-26 17:03:00,
2013-01-26 10:04:00,36.8,26.5,29.84,NE,34,0.0,3.0,66,0.00,,---,0.00,VWS V13.01,2013-01-26 17:04:00,
2013-01-26 10:05:00,36.8,26.9,29.84,NE,35,0.0,3.0,67,0.00,,---,0.00,VWS V13.01,2013-01-26 17:05:00,
2013-01-26 10:06:00,36.8,26.1,29.84,NNE,32,0.0,3.0,65,0.00,,---,0.00,VWS V13.01,2013-01-26 17:06:00,
2013-01-26 10:07:00,36.9,26.6,29.84,NNE,32,0.0,3.0,66,0.00,,---,0.00,VWS V13.01,2013-01-26 17:07:00,
2013-01-26 10:08:00,36.9,27.3,29.84,NNE,32,0.0,3.0,68,0.00,,---,0.00,VWS V13.01,2013-01-26 17:08:00,
2013-01-26 10:09:00,36.9,27.3,29.84,NW,322,3.0,4.0,68,0.00,,---,0.00,VWS V13.01,2013-01-26 17:09:00,
2013-01-26 10:10:00,36.9,25.9,29.84,NNW,328,0.0,4.0,64,0.00,,---,0.00,VWS V13.01,2013-01-26 17:10:00,
2013-01-26 10:11:00,37.0,26.0,29.84,ENE,61,0.0,2.0,64,0.00,,---,0.00,VWS V13.01,2013-01-26 17:11:00,
2013-01-26 10:12:00,37.0,27.1,29.84,ENE,61,0.0,2.0,67,0.00,,---,0.00,VWS V13.01,2013-01-26 17:12:00,
2013-01-26 10:13:00,37.2,27.3,29.84,NE,43,3.0,3.0,67,0.00,,---,0.00,VWS V13.01,2013-01-26 17:13:00,
2013-01-26 10:14:00,37.2,26.9,29.83,NE,43,0.0,3.0,66,0.00,,---,0.00,VWS V13.01,2013-01-26 17:14:00,
2013-01-26 10:15:00,37.3,27.0,29.83,NE,43,0.0,3.0,66,0.00,,---,0.00,VWS V13.01,2013-01-26 17:15:00,
2013-01-26 10:16:00,37.3,26.3,29.83,NE,43,0.0,1.0,64,0.00,,---,0.00,VWS V13.01,2013-01-26 17:16:00,
2013-01-26 10:17:00,37.5,26.5,29.83,NE,55,3.0,4.0,64,0.00,,---,0.00,VWS V13.01,2013-01-26 17:17:00,
2013-01-26 10:18:00,37.5,26.5,29.83,ENE,57,0.0,4.0,64,0.00,,---,0.00,VWS V13.01,2013-01-26 17:18:00,
2013-01-26 10:19:00,37.6,26.9,29.83,ENE,57,0.0,4.0,65,0.00,,---,0.00,VWS V13.01,2013-01-26 17:19:00,
2013-01-26 10:20:00,37.6,26.9,29.83,ENE,57,0.0,4.0,65,0.00,,---,0.00,VWS V13.01,2013-01-26 17:20:00,
2013-01-26 10:21:00,37.8,27.1,29.83,ENE,57,0.0,0.0,65,0.00,,---,0.00,VWS V13.01,2013-01-26 17:21:00,
2013-01-26 10:22:00,37.8,27.1,29.83,ENE,61,1.0,1.0,65,0.00,,---,0.00,VWS V13.01,2013-01-26 17:22:00,
2013-01-26 10:23:00,37.8,27.1,29.83,ENE,61,0.0,1.0,65,0.00,,---,0.00,VWS V13.01,2013-01-26 17:23:00,
2013-01-26 10:24:00,37.8,27.5,29.83,ENE,61,0.0,1.0,66,0.00,,---,0.00,VWS V13.01,2013-01-26 17:24:00,
2013-01-26 10:25:00,37.8,27.5,29.83,ENE,61,0.0,1.0,66,0.00,,---,0.00,VWS V13.01,2013-01-26 17:25:00,
2013-01-26 10:26:00,37.9,27.6,29.83,ENE,61,0.0,0.0,66,0.00,,---,0.00,VWS V13.01,2013-01-26 17:26:00,
2013-01-26 10:27:00,37.9,27.6,29.83,ENE,61,0.0,1.0,66,0.00,,---,0.00,VWS V13.01,2013-01-26 17:27:00,
2013-01-26 10:28:00,37.9,27.2,29.83,ENE,61,0.0,1.0,65,0.00,,---,0.00,VWS V13.01,2013-01-26 17:28:00,
2013-01-26 10:29:00,37.9,27.2,29.83,ENE,61,0.0,1.0,65,0.00,,---,0.00,VWS V13.01,2013-01-26 17:29:00,
2013-01-26 10:30:00,37.9,27.6,29.83,ENE,61,0.0,1.0,66,0.00,,---,0.00,VWS V13.01,2013-01-26 17:30:00,
2013-01-26 10:31:00,37.9,27.2,29.83,ENE,61,0.0,0.0,65,0.00,,---,0.00,VWS V13.01,2013-01-26 17:31:00,
2013-01-26 10:32:00,37.9,27.2,29.83,ENE,61,0.0,0.0,65,0.00,,---,0.00,VWS V13.01,2013-01-26 17:32:00,
2013-01-26 10:33:00,37.9,27.2,29.83,ENE,61,0.0,0.0,65,0.00,,---,0.00,VWS V13.01,2013-01-26 17:33:00,
2013-01-26 10:34:00,37.9,27.6,29.83,ENE,61,0.0,0.0,66,0.00,,---,0.00,VWS V13.01,2013-01-26 17:34:00,
2013-01-26 10:35:00,37.9,27.6,29.83,ENE,61,0.0,0.0,66,0.00,,---,0.00,VWS V13.01,2013-01-26 17:35:00,
2013-01-26 10:36:00,37.9,27.6,29.83,ENE,61,1.0,2.0,66,0.00,,---,0.00,VWS V13.01,2013-01-26 17:36:00,
2013-01-26 10:37:00,37.9,27.2,29.83,ENE,61,0.0,2.0,65,0.00,,---,0.00,VWS V13.01,2013-01-26 17:37:00,
2013-01-26 10:38:00,37.9,27.6,29.83,ENE,61,0.0,2.0,66,0.00,,---,0.00,VWS V13.01,2013-01-26 17:38:00,
2013-01-26 10:39:00,38.0,27.3,29.83,ENE,61,0.0,2.0,65,0.00,,---,0.00,VWS V13.01,2013-01-26 17:39:00,
2013-01-26 10:40:00,38.0,27.7,29.83,ENE,61,0.0,2.0,66,0.00,,---,0.00,VWS V13.01,2013-01-26 17:40:00,
2013-01-26 10:41:00,38.2,27.5,29.83,ENE,61,0.0,0.0,65,0.00,,---,0.00,VWS V13.01,2013-01-26 17:41:00,
2013-01-26 10:42:00,38.2,27.5,29.83,ENE,61,0.0,0.0,65,0.00,,---,0.00,VWS V13.01,2013-01-26 17:42:00,
2013-01-26 10:43:00,38.2,27.1,29.83,ENE,61,0.0,1.0,64,0.00,,---,0.00,VWS V13.01,2013-01-26 17:43:00,
2013-01-26 10:44:00,38.3,26.4,29.83,NW,321,0.0,3.0,62,0.00,,---,0.00,VWS V13.01,2013-01-26 17:44:00,
2013-01-26 10:45:00,38.5,26.2,29.83,NW,321,0.0,3.0,61,0.00,,---,0.00,VWS V13.01,2013-01-26 17:45:00,
2013-01-26 10:46:00,38.6,27.1,29.83,NW,321,0.0,0.0,63,0.00,,---,0.00,VWS V13.01,2013-01-26 17:46:00,
2013-01-26 10:47:00,38.6,27.5,29.83,NW,321,0.0,0.0,64,0.00,,---,0.00,VWS V13.01,2013-01-26 17:47:00,
2013-01-26 10:48:00,38.8,27.3,29.83,NW,321,0.0,0.0,63,0.00,,---,0.00,VWS V13.01,2013-01-26 17:48:00,
2013-01-26 10:49:00,38.9,27.4,29.83,NW,321,0.0,0.0,63,0.00,,---,0.00,VWS V13.01,2013-01-26 17:49:00,
2013-01-26 10:50:00,38.9,27.8,29.83,NW,321,0.0,0.0,64,0.00,,---,0.00,VWS V13.01,2013-01-26 17:50:00,
2013-01-26 10:51:00,39.1,28.3,29.83,NNW,334,1.0,1.0,65,0.00,,---,0.00,VWS V13.01,2013-01-26 17:51:00,
2013-01-26 10:52:00,39.1,28.0,29.83,NNW,334,0.0,1.0,64,0.00,,---,0.00,VWS V13.01,2013-01-26 17:52:00,
2013-01-26 10:53:00,39.1,28.0,29.83,NNW,334,0.0,1.0,64,0.00,,---,0.00,VWS V13.01,2013-01-26 17:53:00,
2013-01-26 10:54:00,39.1,28.0,29.83,ENE,69,0.0,1.0,64,0.00,,---,0.00,VWS V13.01,2013-01-26 17:54:00,
2013-01-26 10:55:00,39.1,28.0,29.83,ENE,69,0.0,1.0,64,0.00,,---,0.00,VWS V13.01,2013-01-26 17:55:00,
2013-01-26 10:56:00,39.1,28.0,29.83,ENE,69,0.0,0.0,64,0.00,,---,0.00,VWS V13.01,2013-01-26 17:56:00,
2013-01-26 10:57:00,39.1,28.0,29.83,ENE,69,0.0,0.0,64,0.00,,---,0.00,VWS V13.01,2013-01-26 17:57:00,
2013-01-26 10:58:00,39.2,28.1,29.83,ENE,69,0.0,0.0,64,0.00,,---,0.00,VWS V13.01,2013-01-26 17:58:00,
2013-01-26 10:59:00,39.2,28.1,29.83,ENE,69,0.0,0.0,64,0.00,,---,0.00,VWS V13.01,2013-01-26 17:59:00,
2013-01-26 11:00:00,39.2,28.1,29.82,NNE,22,2.0,2.0,64,0.00,,---,0.00,VWS V13.01,2013-01-26 18:00:00,
2013-01-26 11:01:00,39.2,28.1,29.82,NE,39,0.0,2.0,64,0.00,,---,0.00,VWS V13.01,2013-01-26 18:01:00,
2013-01-26 11:02:00,39.3,27.0,29.82,West,262,0.0,3.0,61,0.00,,---,0.00,VWS V13.01,2013-01-26 18:02:00,
2013-01-26 11:03:00,39.3,27.0,29.82,North,9,0.0,3.0,61,0.00,,---,0.00,VWS V13.01,2013-01-26 18:03:00,
2013-01-26 11:04:00,39.3,26.6,29.82,NNW,340,0.0,3.0,60,0.00,,---,0.00,VWS V13.01,2013-01-26 18:04:00,
2013-01-26 11:05:00,39.5,27.6,29.82,NNW,340,0.0,3.0,62,0.00,,---,0.00,VWS V13.01,2013-01-26 18:05:00,
2013-01-26 11:06:00,39.6,27.7,29.82,NNW,340,0.0,0.0,62,0.00,,---,0.00,VWS V13.01,2013-01-26 18:06:00,
2013-01-26 11:07:00,39.6,27.7,29.82,NNW,346,0.0,0.0,62,0.00,,---,0.00,VWS V13.01,2013-01-26 18:07:00,
2013-01-26 11:08:00,39.8,27.9,29.82,NNW,346,0.0,0.0,62,0.00,,---,0.00,VWS V13.01,2013-01-26 18:08:00,
2013-01-26 11:09:00,39.8,27.5,29.82,NNW,346,0.0,0.0,61,0.00,,---,0.00,VWS V13.01,2013-01-26 18:09:00,
2013-01-26 11:10:00,39.8,28.2,29.82,NNW,346,0.0,0.0,63,0.00,,---,0.00,VWS V13.01,2013-01-26 18:10:00,
2013-01-26 11:11:00,39.8,28.2,29.82,NNW,346,0.0,0.0,63,0.00,,---,0.00,VWS V13.01,2013-01-26 18:11:00,
2013-01-26 11:12:00,39.8,27.9,29.82,NNW,346,0.0,0.0,62,0.00,,---,0.00,VWS V13.01,2013-01-26 18:12:00,
2013-01-26 11:13:00,39.8,28.2,29.82,NNW,346,0.0,0.0,63,0.00,,---,0.00,VWS V13.01,2013-01-26 18:13:00,
2013-01-26 11:14:00,39.8,28.6,29.81,NNW,346,0.0,0.0,64,0.00,,---,0.00,VWS V13.01,2013-01-26 18:14:00,
2013-01-26 11:15:00,39.8,28.6,29.81,NNW,346,0.0,0.0,64,0.00,,---,0.00,VWS V13.01,2013-01-26 18:15:00,
2013-01-26 11:16:00,39.8,28.6,29.81,NNW,346,0.0,0.0,64,0.00,,---,0.00,VWS V13.01,2013-01-26 18:16:00,
2013-01-26 11:17:00,39.8,28.2,29.81,NNW,346,0.0,0.0,63,0.00,,---,0.00,VWS V13.01,2013-01-26 18:17:00,
2013-01-26 11:18:00,39.9,28.3,29.81,NNW,346,0.0,0.0,63,0.00,,---,0.00,VWS V13.01,2013-01-26 18:18:00,
2013-01-26 11:19:00,39.9,28.7,29.81,NNW,346,0.0,0.0,64,0.00,,---,0.00,VWS V13.01,2013-01-26 18:19:00,
2013-01-26 11:20:00,39.8,28.6,29.81,NNW,346,0.0,0.0,64,0.00,,---,0.00,VWS V13.01,2013-01-26 18:20:00,
2013-01-26 11:21:00,39.8,28.6,29.81,NNW,346,0.0,0.0,64,0.00,,---,0.00,VWS V13.01,2013-01-26 18:21:00,
2013-01-26 11:22:00,39.8,28.6,29.81,NNW,346,0.0,0.0,64,0.00,,---,0.00,VWS V13.01,2013-01-26 18:22:00,
2013-01-26 11:23:00,39.8,28.2,29.81,NNW,346,0.0,0.0,63,0.00,,---,0.00,VWS V13.01,2013-01-26 18:23:00,
2013-01-26 11:24:00,39.8,28.6,29.81,NNW,346,0.0,0.0,64,0.00,,---,0.00,VWS V13.01,2013-01-26 18:24:00,
2013-01-26 11:25:00,39.9,28.0,29.81,North,5,0.0,0.0,62,0.00,,---,0.00,VWS V13.01,2013-01-26 18:25:00,
2013-01-26 11:26:00,39.9,28.7,29.81,North,5,0.0,0.0,64,0.00,,---,0.00,VWS V13.01,2013-01-26 18:26:00,
2013-01-26 11:27:00,39.9,28.7,29.81,North,5,0.0,0.0,64,0.00,,---,0.00,VWS V13.01,2013-01-26 18:27:00,
2013-01-26 11:28:00,39.9,27.2,29.81,North,5,0.0,0.0,60,0.00,,---,0.00,VWS V13.01,2013-01-26 18:28:00,
2013-01-26 11:29:00,39.9,28.3,29.80,North,5,0.0,0.0,63,0.00,,---,0.00,VWS V13.01,2013-01-26 18:29:00,
2013-01-26 11:30:00,39.9,28.3,29.80,North,5,0.0,0.0,63,0.00,,---,0.00,VWS V13.01,2013-01-26 18:30:00,
2013-01-26 11:31:00,40.1,28.1,29.80,North,5,0.0,0.0,62,0.00,,---,0.00,VWS V13.01,2013-01-26 18:31:00,
2013-01-26 11:32:00,40.1,28.9,29.80,North,5,0.0,0.0,64,0.00,,---,0.00,VWS V13.01,2013-01-26 18:32:00,
2013-01-26 11:33:00,40.1,28.9,29.80,North,5,0.0,0.0,64,0.00,,---,0.00,VWS V13.01,2013-01-26 18:33:00,
2013-01-26 11:34:00,39.9,28.3,29.80,North,5,0.0,0.0,63,0.00,,---,0.00,VWS V13.01,2013-01-26 18:34:00,
2013-01-26 11:35:00,40.1,28.1,29.80,North,5,0.0,0.0,62,0.00,,---,0.00,VWS V13.01,2013-01-26 18:35:00,
2013-01-26 11:36:00,40.2,27.0,29.80,North,5,0.0,0.0,59,0.00,,---,0.00,VWS V13.01,2013-01-26 18:36:00,
2013-01-26 11:37:00,40.2,27.8,29.80,North,5,0.0,0.0,61,0.00,,---,0.00,VWS V13.01,2013-01-26 18:37:00,
2013-01-26 11:38:00,40.3,28.3,29.80,North,5,0.0,0.0,62,0.00,,---,0.00,VWS V13.01,2013-01-26 18:38:00,
2013-01-26 11:39:00,40.5,27.7,29.80,North,5,0.0,0.0,60,0.00,,---,0.00,VWS V13.01,2013-01-26 18:39:00,
2013-01-26 11:40:00,40.5,27.7,29.80,North,5,0.0,0.0,60,0.00,,---,0.00,VWS V13.01,2013-01-26 18:40:00,
2013-01-26 11:41:00,40.6,27.4,29.80,North,5,0.0,1.0,59,0.00,,---,0.00,VWS V13.01,2013-01-26 18:41:00,
2013-01-26 11:42:00,40.6,27.8,29.80,North,5,0.0,1.0,60,0.00,,---,0.00,VWS V13.01,2013-01-26 18:42:00,
2013-01-26 11:43:00,40.8,28.8,29.80,North,5,0.0,1.0,62,0.00,,---,0.00,VWS V13.01,2013-01-26 18:43:00,
2013-01-26 11:44:00,40.8,28.4,29.78,North,5,0.0,1.0,61,0.00,,---,0.00,VWS V13.01,2013-01-26 18:44:00,
2013-01-26 11:45:00,40.8,28.4,29.78,North,5,0.0,1.0,61,0.00,,---,0.00,VWS V13.01,2013-01-26 18:45:00,
2013-01-26 11:46:00,40.9,28.1,29.78,North,5,0.0,0.0,60,0.00,,---,0.00,VWS V13.01,2013-01-26 18:46:00,
2013-01-26 11:47:00,40.9,29.3,29.78,North,5,0.0,0.0,63,0.00,,---,0.00,VWS V13.01,2013-01-26 18:47:00,
2013-01-26 11:48:00,40.8,28.8,29.78,North,5,0.0,0.0,62,0.00,,---,0.00,VWS V13.01,2013-01-26 18:48:00,
2013-01-26 11:49:00,40.9,27.7,29.78,ESE,102,0.0,3.0,59,0.00,,---,0.00,VWS V13.01,2013-01-26 18:49:00,
2013-01-26 11:50:00,40.9,27.3,29.78,ESE,102,0.0,3.0,58,0.00,,---,0.00,VWS V13.01,2013-01-26 18:50:00,
2013-01-26 11:51:00,40.9,28.1,29.78,NW,317,2.0,4.0,60,0.00,,---,0.00,VWS V13.01,2013-01-26 18:51:00,
2013-01-26 11:52:00,41.1,26.6,29.78,ENE,59,0.0,4.0,56,0.00,,---,0.00,VWS V13.01,2013-01-26 18:52:00,
2013-01-26 11:53:00,41.2,27.6,29.78,ENE,59,0.0,4.0,58,0.00,,---,0.00,VWS V13.01,2013-01-26 18:53:00,
2013-01-26 11:54:00,41.2,28.0,29.78,ENE,59,0.0,4.0,59,0.00,,---,0.00,VWS V13.01,2013-01-26 18:54:00,
2013-01-26 11:55:00,41.3,28.1,29.78,ENE,59,0.0,4.0,59,0.00,,---,0.00,VWS V13.01,2013-01-26 18:55:00,
2013-01-26 11:56:00,41.3,27.2,29.78,NNE,13,0.0,4.0,57,0.00,,---,0.00,VWS V13.01,2013-01-26 18:56:00,
2013-01-26 11:57:00,41.5,27.0,29.78,ENE,58,0.0,4.0,56,0.00,,---,0.00,VWS V13.01,2013-01-26 18:57:00,
2013-01-26 11:58:00,41.5,27.4,29.78,NE,53,0.0,4.0,57,0.00,,---,0.00,VWS V13.01,2013-01-26 18:58:00,
2013-01-26 11:59:00,41.5,27.8,29.77,NE,53,0.0,4.0,58,0.00,,---,0.00,VWS V13.01,2013-01-26 18:59:00,
2013-01-26 12:00:00,41.6,27.9,29.77,NE,53,0.0,4.0,58,0.00,,---,0.00,VWS V13.01,2013-01-26 19:00:00,
2013-01-26 12:01:00,41.6,27.9,29.77,ENE,59,1.0,2.0,58,0.00,,---,0.00,VWS V13.01,2013-01-26 19:01:00,
2013-01-26 12:02:00,41.6,27.1,29.77,NE,55,0.0,2.0,56,0.00,,---,0.00,VWS V13.01,2013-01-26 19:02:00,
2013-01-26 12:03:00,41.6,27.1,29.77,NE,55,0.0,2.0,56,0.00,,---,0.00,VWS V13.01,2013-01-26 19:03:00,
2013-01-26 12:04:00,41.6,27.1,29.77,NE,55,0.0,2.0,56,0.00,,---,0.00,VWS V13.01,2013-01-26 19:04:00,
2013-01-26 12:05:00,41.6,27.1,29.77,NNE,19,4.0,5.0,56,0.00,,---,0.00,VWS V13.01,2013-01-26 19:05:00,
2013-01-26 12:06:00,41.8,26.8,29.77,WSW,245,0.0,5.0,55,0.00,,---,0.00,VWS V13.01,2013-01-26 19:06:00,
2013-01-26 12:07:00,41.8,27.3,29.77,West,269,0.0,5.0,56,0.00,,---,0.00,VWS V13.01,2013-01-26 19:07:00,
2013-01-26 12:08:00,41.8,27.7,29.77,West,269,0.0,5.0,57,0.00,,---,0.00,VWS V13.01,2013-01-26 19:08:00,
2013-01-26 12:09:00,41.8,28.1,29.77,West,269,0.0,5.0,58,0.00,,---,0.00,VWS V13.01,2013-01-26 19:09:00,
2013-01-26 12:10:00,41.6,28.4,29.77,West,270,0.0,5.0,59,0.00,,---,0.00,VWS V13.01,2013-01-26 19:10:00,
2013-01-26 12:11:00,41.6,27.9,29.77,NNE,12,2.0,5.0,58,0.00,,---,0.00,VWS V13.01,2013-01-26 19:11:00,
2013-01-26 12:12:00,41.6,28.4,29.77,NNE,20,2.0,5.0,59,0.00,,---,0.00,VWS V13.01,2013-01-26 19:12:00,
2013-01-26 12:13:00,41.6,27.1,29.77,North,11,1.0,5.0,56,0.00,,---,0.00,VWS V13.01,2013-01-26 19:13:00,
2013-01-26 12:14:00,41.6,27.1,29.77,North,11,0.0,5.0,56,0.00,,---,0.00,VWS V13.01,2013-01-26 19:14:00,
2013-01-26 12:15:00,41.8,27.3,29.77,North,11,0.0,5.0,56,0.00,,---,0.00,VWS V13.01,2013-01-26 19:15:00,
2013-01-26 12:16:00,41.8,27.3,29.77,East,86,3.0,5.0,56,0.00,,---,0.00,VWS V13.01,2013-01-26 19:16:00,
2013-01-26 12:17:00,41.9,27.4,29.77,NNW,339,0.0,5.0,56,0.00,,---,0.00,VWS V13.01,2013-01-26 19:17:00,
2013-01-26 12:18:00,41.9,27.8,29.77,NNW,347,0.0,5.0,57,0.00,,---,0.00,VWS V13.01,2013-01-26 19:18:00,
2013-01-26 12:19:00,42.1,27.5,29.77,NNW,347,0.0,5.0,56,0.00,,---,0.00,VWS V13.01,2013-01-26 19:19:00,
2013-01-26 12:20:00,42.1,28.0,29.77,NNW,347,0.0,5.0,57,0.00,,---,0.00,VWS V13.01,2013-01-26 19:20:00,
2013-01-26 12:21:00,42.1,28.4,29.77,WNW,284,3.0,5.0,58,0.00,,---,0.00,VWS V13.01,2013-01-26 19:21:00,
2013-01-26 12:22:00,42.2,26.8,29.77,WNW,284,0.0,5.0,54,0.00,,---,0.00,VWS V13.01,2013-01-26 19:22:00,
2013-01-26 12:23:00,42.3,27.3,29.77,WNW,288,0.0,5.0,55,0.00,,---,0.00,VWS V13.01,2013-01-26 19:23:00,
2013-01-26 12:24:00,42.5,27.9,29.77,WNW,288,1.0,5.0,56,0.00,,---,0.00,VWS V13.01,2013-01-26 19:24:00,
2013-01-26 12:25:00,42.5,27.5,29.77,East,88,1.0,5.0,55,0.00,,---,0.00,VWS V13.01,2013-01-26 19:25:00,
2013-01-26 12:26:00,42.6,28.0,29.77,WNW,288,0.0,4.0,56,0.00,,---,0.00,VWS V13.01,2013-01-26 19:26:00,
2013-01-26 12:27:00,42.8,26.9,29.77,East,88,1.0,4.0,53,0.00,,---,0.00,VWS V13.01,2013-01-26 19:27:00,
2013-01-26 12:28:00,42.8,28.2,29.77,East,88,0.0,4.0,56,0.00,,---,0.00,VWS V13.01,2013-01-26 19:28:00,
2013-01-26 12:29:00,42.9,27.9,29.75,NW,310,1.0,4.0,55,0.00,,---,0.00,VWS V13.01,2013-01-26 19:29:00,
2013-01-26 12:30:00,42.9,27.0,29.75,NW,314,0.0,4.0,53,0.00,,---,0.00,VWS V13.01,2013-01-26 19:30:00,
2013-01-26 12:31:00,42.9,27.0,29.75,NW,307,0.0,0.0,53,0.00,,---,0.00,VWS V13.01,2013-01-26 19:31:00,
2013-01-26 12:32:00,43.1,27.1,29.75,NW,315,0.0,1.0,53,0.00,,---,0.00,VWS V13.01,2013-01-26 19:32:00,
2013-01-26 12:33:00,43.1,28.0,29.75,ENE,61,0.0,1.0,55,0.00,,---,0.00,VWS V13.01,2013-01-26 19:33:00,
2013-01-26 12:34:00,43.1,28.0,29.75,ENE,61,0.0,1.0,55,0.00,,---,0.00,VWS V13.01,2013-01-26 19:34:00,
2013-01-26 12:35:00,43.1,28.0,29.75,ENE,61,0.0,1.0,55,0.00,,---,0.00,VWS V13.01,2013-01-26 19:35:00,
2013-01-26 12:36:00,43.1,28.0,29.75,ENE,61,0.0,0.0,55,0.00,,---,0.00,VWS V13.01,2013-01-26 19:36:00,
2013-01-26 12:37:00,43.1,28.5,29.75,ENE,61,0.0,0.0,56,0.00,,---,0.00,VWS V13.01,2013-01-26 19:37:00,
2013-01-26 12:38:00,42.9,27.9,29.75,ENE,61,0.0,0.0,55,0.00,,---,0.00,VWS V13.01,2013-01-26 19:38:00,
2013-01-26 12:39:00,42.9,28.7,29.75,ENE,61,0.0,0.0,57,0.00,,---,0.00,VWS V13.01,2013-01-26 19:39:00,
2013-01-26 12:40:00,42.8,28.6,29.75,ENE,61,0.0,0.0,57,0.00,,---,0.00,VWS V13.01,2013-01-26 19:40:00,
2013-01-26 12:41:00,42.8,29.1,29.75,NE,55,2.0,2.0,58,0.00,,---,0.00,VWS V13.01,2013-01-26 19:41:00,
2013-01-26 12:42:00,42.6,28.9,29.75,East,88,4.0,6.0,58,0.00,,---,0.00,VWS V13.01,2013-01-26 19:42:00,
2013-01-26 12:43:00,42.6,27.6,29.75,ESE,119,0.0,6.0,55,0.00,,---,0.00,VWS V13.01,2013-01-26 19:43:00,
2013-01-26 12:44:00,42.6,28.0,29.75,NW,304,2.0,6.0,56,0.00,,---,0.00,VWS V13.01,2013-01-26 19:44:00,
2013-01-26 12:45:00,42.6,27.1,29.74,NW,305,0.0,6.0,54,0.00,,---,0.00,VWS V13.01,2013-01-26 19:45:00,
2013-01-26 12:46:00,42.5,27.5,29.74,NW,304,0.0,0.0,55,0.00,,---,0.00,VWS V13.01,2013-01-26 19:46:00,
2013-01-26 12:47:00,42.5,27.9,29.74,NW,304,0.0,0.0,56,0.00,,---,0.00,VWS V13.01,2013-01-26 19:47:00,
2013-01-26 12:48:00,42.5,27.9,29.74,ENE,67,0.0,2.0,56,0.00,,---,0.00,VWS V13.01,2013-01-26 19:48:00,
2013-01-26 12:49:00,42.6,27.6,29.74,ENE,71,1.0,2.0,55,0.00,,---,0.00,VWS V13.01,2013-01-26 19:49:00,
2013-01-26 12:50:00,42.6,28.0,29.74,ENE,62,3.0,5.0,56,0.00,,---,0.00,VWS V13.01,2013-01-26 19:50:00,
2013-01-26 12:51:00,42.6,27.6,29.74,ENE,62,0.0,4.0,55,0.00,,---,0.00,VWS V13.01,2013-01-26 19:51:00,
2013-01-26 12:52:00,42.8,27.8,29.74,ENE,62,0.0,4.0,55,0.00,,---,0.00,VWS V13.01,2013-01-26 19:52:00,
2013-01-26 12:53:00,42.8,27.8,29.74,NNW,340,0.0,4.0,55,0.00,,---,0.00,VWS V13.01,2013-01-26 19:53:00,
2013-01-26 12:54:00,42.8,27.8,29.74,North,5,3.0,4.0,55,0.00,,---,0.00,VWS V13.01,2013-01-26 19:54:00,
2013-01-26 12:55:00,42.8,26.9,29.74,NNE,32,0.0,4.0,53,0.00,,---,0.00,VWS V13.01,2013-01-26 19:55:00,
2013-01-26 12:56:00,42.8,28.2,29.74,NW,305,0.0,2.0,56,0.00,,---,0.00,VWS V13.01,2013-01-26 19:56:00,
2013-01-26 12:57:00,42.9,28.3,29.74,East,82,1.0,2.0,56,0.00,,---,0.00,VWS V13.01,2013-01-26 19:57:00,
2013-01-26 12:58:00,42.9,27.9,29.74,ENE,57,0.0,5.0,55,0.00,,---,0.00,VWS V13.01,2013-01-26 19:58:00,
2013-01-26 12:59:00,42.9,27.9,29.73,WSW,243,0.0,5.0,55,0.00,,---,0.00,VWS V13.01,2013-01-26 19:59:00,
2013-01-26 13:00:00,42.9,26.5,29.73,WSW,242,0.0,5.0,52,0.00,,---,0.00,VWS V13.01,2013-01-26 20:00:00,
2013-01-26 13:01:00,43.1,28.0,29.73,WSW,238,0.0,0.0,55,0.00,,---,0.00,VWS V13.01,2013-01-26 20:01:00,
2013-01-26 13:02:00,43.1,26.7,29.73,SSE,161,0.0,1.0,52,0.00,,---,0.00,VWS V13.01,2013-01-26 20:02:00,
2013-01-26 13:03:00,43.2,27.2,29.73,North,9,3.0,3.0,53,0.00,,---,0.00,VWS V13.01,2013-01-26 20:03:00,
2013-01-26 13:04:00,43.3,27.8,29.73,ENE,60,1.0,3.0,54,0.00,,---,0.00,VWS V13.01,2013-01-26 20:04:00,
2013-01-26 13:05:00,43.3,27.8,29.73,NNE,12,0.0,3.0,54,0.00,,---,0.00,VWS V13.01,2013-01-26 20:05:00,
2013-01-26 13:06:00,43.5,28.0,29.73,NNE,14,0.0,1.0,54,0.00,,---,0.00,VWS V13.01,2013-01-26 20:06:00,
2013-01-26 13:07:00,43.5,28.0,29.73,NE,36,1.0,1.0,54,0.00,,---,0.00,VWS V13.01,2013-01-26 20:07:00,
2013-01-26 13:08:00,43.5,28.4,29.73,NE,38,0.0,1.0,55,0.00,,---,0.00,VWS V13.01,2013-01-26 20:08:00,
2013-01-26 13:09:00,43.5,27.1,29.73,North,5,1.0,3.0,52,0.00,,---,0.00,VWS V13.01,2013-01-26 20:09:00,
2013-01-26 13:10:00,43.6,27.1,29.73,NW,309,0.0,3.0,52,0.00,,---,0.00,VWS V13.01,2013-01-26 20:10:00,
2013-01-26 13:11:00,43.8,26.9,29.73,North,5,1.0,3.0,51,0.00,,---,0.00,VWS V13.01,2013-01-26 20:11:00,
2013-01-26 13:12:00,43.8,28.2,29.73,North,5,0.0,3.0,54,0.00,,---,0.00,VWS V13.01,2013-01-26 20:12:00,
2013-01-26 13:13:00,43.8,28.2,29.73,North,5,0.0,3.0,54,0.00,,---,0.00,VWS V13.01,2013-01-26 20:13:00,
2013-01-26 13:14:00,43.8,28.7,29.72,North,5,0.0,3.0,55,0.00,,---,0.00,VWS V13.01,2013-01-26 20:14:00,
2013-01-26 13:15:00,43.8,28.7,29.72,North,5,0.0,3.0,55,0.00,,---,0.00,VWS V13.01,2013-01-26 20:15:00,
2013-01-26 13:16:00,43.9,27.4,29.72,North,5,0.0,4.0,52,0.00,,---,0.00,VWS V13.01,2013-01-26 20:16:00,
2013-01-26 13:17:00,43.9,27.4,29.72,North,5,0.0,4.0,52,0.00,,---,0.00,VWS V13.01,2013-01-26 20:17:00,
2013-01-26 13:18:00,43.9,28.4,29.72,North,5,0.0,4.0,54,0.00,,---,0.00,VWS V13.01,2013-01-26 20:18:00,
2013-01-26 13:19:00,43.9,28.4,29.72,North,355,0.0,4.0,54,0.00,,---,0.00,VWS V13.01,2013-01-26 20:19:00,
2013-01-26 13:20:00,43.9,28.4,29.72,NNE,12,2.0,4.0,54,0.00,,---,0.00,VWS V13.01,2013-01-26 20:20:00,
2013-01-26 13:21:00,43.9,27.9,29.72,NNE,12,0.0,2.0,53,0.00,,---,0.00,VWS V13.01,2013-01-26 20:21:00,
2013-01-26 13:22:00,44.1,28.5,29.72,NNE,12,0.0,2.0,54,0.00,,---,0.00,VWS V13.01,2013-01-26 20:22:00,
2013-01-26 13:23:00,44.1,28.1,29.72,NNE,29,2.0,2.0,53,0.00,,---,0.00,VWS V13.01,2013-01-26 20:23:00,
2013-01-26 13:24:00,44.1,28.1,29.72,NE,39,2.0,3.0,53,0.00,,---,0.00,VWS V13.01,2013-01-26 20:24:00,
2013-01-26 13:25:00,44.2,28.6,29.72,NE,43,0.0,3.0,54,0.00,,---,0.00,VWS V13.01,2013-01-26 20:25:00,
2013-01-26 13:26:00,44.2,28.6,29.72,NE,46,0.0,0.0,54,0.00,,---,0.00,VWS V13.01,2013-01-26 20:26:00,
2013-01-26 13:27:00,44.2,29.1,29.72,NE,55,0.0,1.0,55,0.00,,---,0.00,VWS V13.01,2013-01-26 20:27:00,
2013-01-26 13:28:00,44.2,27.7,29.72,NE,36,0.0,4.0,52,0.00,,---,0.00,VWS V13.01,2013-01-26 20:28:00,
2013-01-26 13:29:00,44.2,27.2,29.70,NNE,17,1.0,4.0,51,0.00,,---,0.00,VWS V13.01,2013-01-26 20:29:00,
2013-01-26 13:30:00,44.3,27.3,29.70,NNE,17,0.0,4.0,51,0.00,,---,0.00,VWS V13.01,2013-01-26 20:30:00,
2013-01-26 13:31:00,44.3,28.7,29.70,NNE,17,0.0,0.0,54,0.00,,---,0.00,VWS V13.01,2013-01-26 20:31:00,
2013-01-26 13:32:00,44.3,28.3,29.70,NNE,17,0.0,0.0,53,0.00,,---,0.00,VWS V13.01,2013-01-26 20:32:00,
2013-01-26 13:33:00,44.3,28.7,29.70,NNE,17,0.0,0.0,54,0.00,,---,0.00,VWS V13.01,2013-01-26 20:33:00,
2013-01-26 13:34:00,44.3,27.3,29.70,NNE,17,0.0,0.0,51,0.00,,---,0.00,VWS V13.01,2013-01-26 20:34:00,
2013-01-26 13:35:00,44.3,28.3,29.70,NNE,17,0.0,1.0,53,0.00,,---,0.00,VWS V13.01,2013-01-26 20:35:00,
2013-01-26 13:36:00,44.3,28.7,29.70,NNE,15,0.0,1.0,54,0.00,,---,0.00,VWS V13.01,2013-01-26 20:36:00,
2013-01-26 13:37:00,44.2,27.2,29.70,NW,313,1.0,5.0,51,0.00,,---,0.00,VWS V13.01,2013-01-26 20:37:00,
2013-01-26 13:38:00,44.3,27.3,29.70,ENE,64,0.0,5.0,51,0.00,,---,0.00,VWS V13.01,2013-01-26 20:38:00,
2013-01-26 13:39:00,44.3,27.8,29.70,NNE,30,0.0,5.0,52,0.00,,---,0.00,VWS V13.01,2013-01-26 20:39:00,
2013-01-26 13:40:00,44.5,28.5,29.70,WNW,283,0.0,5.0,53,0.00,,---,0.00,VWS V13.01,2013-01-26 20:40:00,
2013-01-26 13:41:00,44.5,28.5,29.70,ENE,76,0.0,2.0,53,0.00,,---,0.00,VWS V13.01,2013-01-26 20:41:00,
2013-01-26 13:42:00,44.5,28.9,29.70,ENE,76,0.0,2.0,54,0.00,,---,0.00,VWS V13.01,2013-01-26 20:42:00,
2013-01-26 13:43:00,44.3,29.2,29.70,ENE,76,0.0,2.0,55,0.00,,---,0.00,VWS V13.01,2013-01-26 20:43:00,
2013-01-26 13:44:00,44.3,29.2,29.70,ENE,72,0.0,2.0,55,0.00,,---,0.00,VWS V13.01,2013-01-26 20:44:00,
2013-01-26 13:45:00,44.2,29.1,29.70,ENE,73,0.0,2.0,55,0.00,,---,0.00,VWS V13.01,2013-01-26 20:45:00,
2013-01-26 13:46:00,44.2,29.1,29.70,ENE,73,0.0,1.0,55,0.00,,---,0.00,VWS V13.01,2013-01-26 20:46:00,
2013-01-26 13:47:00,44.1,29.0,29.70,ENE,71,0.0,1.0,55,0.00,,---,0.00,VWS V13.01,2013-01-26 20:47:00,
2013-01-26 13:48:00,44.1,28.1,29.70,WNW,282,3.0,5.0,53,0.00,,---,0.00,VWS V13.01,2013-01-26 20:48:00,
2013-01-26 13:49:00,44.1,27.1,29.70,SW,219,0.0,5.0,51,0.00,,---,0.00,VWS V13.01,2013-01-26 20:49:00,
2013-01-26 13:50:00,44.2,28.2,29.70,SW,220,0.0,5.0,53,0.00,,---,0.00,VWS V13.01,2013-01-26 20:50:00,
2013-01-26 13:51:00,44.2,28.6,29.70,SW,220,0.0,0.0,54,0.00,,---,0.00,VWS V13.01,2013-01-26 20:51:00,
2013-01-26 13:52:00,44.2,27.7,29.70,SW,219,0.0,0.0,52,0.00,,---,0.00,VWS V13.01,2013-01-26 20:52:00,
2013-01-26 13:53:00,44.2,29.1,29.70,West,261,0.0,1.0,55,0.00,,---,0.00,VWS V13.01,2013-01-26 20:53:00,
2013-01-26 13:54:00,44.2,29.1,29.70,ENE,76,0.0,1.0,55,0.00,,---,0.00,VWS V13.01,2013-01-26 20:54:00,
2013-01-26 13:55:00,44.2,27.2,29.70,ENE,76,0.0,1.0,51,0.00,,---,0.00,VWS V13.01,2013-01-26 20:55:00,
2013-01-26 13:56:00,44.3,28.3,29.70,North,355,0.0,2.0,53,0.00,,---,0.00,VWS V13.01,2013-01-26 20:56:00,
2013-01-26 13:57:00,44.3,28.3,29.70,North,355,0.0,2.0,53,0.00,,---,0.00,VWS V13.01,2013-01-26 20:57:00,
2013-01-26 13:58:00,44.3,29.2,29.70,NNE,19,0.0,2.0,55,0.00,,---,0.00,VWS V13.01,2013-01-26 20:58:00,
2013-01-26 13:59:00,44.3,28.7,29.70,NNE,19,0.0,2.0,54,0.00,,---,0.00,VWS V13.01,2013-01-26 20:59:00,
2013-01-26 14:00:00,44.3,28.7,29.70,NNE,19,0.0,2.0,54,0.00,,---,0.00,VWS V13.01,2013-01-26 21:00:00,
2013-01-26 14:01:00,44.2,28.6,29.70,NNE,21,0.0,1.0,54,0.00,,---,0.00,VWS V13.01,2013-01-26 21:01:00,
2013-01-26 14:02:00,44.2,28.2,29.70,NNE,21,0.0,1.0,53,0.00,,---,0.00,VWS V13.01,2013-01-26 21:02:00,
2013-01-26 14:03:00,44.2,28.2,29.70,NNE,21,0.0,1.0,53,0.00,,---,0.00,VWS V13.01,2013-01-26 21:03:00,
2013-01-26 14:04:00,44.2,29.1,29.70,NNE,21,0.0,1.0,55,0.00,,---,0.00,VWS V13.01,2013-01-26 21:04:00,
2013-01-26 14:05:00,44.1,29.0,29.70,East,80,0.0,1.0,55,0.00,,---,0.00,VWS V13.01,2013-01-26 21:05:00,
2013-01-26 14:06:00,44.1,27.1,29.70,WSW,256,0.0,2.0,51,0.00,,---,0.00,VWS V13.01,2013-01-26 21:06:00,
2013-01-26 14:07:00,44.2,28.2,29.70,SW,235,0.0,2.0,53,0.00,,---,0.00,VWS V13.01,2013-01-26 21:07:00,
2013-01-26 14:08:00,44.2,28.2,29.70,SW,235,0.0,2.0,53,0.00,,---,0.00,VWS V13.01,2013-01-26 21:08:00,
2013-01-26 14:09:00,44.2,27.7,29.70,NE,49,0.0,3.0,52,0.00,,---,0.00,VWS V13.01,2013-01-26 21:09:00,
2013-01-26 14:10:00,44.2,29.1,29.70,North,5,0.0,3.0,55,0.00,,---,0.00,VWS V13.01,2013-01-26 21:10:00,
2013-01-26 14:11:00,44.3,27.8,29.70,NNE,25,0.0,2.0,52,0.00,,---,0.00,VWS V13.01,2013-01-26 21:11:00,
2013-01-26 14:12:00,44.3,27.8,29.70,NNE,28,0.0,2.0,52,0.00,,---,0.00,VWS V13.01,2013-01-26 21:12:00,
2013-01-26 14:13:00,44.3,28.3,29.70,NNE,28,0.0,2.0,53,0.00,,---,0.00,VWS V13.01,2013-01-26 21:13:00,
2013-01-26 14:14:00,44.3,28.3,29.70,NNE,28,0.0,2.0,53,0.00,,---,0.00,VWS V13.01,2013-01-26 21:14:00,
2013-01-26 14:15:00,44.3,28.7,29.70,NNE,28,0.0,2.0,54,0.00,,---,0.00,VWS V13.01,2013-01-26 21:15:00,
2013-01-26 14:16:00,44.3,27.8,29.70,NNE,28,0.0,1.0,52,0.00,,---,0.00,VWS V13.01,2013-01-26 21:16:00,
2013-01-26 14:17:00,44.3,27.8,29.70,ENE,70,1.0,1.0,52,0.00,,---,0.00,VWS V13.01,2013-01-26 21:17:00,
2013-01-26 14:18:00,44.2,27.7,29.70,NW,321,0.0,2.0,52,0.00,,---,0.00,VWS V13.01,2013-01-26 21:18:00,
2013-01-26 14:19:00,44.3,26.9,29.70,NNW,328,0.0,2.0,50,0.00,,---,0.00,VWS V13.01,2013-01-26 21:19:00,
2013-01-26 14:20:00,44.3,27.3,29.70,NNW,328,0.0,2.0,51,0.00,,---,0.00,VWS V13.01,2013-01-26 21:20:00,
2013-01-26 14:21:00,44.3,27.8,29.70,NNW,329,0.0,0.0,52,0.00,,---,0.00,VWS V13.01,2013-01-26 21:21:00,
2013-01-26 14:22:00,44.3,27.8,29.70,NNW,337,0.0,1.0,52,0.00,,---,0.00,VWS V13.01,2013-01-26 21:22:00,
2013-01-26 14:23:00,44.3,28.3,29.70,NNW,338,0.0,1.0,53,0.00,,---,0.00,VWS V13.01,2013-01-26 21:23:00,
2013-01-26 14:24:00,44.2,28.6,29.70,NNW,338,0.0,1.0,54,0.00,,---,0.00,VWS V13.01,2013-01-26 21:24:00,
2013-01-26 14:25:00,44.2,28.2,29.70,NNW,340,0.0,1.0,53,0.00,,---,0.00,VWS V13.01,2013-01-26 21:25:00,
2013-01-26 14:26:00,44.1,28.5,29.70,North,360,0.0,0.0,54,0.00,,---,0.00,VWS V13.01,2013-01-26 21:26:00,
2013-01-26 14:27:00,44.1,29.0,29.70,NNE,26,4.0,4.0,55,0.00,,---,0.00,VWS V13.01,2013-01-26 21:27:00,
2013-01-26 14:28:00,43.9,27.4,29.70,SW,223,0.0,6.0,52,0.00,,---,0.00,VWS V13.01,2013-01-26 21:28:00,
2013-01-26 14:29:00,43.9,28.4,29.70,NNW,339,3.0,6.0,54,0.00,,---,0.00,VWS V13.01,2013-01-26 21:29:00,
2013-01-26 14:30:00,43.8,27.8,29.70,NW,317,0.0,6.0,53,0.00,,---,0.00,VWS V13.01,2013-01-26 21:30:00,
2013-01-26 14:31:00,43.8,26.9,29.70,WNW,300,0.0,6.0,51,0.00,,---,0.00,VWS V13.01,2013-01-26 21:31:00,
2013-01-26 14:32:00,43.8,28.2,29.70,WNW,300,0.0,6.0,54,0.00,,---,0.00,VWS V13.01,2013-01-26 21:32:00,
2013-01-26 14:33:00,43.8,28.7,29.70,WNW,300,0.0,6.0,55,0.00,,---,0.00,VWS V13.01,2013-01-26 21:33:00,
2013-01-26 14:34:00,43.8,28.2,29.70,NNE,20,2.0,6.0,54,0.00,,---,0.00,VWS V13.01,2013-01-26 21:34:00,
2013-01-26 14:35:00,43.8,28.2,29.70,NNE,21,1.0,6.0,54,0.00,,---,0.00,VWS V13.01,2013-01-26 21:35:00,
2013-01-26 14:36:00,43.6,28.1,29.70,NNE,21,0.0,1.0,54,0.00,,---,0.00,VWS V13.01,2013-01-26 21:36:00,
2013-01-26 14:37:00,43.6,28.1,29.70,NNE,21,0.0,1.0,54,0.00,,---,0.00,VWS V13.01,2013-01-26 21:37:00,
2013-01-26 14:38:00,43.6,28.5,29.70,NNE,21,0.0,1.0,55,0.00,,---,0.00,VWS V13.01,2013-01-26 21:38:00,
2013-01-26 14:39:00,43.5,28.4,29.70,NNE,21,0.0,1.0,55,0.00,,---,0.00,VWS V13.01,2013-01-26 21:39:00,
2013-01-26 14:40:00,43.5,27.1,29.70,NNE,21,1.0,1.0,52,0.00,,---,0.00,VWS V13.01,2013-01-26 21:40:00,
2013-01-26 14:41:00,43.5,28.4,29.70,NNE,21,1.0,1.0,55,0.00,,---,0.00,VWS V13.01,2013-01-26 21:41:00,
2013-01-26 14:42:00,43.3,27.8,29.70,NNE,21,0.0,2.0,54,0.00,,---,0.00,VWS V13.01,2013-01-26 21:42:00,
2013-01-26 14:43:00,43.3,27.3,29.70,NNE,21,0.0,2.0,53,0.00,,---,0.00,VWS V13.01,2013-01-26 21:43:00,
2013-01-26 14:44:00,43.3,28.2,29.70,NNE,21,0.0,2.0,55,0.00,,---,0.00,VWS V13.01,2013-01-26 21:44:00,
2013-01-26 14:45:00,43.3,28.2,29.70,NNE,21,0.0,2.0,55,0.00,,---,0.00,VWS V13.01,2013-01-26 21:45:00,
2013-01-26 14:46:00,43.2,28.6,29.70,NNE,21,0.0,0.0,56,0.00,,---,0.00,VWS V13.01,2013-01-26 21:46:00,
2013-01-26 14:47:00,43.2,28.1,29.70,NNE,21,0.0,0.0,55,0.00,,---,0.00,VWS V13.01,2013-01-26 21:47:00,
2013-01-26 14:48:00,43.1,28.9,29.70,NNE,21,0.0,0.0,57,0.00,,---,0.00,VWS V13.01,2013-01-26 21:48:00,
2013-01-26 14:49:00,43.1,28.5,29.70,NE,54,0.0,2.0,56,0.00,,---,0.00,VWS V13.01,2013-01-26 21:49:00,
2013-01-26 14:50:00,42.9,27.9,29.70,NE,54,0.0,2.0,55,0.00,,---,0.00,VWS V13.01,2013-01-26 21:50:00,
2013-01-26 14:51:00,42.8,28.6,29.70,NE,54,0.0,0.0,57,0.00,,---,0.00,VWS V13.01,2013-01-26 21:51:00,
2013-01-26 14:52:00,42.8,29.1,29.70,NE,54,0.0,0.0,58,0.00,,---,0.00,VWS V13.01,2013-01-26 21:52:00,
2013-01-26 14:53:00,42.6,28.9,29.70,NE,54,0.0,0.0,58,0.00,,---,0.00,VWS V13.01,2013-01-26 21:53:00,
2013-01-26 14:54:00,42.6,28.0,29.70,SW,225,0.0,1.0,56,0.00,,---,0.00,VWS V13.01,2013-01-26 21:54:00,
2013-01-26 14:55:00,42.5,27.0,29.70,SW,225,0.0,1.0,54,0.00,,---,0.00,VWS V13.01,2013-01-26 21:55:00,
2013-01-26 14:56:00,42.5,27.9,29.70,SW,225,0.0,0.0,56,0.00,,---,0.00,VWS V13.01,2013-01-26 21:56:00,
2013-01-26 14:57:00,42.5,28.4,29.70,SW,225,0.0,0.0,57,0.00,,---,0.00,VWS V13.01,2013-01-26 21:57:00,
2013-01-26 14:58:00,42.3,28.6,29.70,WSW,239,0.0,1.0,58,0.00,,---,0.00,VWS V13.01,2013-01-26 21:58:00,
2013-01-26 14:59:00,42.2,27.6,29.71,WSW,239,0.0,1.0,56,0.00,,---,0.00,VWS V13.01,2013-01-26 21:59:00,
2013-01-26 15:00:00,42.2,28.5,29.71,WSW,239,0.0,1.0,58,0.00,,---,0.00,VWS V13.01,2013-01-26 22:00:00,
2013-01-26 15:01:00,42.2,28.5,29.71,WSW,239,0.0,0.0,58,0.00,,---,0.00,VWS V13.01,2013-01-26 22:01:00,
2013-01-26 15:02:00,42.1,28.4,29.71,NNE,28,0.0,2.0,58,0.00,,---,0.00,VWS V13.01,2013-01-26 22:02:00,
2013-01-26 15:03:00,41.9,28.6,29.71,NNE,28,0.0,2.0,59,0.00,,---,0.00,VWS V13.01,2013-01-26 22:03:00,
2013-01-26 15:04:00,41.9,28.6,29.71,NNE,28,0.0,2.0,59,0.00,,---,0.00,VWS V13.01,2013-01-26 22:04:00,
2013-01-26 15:05:00,41.9,28.6,29.71,NNE,28,0.0,2.0,59,0.00,,---,0.00,VWS V13.01,2013-01-26 22:05:00,
2013-01-26 15:06:00,41.8,28.5,29.71,NE,45,0.0,2.0,59,0.00,,---,0.00,VWS V13.01,2013-01-26 22:06:00,
2013-01-26 15:07:00,41.8,29.0,29.71,NE,45,0.0,2.0,60,0.00,,---,0.00,VWS V13.01,2013-01-26 22:07:00,
2013-01-26 15:08:00,41.8,29.0,29.71,NE,45,0.0,2.0,60,0.00,,---,0.00,VWS V13.01,2013-01-26 22:08:00,
2013-01-26 15:09:00,41.8,28.5,29.71,NE,45,0.0,2.0,59,0.00,,---,0.00,VWS V13.01,2013-01-26 22:09:00,
2013-01-26 15:10:00,41.8,28.5,29.71,NE,45,0.0,2.0,59,0.00,,---,0.00,VWS V13.01,2013-01-26 22:10:00,
2013-01-26 15:11:00,41.6,27.9,29.71,NE,45,0.0,0.0,58,0.00,,---,0.00,VWS V13.01,2013-01-26 22:11:00,
2013-01-26 15:12:00,41.6,28.8,29.71,NE,45,0.0,0.0,60,0.00,,---,0.00,VWS V13.01,2013-01-26 22:12:00,
2013-01-26 15:13:00,41.6,28.8,29.71,NE,45,0.0,0.0,60,0.00,,---,0.00,VWS V13.01,2013-01-26 22:13:00,
2013-01-26 15:14:00,41.6,28.4,29.70,NE,45,0.0,1.0,59,0.00,,---,0.00,VWS V13.01,2013-01-26 22:14:00,
2013-01-26 15:15:00,41.6,28.8,29.70,NE,45,0.0,1.0,60,0.00,,---,0.00,VWS V13.01,2013-01-26 22:15:00,
2013-01-26 15:16:00,41.6,27.9,29.70,NE,45,0.0,0.0,58,0.00,,---,0.00,VWS V13.01,2013-01-26 22:16:00,
2013-01-26 15:17:00,41.6,28.4,29.70,NE,45,0.0,0.0,59,0.00,,---,0.00,VWS V13.01,2013-01-26 22:17:00,
2013-01-26 15:18:00,41.6,28.4,29.70,NE,45,0.0,0.0,59,0.00,,---,0.00,VWS V13.01,2013-01-26 22:18:00,
2013-01-26 15:19:00,41.6,27.9,29.70,NE,45,0.0,0.0,58,0.00,,---,0.00,VWS V13.01,2013-01-26 22:19:00,
2013-01-26 15:20:00,41.6,28.4,29.70,NE,45,0.0,0.0,59,0.00,,---,0.00,VWS V13.01,2013-01-26 22:20:00,
2013-01-26 15:21:00,41.5,28.3,29.70,NE,38,1.0,4.0,59,0.00,,---,0.00,VWS V13.01,2013-01-26 22:21:00,
2013-01-26 15:22:00,41.5,28.3,29.70,NE,38,0.0,4.0,59,0.00,,---,0.00,VWS V13.01,2013-01-26 22:22:00,
2013-01-26 15:23:00,41.5,28.3,29.70,NE,38,0.0,4.0,59,0.00,,---,0.00,VWS V13.01,2013-01-26 22:23:00,
2013-01-26 15:24:00,41.5,28.3,29.70,NE,38,0.0,4.0,59,0.00,,---,0.00,VWS V13.01,2013-01-26 22:24:00,
2013-01-26 15:25:00,41.5,28.3,29.70,NE,38,0.0,4.0,59,0.00,,---,0.00,VWS V13.01,2013-01-26 22:25:00,
2013-01-26 15:26:00,41.5,28.3,29.70,NE,38,0.0,0.0,59,0.00,,---,0.00,VWS V13.01,2013-01-26 22:26:00,
2013-01-26 15:27:00,41.5,28.3,29.70,NE,38,0.0,0.0,59,0.00,,---,0.00,VWS V13.01,2013-01-26 22:27:00,
2013-01-26 15:28:00,41.3,28.5,29.70,NE,38,0.0,0.0,60,0.00,,---,0.00,VWS V13.01,2013-01-26 22:28:00,
2013-01-26 15:29:00,41.3,28.1,29.69,NE,38,0.0,0.0,59,0.00,,---,0.00,VWS V13.01,2013-01-26 22:29:00,
2013-01-26 15:30:00,41.3,28.1,29.69,NE,38,0.0,0.0,59,0.00,,---,0.00,VWS V13.01,2013-01-26 22:30:00,
2013-01-26 15:31:00,41.2,27.6,29.69,NE,38,0.0,0.0,58,0.00,,---,0.00,VWS V13.01,2013-01-26 22:31:00,
2013-01-26 15:32:00,41.2,27.6,29.69,WNW,303,0.0,1.0,58,0.00,,---,0.00,VWS V13.01,2013-01-26 22:32:00,
2013-01-26 15:33:00,41.2,28.0,29.69,WNW,303,0.0,1.0,59,0.00,,---,0.00,VWS V13.01,2013-01-26 22:33:00,
2013-01-26 15:34:00,41.2,28.0,29.69,WNW,303,0.0,1.0,59,0.00,,---,0.00,VWS V13.01,2013-01-26 22:34:00,
2013-01-26 15:35:00,41.2,28.0,29.69,WNW,303,0.0,1.0,59,0.00,,---,0.00,VWS V13.01,2013-01-26 22:35:00,
2013-01-26 15:36:00,41.2,27.6,29.69,WNW,303,0.0,0.0,58,0.00,,---,0.00,VWS V13.01,2013-01-26 22:36:00,
2013-01-26 15:37:00,41.2,26.7,29.69,WNW,303,0.0,0.0,56,0.00,,---,0.00,VWS V13.01,2013-01-26 22:37:00,
2013-01-26 15:38:00,41.2,27.6,29.69,WNW,303,0.0,0.0,58,0.00,,---,0.00,VWS V13.01,2013-01-26 22:38:00,
2013-01-26 15:39:00,41.2,28.0,29.69,WNW,303,0.0,0.0,59,0.00,,---,0.00,VWS V13.01,2013-01-26 22:39:00,
2013-01-26 15:40:00,41.2,28.4,29.69,WNW,303,0.0,0.0,60,0.00,,---,0.00,VWS V13.01,2013-01-26 22:40:00,
2013-01-26 15:41:00,41.2,28.4,29.69,WNW,303,0.0,0.0,60,0.00,,---,0.00,VWS V13.01,2013-01-26 22:41:00,
2013-01-26 15:42:00,41.2,28.0,29.69,WNW,303,0.0,0.0,59,0.00,,---,0.00,VWS V13.01,2013-01-26 22:42:00,
2013-01-26 15:43:00,41.1,27.9,29.69,WNW,303,0.0,1.0,59,0.00,,---,0.00,VWS V13.01,2013-01-26 22:43:00,
2013-01-26 15:44:00,41.1,27.9,29.70,WNW,303,0.0,1.0,59,0.00,,---,0.00,VWS V13.01,2013-01-26 22:44:00,
2013-01-26 15:45:00,41.1,27.9,29.70,WNW,303,0.0,1.0,59,0.00,,---,0.00,VWS V13.01,2013-01-26 22:45:00,
2013-01-26 15:46:00,41.1,28.7,29.70,WNW,303,0.0,0.0,61,0.00,,---,0.00,VWS V13.01,2013-01-26 22:46:00,
2013-01-26 15:47:00,41.1,28.3,29.70,WNW,303,0.0,0.0,60,0.00,,---,0.00,VWS V13.01,2013-01-26 22:47:00,
2013-01-26 15:48:00,41.1,28.7,29.70,NW,304,0.0,0.0,61,0.00,,---,0.00,VWS V13.01,2013-01-26 22:48:00,
2013-01-26 15:49:00,40.9,28.5,29.70,NW,305,0.0,0.0,61,0.00,,---,0.00,VWS V13.01,2013-01-26 22:49:00,
2013-01-26 15:50:00,40.9,28.5,29.70,North,355,0.0,0.0,61,0.00,,---,0.00,VWS V13.01,2013-01-26 22:50:00,
2013-01-26 15:51:00,40.9,28.5,29.70,NW,313,0.0,1.0,61,0.00,,---,0.00,VWS V13.01,2013-01-26 22:51:00,
2013-01-26 15:52:00,40.9,28.5,29.70,WSW,238,0.0,6.0,61,0.00,,---,0.00,VWS V13.01,2013-01-26 22:52:00,
2013-01-26 15:53:00,40.9,28.5,29.70,SSW,213,1.0,6.0,61,0.00,,---,0.00,VWS V13.01,2013-01-26 22:53:00,
2013-01-26 15:54:00,40.9,28.9,29.70,SSW,200,0.0,6.0,62,0.00,,---,0.00,VWS V13.01,2013-01-26 22:54:00,
2013-01-26 15:55:00,40.9,28.9,29.70,SSW,213,0.0,6.0,62,0.00,,---,0.00,VWS V13.01,2013-01-26 22:55:00,
2013-01-26 15:56:00,40.9,28.9,29.70,SW,223,2.0,4.0,62,0.00,,---,0.00,VWS V13.01,2013-01-26 22:56:00,
2013-01-26 15:57:00,40.9,28.9,29.70,SW,235,1.0,4.0,62,0.00,,---,0.00,VWS V13.01,2013-01-26 22:57:00,
2013-01-26 15:58:00,40.8,28.8,29.70,WSW,248,0.0,4.0,62,0.00,,---,0.00,VWS V13.01,2013-01-26 22:58:00,
2013-01-26 15:59:00,40.8,28.8,29.71,SW,236,2.0,4.0,62,0.00,,---,0.00,VWS V13.01,2013-01-26 22:59:00,
2013-01-26 16:00:00,40.8,28.8,29.71,SW,236,0.0,4.0,62,0.00,,---,0.00,VWS V13.01,2013-01-26 23:00:00,
2013-01-26 16:01:00,40.8,28.8,29.71,SW,236,0.0,0.0,62,0.00,,---,0.00,VWS V13.01,2013-01-26 23:01:00,
2013-01-26 16:02:00,40.8,29.2,29.71,SW,236,0.0,0.0,63,0.00,,---,0.00,VWS V13.01,2013-01-26 23:02:00,
2013-01-26 16:03:00,40.6,29.0,29.71,SW,236,0.0,0.0,63,0.00,,---,0.00,VWS V13.01,2013-01-26 23:03:00,
2013-01-26 16:04:00,40.6,29.0,29.71,SW,236,0.0,2.0,63,0.00,,---,0.00,VWS V13.01,2013-01-26 23:04:00,
2013-01-26 16:05:00,40.6,29.0,29.71,West,279,0.0,2.0,63,0.00,,---,0.00,VWS V13.01,2013-01-26 23:05:00,
2013-01-26 16:06:00,40.6,29.0,29.71,West,279,0.0,0.0,63,0.00,,---,0.00,VWS V13.01,2013-01-26 23:06:00,
2013-01-26 16:07:00,40.5,28.9,29.71,West,279,0.0,0.0,63,0.00,,---,0.00,VWS V13.01,2013-01-26 23:07:00,
2013-01-26 16:08:00,40.5,28.9,29.71,West,279,0.0,0.0,63,0.00,,---,0.00,VWS V13.01,2013-01-26 23:08:00,
2013-01-26 16:09:00,40.5,28.9,29.71,West,279,0.0,0.0,63,0.00,,---,0.00,VWS V13.01,2013-01-26 23:09:00,
2013-01-26 16:10:00,40.3,29.1,29.71,West,279,0.0,0.0,64,0.00,,---,0.00,VWS V13.01,2013-01-26 23:10:00,
2013-01-26 16:11:00,40.3,29.5,29.71,West,279,0.0,0.0,65,0.00,,---,0.00,VWS V13.01,2013-01-26 23:11:00,
2013-01-26 16:12:00,40.2,29.4,29.71,West,279,0.0,0.0,65,0.00,,---,0.00,VWS V13.01,2013-01-26 23:12:00,
2013-01-26 16:13:00,40.2,29.4,29.71,West,279,0.0,0.0,65,0.00,,---,0.00,VWS V13.01,2013-01-26 23:13:00,
2013-01-26 16:14:00,40.1,29.3,29.73,West,279,0.0,0.0,65,0.00,,---,0.00,VWS V13.01,2013-01-26 23:14:00,
2013-01-26 16:15:00,39.9,29.5,29.73,West,279,0.0,0.0,66,0.00,,---,0.00,VWS V13.01,2013-01-26 23:15:00,
2013-01-26 16:16:00,39.8,29.4,29.73,West,279,0.0,0.0,66,0.00,,---,0.00,VWS V13.01,2013-01-26 23:16:00,
2013-01-26 16:17:00,39.8,29.4,29.73,West,279,0.0,0.0,66,0.00,,---,0.00,VWS V13.01,2013-01-26 23:17:00,
2013-01-26 16:18:00,39.6,29.6,29.73,West,279,0.0,0.0,67,0.00,,---,0.00,VWS V13.01,2013-01-26 23:18:00,
2013-01-26 16:19:00,39.5,29.5,29.73,West,279,0.0,0.0,67,0.00,,---,0.00,VWS V13.01,2013-01-26 23:19:00,
2013-01-26 16:20:00,39.3,29.3,29.73,West,279,0.0,0.0,67,0.00,,---,0.00,VWS V13.01,2013-01-26 23:20:00,
2013-01-26 16:21:00,39.2,29.5,29.73,West,279,0.0,0.0,68,0.00,,---,0.00,VWS V13.01,2013-01-26 23:21:00,
2013-01-26 16:22:00,39.1,29.5,29.73,West,279,0.0,0.0,68,0.00,,---,0.00,VWS V13.01,2013-01-26 23:22:00,
2013-01-26 16:23:00,38.9,29.2,29.73,West,279,0.0,0.0,68,0.00,,---,0.00,VWS V13.01,2013-01-26 23:23:00,
2013-01-26 16:24:00,38.8,29.2,29.73,West,279,0.0,0.0,68,0.00,,---,0.00,VWS V13.01,2013-01-26 23:24:00,
2013-01-26 16:25:00,38.8,29.5,29.73,West,279,0.0,0.0,69,0.00,,---,0.00,VWS V13.01,2013-01-26 23:25:00,
2013-01-26 16:26:00,38.6,29.3,29.73,West,279,0.0,0.0,69,0.00,,---,0.00,VWS V13.01,2013-01-26 23:26:00,
2013-01-26 16:27:00,38.6,29.3,29.73,West,279,0.0,0.0,69,0.00,,---,0.00,VWS V13.01,2013-01-26 23:27:00,
2013-01-26 16:28:00,38.5,29.2,29.73,West,279,0.0,0.0,69,0.00,,---,0.00,VWS V13.01,2013-01-26 23:28:00,
2013-01-26 16:29:00,38.3,29.4,29.75,West,279,0.0,0.0,70,0.00,,---,0.00,VWS V13.01,2013-01-26 23:29:00,
2013-01-26 16:30:00,38.3,29.4,29.75,West,279,0.0,0.0,70,0.00,,---,0.00,VWS V13.01,2013-01-26 23:30:00,
2013-01-26 16:31:00,38.0,29.1,29.75,West,279,0.0,0.0,70,0.00,,---,0.00,VWS V13.01,2013-01-26 23:31:00,
2013-01-26 16:32:00,38.0,29.1,29.75,West,279,0.0,0.0,70,0.00,,---,0.00,VWS V13.01,2013-01-26 23:32:00,
2013-01-26 16:33:00,37.9,29.0,29.75,West,279,0.0,0.0,70,0.00,,---,0.00,VWS V13.01,2013-01-26 23:33:00,
2013-01-26 16:34:00,37.9,29.0,29.75,West,279,0.0,0.0,70,0.00,,---,0.00,VWS V13.01,2013-01-26 23:34:00,
2013-01-26 16:35:00,37.8,29.3,29.75,West,279,0.0,0.0,71,0.00,,---,0.00,VWS V13.01,2013-01-26 23:35:00,
2013-01-26 16:36:00,37.8,29.3,29.75,West,279,0.0,0.0,71,0.00,,---,0.00,VWS V13.01,2013-01-26 23:36:00,
2013-01-26 16:37:00,37.8,28.6,29.75,West,279,0.0,0.0,69,0.00,,---,0.00,VWS V13.01,2013-01-26 23:37:00,
2013-01-26 16:38:00,37.6,28.7,29.75,West,279,0.0,0.0,70,0.00,,---,0.00,VWS V13.01,2013-01-26 23:38:00,
2013-01-26 16:39:00,37.6,29.1,29.75,West,279,0.0,0.0,71,0.00,,---,0.00,VWS V13.01,2013-01-26 23:39:00,
2013-01-26 16:40:00,37.6,29.1,29.75,West,279,0.0,0.0,71,0.00,,---,0.00,VWS V13.01,2013-01-26 23:40:00,
2013-01-26 16:41:00,37.6,29.1,29.75,West,279,0.0,0.0,71,0.00,,---,0.00,VWS V13.01,2013-01-26 23:41:00,
2013-01-26 16:42:00,37.5,29.3,29.75,West,279,0.0,0.0,72,0.00,,---,0.00,VWS V13.01,2013-01-26 23:42:00,
2013-01-26 16:43:00,37.5,29.3,29.75,West,279,0.0,0.0,72,0.00,,---,0.00,VWS V13.01,2013-01-26 23:43:00,
2013-01-26 16:44:00,37.3,29.1,29.76,West,279,0.0,0.0,72,0.00,,---,0.00,VWS V13.01,2013-01-26 23:44:00,
2013-01-26 16:45:00,37.3,29.1,29.76,West,279,0.0,0.0,72,0.00,,---,0.00,VWS V13.01,2013-01-26 23:45:00,
2013-01-26 16:46:00,37.3,29.1,29.76,West,279,0.0,0.0,72,0.00,,---,0.00,VWS V13.01,2013-01-26 23:46:00,
2013-01-26 16:47:00,37.2,29.0,29.76,West,279,0.0,0.0,72,0.00,,---,0.00,VWS V13.01,2013-01-26 23:47:00,
2013-01-26 16:48:00,37.2,29.0,29.76,West,279,0.0,0.0,72,0.00,,---,0.00,VWS V13.01,2013-01-26 23:48:00,
2013-01-26 16:49:00,37.2,29.0,29.76,West,279,0.0,0.0,72,0.00,,---,0.00,VWS V13.01,2013-01-26 23:49:00,
2013-01-26 16:50:00,37.2,29.0,29.76,West,279,0.0,0.0,72,0.00,,---,0.00,VWS V13.01,2013-01-26 23:50:00,
2013-01-26 16:51:00,37.2,29.0,29.76,West,279,0.0,0.0,72,0.00,,---,0.00,VWS V13.01,2013-01-26 23:51:00,
2013-01-26 16:52:00,37.2,29.0,29.76,West,279,0.0,0.0,72,0.00,,---,0.00,VWS V13.01,2013-01-26 23:52:00,
2013-01-26 16:53:00,37.0,29.2,29.76,West,279,0.0,0.0,73,0.00,,---,0.00,VWS V13.01,2013-01-26 23:53:00,
2013-01-26 16:54:00,37.0,29.2,29.76,West,279,0.0,0.0,73,0.00,,---,0.00,VWS V13.01,2013-01-26 23:54:00,
2013-01-26 16:55:00,37.0,29.2,29.76,West,279,0.0,0.0,73,0.00,,---,0.00,VWS V13.01,2013-01-26 23:55:00,
2013-01-26 16:56:00,37.0,29.2,29.76,East,80,4.0,4.0,73,0.00,,---,0.00,VWS V13.01,2013-01-26 23:56:00,
2013-01-26 16:57:00,37.0,29.8,29.76,East,88,0.0,4.0,75,0.00,,---,0.00,VWS V13.01,2013-01-26 23:57:00,
2013-01-26 16:58:00,37.0,29.8,29.76,East,88,0.0,4.0,75,0.00,,---,0.00,VWS V13.01,2013-01-26 23:58:00,
2013-01-26 16:59:00,37.0,30.1,29.77,East,88,1.0,4.0,76,0.00,,---,0.00,VWS V13.01,2013-01-26 23:59:00,
2013-01-26 17:00:00,37.0,29.8,29.77,East,88,1.0,4.0,75,0.00,,---,0.00,VWS V13.01,2013-01-27 00:00:00,
2013-01-26 17:01:00,37.0,30.1,29.77,East,88,0.0,1.0,76,0.00,,---,0.00,VWS V13.01,2013-01-27 00:01:00,
2013-01-26 17:02:00,37.0,30.5,29.77,East,88,0.0,1.0,77,0.00,,---,0.00,VWS V13.01,2013-01-27 00:02:00,
2013-01-26 17:03:00,37.0,30.5,29.77,East,88,0.0,1.0,77,0.00,,---,0.00,VWS V13.01,2013-01-27 00:03:00,
2013-01-26 17:04:00,36.9,30.7,29.77,East,88,0.0,1.0,78,0.00,,---,0.00,VWS V13.01,2013-01-27 00:04:00,
2013-01-26 17:05:00,36.9,30.7,29.77,East,88,0.0,1.0,78,0.00,,---,0.00,VWS V13.01,2013-01-27 00:05:00,
2013-01-26 17:06:00,36.9,30.7,29.77,East,88,0.0,0.0,78,0.00,,---,0.00,VWS V13.01,2013-01-27 00:06:00,
2013-01-26 17:07:00,36.8,30.9,29.77,East,88,0.0,0.0,79,0.00,,---,0.00,VWS V13.01,2013-01-27 00:07:00,
2013-01-26 17:08:00,36.8,30.9,29.77,East,88,0.0,0.0,79,0.00,,---,0.00,VWS V13.01,2013-01-27 00:08:00,
2013-01-26 17:09:00,36.8,30.9,29.77,East,88,0.0,0.0,79,0.00,,---,0.00,VWS V13.01,2013-01-27 00:09:00,
2013-01-26 17:10:00,36.6,30.7,29.77,East,88,0.0,0.0,79,0.00,,---,0.00,VWS V13.01,2013-01-27 00:10:00,
2013-01-26 17:11:00,36.6,31.0,29.77,East,88,0.0,0.0,80,0.01,,---,0.01,VWS V13.01,2013-01-27 00:11:00,
2013-01-26 17:12:00,36.5,30.9,29.77,East,88,0.0,0.0,80,0.01,,---,0.01,VWS V13.01,2013-01-27 00:12:00,
2013-01-26 17:13:00,36.3,30.7,29.77,East,88,0.0,0.0,80,0.01,,---,0.01,VWS V13.01,2013-01-27 00:13:00,
2013-01-26 17:14:00,36.3,30.7,29.77,East,88,0.0,0.0,80,0.01,,---,0.01,VWS V13.01,2013-01-27 00:14:00,
2013-01-26 17:15:00,36.2,30.6,29.79,East,88,0.0,0.0,80,0.01,,---,0.01,VWS V13.01,2013-01-27 00:15:00,
2013-01-26 17:16:00,36.2,30.6,29.79,East,88,0.0,0.0,80,0.01,,---,0.01,VWS V13.01,2013-01-27 00:16:00,
2013-01-26 17:17:00,36.0,30.4,29.79,East,88,0.0,0.0,80,0.01,,---,0.01,VWS V13.01,2013-01-27 00:17:00,
2013-01-26 17:18:00,36.0,30.4,29.79,East,88,0.0,1.0,80,0.01,,---,0.01,VWS V13.01,2013-01-27 00:18:00,
2013-01-26 17:19:00,36.0,30.8,29.79,East,88,0.0,1.0,81,0.01,,---,0.01,VWS V13.01,2013-01-27 00:19:00,
2013-01-26 17:20:00,35.9,30.6,29.79,WSW,256,3.0,3.0,81,0.01,,---,0.01,VWS V13.01,2013-01-27 00:20:00,
2013-01-26 17:21:00,35.8,30.9,29.79,South,184,0.0,3.0,82,0.01,,---,0.01,VWS V13.01,2013-01-27 00:21:00,
2013-01-26 17:22:00,35.8,30.9,29.79,South,184,0.0,3.0,82,0.01,,---,0.01,VWS V13.01,2013-01-27 00:22:00,
2013-01-26 17:23:00,35.6,30.7,29.79,South,184,1.0,3.0,82,0.01,,---,0.01,VWS V13.01,2013-01-27 00:23:00,
2013-01-26 17:24:00,35.6,30.7,29.79,South,184,0.0,3.0,82,0.01,,---,0.01,VWS V13.01,2013-01-27 00:24:00,
2013-01-26 17:25:00,35.5,30.9,29.79,South,184,0.0,3.0,83,0.01,,---,0.01,VWS V13.01,2013-01-27 00:25:00,
2013-01-26 17:26:00,35.3,30.7,29.79,South,184,0.0,2.0,83,0.01,,---,0.02,VWS V13.01,2013-01-27 00:26:00,
2013-01-26 17:27:00,35.3,30.7,29.79,South,184,0.0,2.0,83,0.02,,---,0.02,VWS V13.01,2013-01-27 00:27:00,
2013-01-26 17:28:00,35.2,30.6,29.79,South,184,0.0,2.0,83,0.02,,---,0.02,VWS V13.01,2013-01-27 00:28:00,
2013-01-26 17:29:00,35.0,30.4,29.80,South,184,0.0,2.0,83,0.02,,---,0.02,VWS V13.01,2013-01-27 00:29:00,
2013-01-26 17:30:00,35.0,30.4,29.80,South,184,0.0,2.0,83,0.02,,---,0.02,VWS V13.01,2013-01-27 00:30:00,
2013-01-26 17:31:00,34.9,30.6,29.80,South,184,0.0,0.0,84,0.02,,---,0.02,VWS V13.01,2013-01-27 00:31:00,
2013-01-26 17:32:00,34.9,30.6,29.80,South,184,0.0,0.0,84,0.02,,---,0.02,VWS V13.01,2013-01-27 00:32:00,
2013-01-26 17:33:00,34.7,30.4,29.80,South,184,0.0,0.0,84,0.02,,---,0.02,VWS V13.01,2013-01-27 00:33:00,
2013-01-26 17:34:00,34.7,30.4,29.80,South,184,0.0,0.0,84,0.02,,---,0.02,VWS V13.01,2013-01-27 00:34:00,
2013-01-26 17:35:00,34.6,30.3,29.80,South,184,0.0,0.0,84,0.02,,---,0.02,VWS V13.01,2013-01-27 00:35:00,
2013-01-26 17:36:00,34.6,30.3,29.80,South,184,0.0,0.0,84,0.02,,---,0.02,VWS V13.01,2013-01-27 00:36:00,
2013-01-26 17:37:00,34.6,30.3,29.80,South,184,0.0,0.0,84,0.02,,---,0.02,VWS V13.01,2013-01-27 00:37:00,
2013-01-26 17:38:00,34.4,30.1,29.80,South,184,0.0,0.0,84,0.02,,---,0.02,VWS V13.01,2013-01-27 00:38:00,
2013-01-26 17:39:00,34.4,30.1,29.80,South,184,0.0,0.0,84,0.02,,---,0.02,VWS V13.01,2013-01-27 00:39:00,
2013-01-26 17:40:00,34.4,30.4,29.80,South,184,0.0,0.0,85,0.02,,---,0.02,VWS V13.01,2013-01-27 00:40:00,
2013-01-26 17:41:00,34.4,30.4,29.80,South,184,0.0,0.0,85,0.02,,---,0.02,VWS V13.01,2013-01-27 00:41:00,
2013-01-26 17:42:00,34.3,30.3,29.80,South,184,0.0,0.0,85,0.02,,---,0.02,VWS V13.01,2013-01-27 00:42:00,
2013-01-26 17:43:00,34.3,30.3,29.80,South,184,0.0,0.0,85,0.02,,---,0.02,VWS V13.01,2013-01-27 00:43:00,
2013-01-26 17:44:00,34.3,30.3,29.80,South,184,0.0,0.0,85,0.02,,---,0.02,VWS V13.01,2013-01-27 00:44:00,
2013-01-26 17:45:00,34.3,30.3,29.82,South,184,0.0,0.0,85,0.02,,---,0.02,VWS V13.01,2013-01-27 00:45:00,
2013-01-26 17:46:00,34.3,30.6,29.82,South,184,0.0,0.0,86,0.02,,---,0.02,VWS V13.01,2013-01-27 00:46:00,
2013-01-26 17:47:00,34.1,30.4,29.82,South,184,0.0,0.0,86,0.02,,---,0.02,VWS V13.01,2013-01-27 00:47:00,
2013-01-26 17:48:00,34.1,30.4,29.82,South,184,0.0,0.0,86,0.02,,---,0.02,VWS V13.01,2013-01-27 00:48:00,
2013-01-26 17:49:00,34.1,30.4,29.82,South,184,0.0,0.0,86,0.02,,---,0.02,VWS V13.01,2013-01-27 00:49:00,
2013-01-26 17:50:00,34.1,30.4,29.82,South,184,0.0,0.0,86,0.02,,---,0.02,VWS V13.01,2013-01-27 00:50:00,
2013-01-26 17:51:00,34.1,30.4,29.82,South,179,4.0,4.0,86,0.02,,---,0.02,VWS V13.01,2013-01-27 00:51:00,
2013-01-26 17:52:00,34.0,30.0,29.82,ENE,59,1.0,4.0,85,0.02,,---,0.02,VWS V13.01,2013-01-27 00:52:00,
2013-01-26 17:53:00,34.0,30.0,29.82,ENE,59,0.0,4.0,85,0.02,,---,0.02,VWS V13.01,2013-01-27 00:53:00,
2013-01-26 17:54:00,34.0,29.7,29.82,ENE,59,0.0,4.0,84,0.02,,---,0.02,VWS V13.01,2013-01-27 00:54:00,
2013-01-26 17:55:00,34.0,29.7,29.82,East,94,0.0,4.0,84,0.02,,---,0.02,VWS V13.01,2013-01-27 00:55:00,
2013-01-26 17:56:00,33.8,29.5,29.82,West,259,0.0,4.0,84,0.02,,---,0.02,VWS V13.01,2013-01-27 00:56:00,
2013-01-26 17:57:00,33.8,28.9,29.82,West,261,1.0,4.0,82,0.02,,---,0.02,VWS V13.01,2013-01-27 00:57:00,
2013-01-26 17:58:00,33.7,28.8,29.82,West,259,0.0,4.0,82,0.02,,---,0.02,VWS V13.01,2013-01-27 00:58:00,
2013-01-26 17:59:00,33.7,28.8,29.83,West,259,0.0,4.0,82,0.02,,---,0.02,VWS V13.01,2013-01-27 00:59:00,
2013-01-26 18:00:00,33.7,28.8,29.83,WSW,256,0.0,4.0,82,0.02,,---,0.02,VWS V13.01,2013-01-27 01:00:00,
2013-01-26 18:01:00,33.7,28.8,29.83,NNE,17,0.0,1.0,82,0.02,,---,0.02,VWS V13.01,2013-01-27 01:01:00,
2013-01-26 18:02:00,33.5,28.3,29.83,West,277,1.0,1.0,81,0.02,,---,0.02,VWS V13.01,2013-01-27 01:02:00,
2013-01-26 18:03:00,33.5,28.3,29.83,WSW,254,3.0,5.0,81,0.02,,---,0.02,VWS V13.01,2013-01-27 01:03:00,
2013-01-26 18:04:00,33.5,28.0,29.83,WSW,240,0.0,5.0,80,0.02,,---,0.02,VWS V13.01,2013-01-27 01:04:00,
2013-01-26 18:05:00,33.5,28.0,29.83,WSW,250,1.0,5.0,80,0.02,,---,0.02,VWS V13.01,2013-01-27 01:05:00,
2013-01-26 18:06:00,33.5,28.3,29.83,WSW,251,0.0,1.0,81,0.02,,---,0.02,VWS V13.01,2013-01-27 01:06:00,
2013-01-26 18:07:00,33.5,28.3,29.83,WSW,251,0.0,1.0,81,0.02,,---,0.02,VWS V13.01,2013-01-27 01:07:00,
2013-01-26 18:08:00,33.5,28.3,29.83,WSW,251,0.0,1.0,81,0.02,,---,0.02,VWS V13.01,2013-01-27 01:08:00,
2013-01-26 18:09:00,33.5,28.3,29.83,WSW,242,1.0,2.0,81,0.02,,---,0.02,VWS V13.01,2013-01-27 01:09:00,
2013-01-26 18:10:00,33.5,28.3,29.83,WSW,242,0.0,2.0,81,0.02,,---,0.02,VWS V13.01,2013-01-27 01:10:00,
2013-01-26 18:11:00,33.5,28.3,29.83,WSW,242,0.0,0.0,81,0.02,,---,0.02,VWS V13.01,2013-01-27 01:11:00,
2013-01-26 18:12:00,33.5,28.3,29.83,WSW,242,0.0,0.0,81,0.02,,---,0.02,VWS V13.01,2013-01-27 01:12:00,
2013-01-26 18:13:00,33.5,28.6,29.83,WSW,242,0.0,0.0,82,0.02,,---,0.02,VWS V13.01,2013-01-27 01:13:00,
2013-01-26 18:14:00,33.5,28.6,29.83,WSW,242,0.0,0.0,82,0.02,,---,0.02,VWS V13.01,2013-01-27 01:14:00,
2013-01-26 18:15:00,33.5,28.6,29.83,WSW,242,0.0,0.0,82,0.02,,---,0.02,VWS V13.01,2013-01-27 01:15:00,
2013-01-26 18:16:00,33.5,28.6,29.83,WSW,242,0.0,0.0,82,0.01,,---,0.02,VWS V13.01,2013-01-27 01:16:00,
2013-01-26 18:17:00,33.5,28.6,29.83,East,93,0.0,2.0,82,0.01,,---,0.02,VWS V13.01,2013-01-27 01:17:00,
2013-01-26 18:18:00,33.4,28.8,29.83,East,94,0.0,2.0,83,0.01,,---,0.02,VWS V13.01,2013-01-27 01:18:00,
2013-01-26 18:19:00,33.4,28.8,29.83,East,94,0.0,2.0,83,0.01,,---,0.02,VWS V13.01,2013-01-27 01:19:00,
2013-01-26 18:20:00,33.4,28.8,29.83,East,94,0.0,2.0,83,0.01,,---,0.02,VWS V13.01,2013-01-27 01:20:00,
2013-01-26 18:21:00,33.4,28.8,29.83,East,93,0.0,0.0,83,0.01,,---,0.02,VWS V13.01,2013-01-27 01:21:00,
2013-01-26 18:22:00,33.4,28.8,29.83,East,94,0.0,0.0,83,0.01,,---,0.02,VWS V13.01,2013-01-27 01:22:00,
2013-01-26 18:23:00,33.4,29.1,29.83,East,94,0.0,0.0,84,0.01,,---,0.02,VWS V13.01,2013-01-27 01:23:00,
2013-01-26 18:24:00,33.4,29.1,29.83,East,94,0.0,0.0,84,0.01,,---,0.02,VWS V13.01,2013-01-27 01:24:00,
2013-01-26 18:25:00,33.2,28.9,29.83,East,94,0.0,0.0,84,0.01,,---,0.02,VWS V13.01,2013-01-27 01:25:00,
2013-01-26 18:26:00,33.2,28.9,29.83,East,94,0.0,0.0,84,0.01,,---,0.02,VWS V13.01,2013-01-27 01:26:00,
2013-01-26 18:27:00,33.2,28.9,29.83,East,94,0.0,0.0,84,0.01,,---,0.02,VWS V13.01,2013-01-27 01:27:00,
2013-01-26 18:28:00,33.2,28.9,29.83,East,94,0.0,0.0,84,0.01,,---,0.02,VWS V13.01,2013-01-27 01:28:00,
2013-01-26 18:29:00,33.2,28.9,29.85,East,94,0.0,0.0,84,0.01,,---,0.02,VWS V13.01,2013-01-27 01:29:00,
2013-01-26 18:30:00,33.2,28.9,29.85,East,94,0.0,0.0,84,0.01,,---,0.02,VWS V13.01,2013-01-27 01:30:00,
2013-01-26 18:31:00,33.1,28.8,29.85,East,94,0.0,0.0,84,0.00,,---,0.02,VWS V13.01,2013-01-27 01:31:00,
2013-01-26 18:32:00,33.1,28.8,29.85,East,93,0.0,0.0,84,0.00,,---,0.02,VWS V13.01,2013-01-27 01:32:00,
2013-01-26 18:33:00,33.1,28.8,29.85,East,94,0.0,0.0,84,0.00,,---,0.02,VWS V13.01,2013-01-27 01:33:00,
2013-01-26 18:34:00,33.1,28.8,29.85,East,94,0.0,0.0,84,0.00,,---,0.02,VWS V13.01,2013-01-27 01:34:00,
2013-01-26 18:35:00,33.1,28.8,29.85,East,94,0.0,0.0,84,0.00,,---,0.02,VWS V13.01,2013-01-27 01:35:00,
2013-01-26 18:36:00,33.1,28.8,29.85,East,94,0.0,0.0,84,0.00,,---,0.02,VWS V13.01,2013-01-27 01:36:00,
2013-01-26 18:37:00,33.1,28.8,29.85,East,94,0.0,0.0,84,0.00,,---,0.02,VWS V13.01,2013-01-27 01:37:00,
2013-01-26 18:38:00,33.1,28.8,29.85,East,94,0.0,0.0,84,0.00,,---,0.02,VWS V13.01,2013-01-27 01:38:00,
2013-01-26 18:39:00,33.1,28.8,29.85,East,94,0.0,0.0,84,0.00,,---,0.02,VWS V13.01,2013-01-27 01:39:00,
2013-01-26 18:40:00,33.1,28.8,29.85,East,94,0.0,0.0,84,0.00,,---,0.02,VWS V13.01,2013-01-27 01:40:00,
2013-01-26 18:41:00,32.9,28.6,29.85,East,94,0.0,0.0,84,0.00,,---,0.02,VWS V13.01,2013-01-27 01:41:00,
2013-01-26 18:42:00,32.9,28.3,29.85,East,94,0.0,0.0,83,0.00,,---,0.02,VWS V13.01,2013-01-27 01:42:00,
2013-01-26 18:43:00,32.9,28.3,29.85,East,94,0.0,0.0,83,0.00,,---,0.02,VWS V13.01,2013-01-27 01:43:00,
2013-01-26 18:44:00,32.9,28.3,29.84,East,94,0.0,0.0,83,0.00,,---,0.02,VWS V13.01,2013-01-27 01:44:00,
2013-01-26 18:45:00,32.9,28.3,29.84,East,94,0.0,0.0,83,0.00,,---,0.02,VWS V13.01,2013-01-27 01:45:00,
2013-01-26 18:46:00,32.9,28.3,29.84,East,94,0.0,0.0,83,0.00,,---,0.02,VWS V13.01,2013-01-27 01:46:00,
2013-01-26 18:47:00,32.9,28.3,29.84,East,94,0.0,0.0,83,0.00,,---,0.02,VWS V13.01,2013-01-27 01:47:00,
2013-01-26 18:48:00,32.9,28.0,29.84,East,94,0.0,0.0,82,0.00,,---,0.02,VWS V13.01,2013-01-27 01:48:00,
2013-01-26 18:49:00,32.9,28.0,29.84,East,94,0.0,0.0,82,0.00,,---,0.02,VWS V13.01,2013-01-27 01:49:00,
2013-01-26 18:50:00,32.9,28.0,29.84,East,94,0.0,0.0,82,0.00,,---,0.02,VWS V13.01,2013-01-27 01:50:00,
2013-01-26 18:51:00,32.9,27.7,29.84,East,94,0.0,1.0,81,0.00,,---,0.02,VWS V13.01,2013-01-27 01:51:00,
2013-01-26 18:52:00,32.9,27.7,29.84,East,94,0.0,1.0,81,0.00,,---,0.02,VWS V13.01,2013-01-27 01:52:00,
2013-01-26 18:53:00,32.9,28.0,29.84,East,94,0.0,1.0,82,0.00,,---,0.02,VWS V13.01,2013-01-27 01:53:00,
2013-01-26 18:54:00,32.9,28.0,29.84,East,94,0.0,1.0,82,0.00,,---,0.02,VWS V13.01,2013-01-27 01:54:00,
2013-01-26 18:55:00,32.9,28.0,29.84,East,94,0.0,1.0,82,0.00,,---,0.02,VWS V13.01,2013-01-27 01:55:00,
2013-01-26 18:56:00,32.9,28.0,29.84,East,94,0.0,0.0,82,0.00,,---,0.02,VWS V13.01,2013-01-27 01:56:00,
2013-01-26 18:57:00,32.9,28.0,29.84,East,94,0.0,0.0,82,0.00,,---,0.02,VWS V13.01,2013-01-27 01:57:00,
2013-01-26 18:58:00,32.9,28.0,29.84,East,94,0.0,0.0,82,0.00,,---,0.02,VWS V13.01,2013-01-27 01:58:00,
2013-01-26 18:59:00,32.9,28.0,29.84,East,94,0.0,0.0,82,0.00,,---,0.02,VWS V13.01,2013-01-27 01:59:00,
2013-01-26 19:00:00,32.9,28.0,29.84,East,94,0.0,0.0,82,0.00,,---,0.02,VWS V13.01,2013-01-27 02:00:00,
2013-01-26 19:01:00,32.9,28.0,29.84,East,94,0.0,0.0,82,0.00,,---,0.02,VWS V13.01,2013-01-27 02:01:00,
2013-01-26 19:02:00,32.9,28.0,29.84,East,94,0.0,0.0,82,0.00,,---,0.02,VWS V13.01,2013-01-27 02:02:00,
2013-01-26 19:03:00,32.9,28.0,29.84,East,94,0.0,0.0,82,0.00,,---,0.02,VWS V13.01,2013-01-27 02:03:00,
2013-01-26 19:04:00,32.9,28.0,29.84,East,94,0.0,0.0,82,0.00,,---,0.02,VWS V13.01,2013-01-27 02:04:00,
2013-01-26 19:05:00,32.9,28.3,29.84,East,94,0.0,0.0,83,0.00,,---,0.02,VWS V13.01,2013-01-27 02:05:00,
2013-01-26 19:06:00,32.8,28.2,29.84,East,94,0.0,0.0,83,0.00,,---,0.02,VWS V13.01,2013-01-27 02:06:00,
2013-01-26 19:07:00,32.8,28.2,29.84,East,94,0.0,0.0,83,0.00,,---,0.02,VWS V13.01,2013-01-27 02:07:00,
2013-01-26 19:08:00,32.8,28.2,29.84,East,94,0.0,0.0,83,0.00,,---,0.02,VWS V13.01,2013-01-27 02:08:00,
2013-01-26 19:09:00,32.8,28.2,29.84,East,94,0.0,0.0,83,0.00,,---,0.02,VWS V13.01,2013-01-27 02:09:00,
2013-01-26 19:10:00,32.8,28.5,29.84,East,94,0.0,0.0,84,0.00,,---,0.02,VWS V13.01,2013-01-27 02:10:00,
2013-01-26 19:11:00,32.8,28.2,29.84,East,94,0.0,0.0,83,0.00,,---,0.02,VWS V13.01,2013-01-27 02:11:00,
2013-01-26 19:12:00,32.8,28.2,29.84,East,94,0.0,0.0,83,0.00,,---,0.02,VWS V13.01,2013-01-27 02:12:00,
2013-01-26 19:13:00,32.8,28.2,29.84,East,94,0.0,0.0,83,0.00,,---,0.02,VWS V13.01,2013-01-27 02:13:00,
2013-01-26 19:14:00,32.8,28.2,29.85,East,94,0.0,0.0,83,0.00,,---,0.02,VWS V13.01,2013-01-27 02:14:00,
2013-01-26 19:15:00,32.8,28.2,29.85,East,94,0.0,0.0,83,0.00,,---,0.02,VWS V13.01,2013-01-27 02:15:00,
2013-01-26 19:16:00,32.8,28.2,29.85,East,94,0.0,0.0,83,0.00,,---,0.02,VWS V13.01,2013-01-27 02:16:00,
2013-01-26 19:17:00,32.8,28.2,29.85,East,94,0.0,0.0,83,0.00,,---,0.02,VWS V13.01,2013-01-27 02:17:00,
2013-01-26 19:18:00,32.7,28.4,29.85,East,94,0.0,0.0,84,0.00,,---,0.02,VWS V13.01,2013-01-27 02:18:00,
2013-01-26 19:19:00,32.7,28.4,29.85,East,94,0.0,0.0,84,0.00,,---,0.02,VWS V13.01,2013-01-27 02:19:00,
2013-01-26 19:20:00,32.7,28.1,29.85,East,94,0.0,0.0,83,0.00,,---,0.02,VWS V13.01,2013-01-27 02:20:00,
2013-01-26 19:21:00,32.7,28.1,29.85,East,94,0.0,1.0,83,0.00,,---,0.02,VWS V13.01,2013-01-27 02:21:00,
2013-01-26 19:22:00,32.8,28.2,29.85,East,94,0.0,1.0,83,0.00,,---,0.02,VWS V13.01,2013-01-27 02:22:00,
2013-01-26 19:23:00,32.8,28.2,29.85,East,94,0.0,1.0,83,0.00,,---,0.02,VWS V13.01,2013-01-27 02:23:00,
2013-01-26 19:24:00,32.8,28.2,29.85,East,94,0.0,1.0,83,0.00,,---,0.02,VWS V13.01,2013-01-27 02:24:00,
2013-01-26 19:25:00,32.8,28.2,29.85,East,94,0.0,1.0,83,0.00,,---,0.02,VWS V13.01,2013-01-27 02:25:00,
2013-01-26 19:26:00,32.8,28.2,29.85,East,94,0.0,0.0,83,0.00,,---,0.02,VWS V13.01,2013-01-27 02:26:00,
2013-01-26 19:27:00,32.8,28.2,29.85,East,94,0.0,0.0,83,0.00,,---,0.02,VWS V13.01,2013-01-27 02:27:00,
2013-01-26 19:28:00,32.8,28.2,29.85,East,94,0.0,1.0,83,0.00,,---,0.02,VWS V13.01,2013-01-27 02:28:00,
2013-01-26 19:29:00,32.8,28.2,29.84,East,94,0.0,1.0,83,0.00,,---,0.02,VWS V13.01,2013-01-27 02:29:00,
2013-01-26 19:30:00,32.8,27.9,29.84,East,94,0.0,1.0,82,0.00,,---,0.02,VWS V13.01,2013-01-27 02:30:00,
2013-01-26 19:31:00,32.8,27.9,29.84,East,94,0.0,0.0,82,0.00,,---,0.02,VWS V13.01,2013-01-27 02:31:00,
2013-01-26 19:32:00,32.8,28.2,29.84,East,94,0.0,0.0,83,0.00,,---,0.02,VWS V13.01,2013-01-27 02:32:00,
2013-01-26 19:33:00,32.8,28.2,29.84,East,94,0.0,0.0,83,0.00,,---,0.02,VWS V13.01,2013-01-27 02:33:00,
2013-01-26 19:34:00,32.8,28.2,29.84,East,94,0.0,0.0,83,0.00,,---,0.02,VWS V13.01,2013-01-27 02:34:00,
2013-01-26 19:35:00,32.8,28.2,29.84,East,94,0.0,0.0,83,0.00,,---,0.02,VWS V13.01,2013-01-27 02:35:00,
2013-01-26 19:36:00,32.8,28.2,29.84,East,94,0.0,0.0,83,0.00,,---,0.02,VWS V13.01,2013-01-27 02:36:00,
2013-01-26 19:37:00,32.8,28.2,29.84,East,94,0.0,0.0,83,0.00,,---,0.02,VWS V13.01,2013-01-27 02:37:00,
2013-01-26 19:38:00,32.8,28.2,29.84,East,94,0.0,0.0,83,0.00,,---,0.02,VWS V13.01,2013-01-27 02:38:00,
2013-01-26 19:39:00,32.8,28.2,29.84,East,94,0.0,0.0,83,0.00,,---,0.02,VWS V13.01,2013-01-27 02:39:00,
2013-01-26 19:40:00,32.8,28.2,29.84,East,94,0.0,0.0,83,0.00,,---,0.02,VWS V13.01,2013-01-27 02:40:00,
2013-01-26 19:41:00,32.8,28.5,29.84,East,94,0.0,0.0,84,0.00,,---,0.02,VWS V13.01,2013-01-27 02:41:00,
2013-01-26 19:42:00,32.8,28.5,29.84,East,94,0.0,0.0,84,0.00,,---,0.02,VWS V13.01,2013-01-27 02:42:00,
2013-01-26 19:43:00,32.7,28.4,29.84,East,94,0.0,0.0,84,0.00,,---,0.02,VWS V13.01,2013-01-27 02:43:00,
2013-01-26 19:44:00,32.7,28.4,29.84,East,94,0.0,0.0,84,0.00,,---,0.02,VWS V13.01,2013-01-27 02:44:00,
2013-01-26 19:45:00,32.7,28.4,29.84,East,94,0.0,0.0,84,0.00,,---,0.02,VWS V13.01,2013-01-27 02:45:00,
2013-01-26 19:46:00,32.7,28.4,29.84,East,94,0.0,0.0,84,0.00,,---,0.02,VWS V13.01,2013-01-27 02:46:00,
2013-01-26 19:47:00,32.7,28.4,29.84,East,94,0.0,0.0,84,0.00,,---,0.02,VWS V13.01,2013-01-27 02:47:00,
2013-01-26 19:48:00,32.7,28.4,29.84,East,94,0.0,0.0,84,0.00,,---,0.02,VWS V13.01,2013-01-27 02:48:00,
2013-01-26 19:49:00,32.7,28.4,29.84,East,94,0.0,0.0,84,0.00,,---,0.02,VWS V13.01,2013-01-27 02:49:00,
2013-01-26 19:50:00,32.7,28.4,29.84,East,94,0.0,0.0,84,0.00,,---,0.02,VWS V13.01,2013-01-27 02:50:00,
2013-01-26 19:52:00,32.7,28.4,29.84,East,94,0.0,0.0,84,0.00,,---,0.02,VWS V13.01,2013-01-27 02:52:00,
2013-01-26 19:53:00,32.7,28.4,29.84,East,94,0.0,0.0,84,0.00,,---,0.02,VWS V13.01,2013-01-27 02:53:00,
2013-01-26 19:54:00,32.7,28.4,29.84,East,94,0.0,0.0,84,0.00,,---,0.02,VWS V13.01,2013-01-27 02:54:00,
2013-01-26 19:55:00,32.5,28.2,29.84,East,94,0.0,0.0,84,0.00,,---,0.02,VWS V13.01,2013-01-27 02:55:00,
2013-01-26 19:56:00,32.5,28.2,29.84,East,94,0.0,0.0,84,0.00,,---,0.02,VWS V13.01,2013-01-27 02:56:00,
2013-01-26 19:57:00,32.5,28.2,29.84,East,94,0.0,0.0,84,0.00,,---,0.02,VWS V13.01,2013-01-27 02:57:00,
2013-01-26 19:58:00,32.5,28.2,29.84,East,94,0.0,0.0,84,0.00,,---,0.02,VWS V13.01,2013-01-27 02:58:00,
2013-01-26 19:59:00,32.5,28.2,29.83,East,94,0.0,0.0,84,0.00,,---,0.02,VWS V13.01,2013-01-27 02:59:00,
2013-01-26 20:00:00,32.5,28.2,29.83,East,94,0.0,0.0,84,0.00,,---,0.02,VWS V13.01,2013-01-27 03:00:00,
2013-01-26 20:01:00,32.5,28.2,29.83,East,94,0.0,0.0,84,0.00,,---,0.02,VWS V13.01,2013-01-27 03:01:00,
2013-01-26 20:02:00,32.5,28.2,29.83,East,94,0.0,0.0,84,0.00,,---,0.02,VWS V13.01,2013-01-27 03:02:00,
2013-01-26 20:03:00,32.5,28.2,29.83,East,94,0.0,0.0,84,0.00,,---,0.02,VWS V13.01,2013-01-27 03:03:00,
2013-01-26 20:04:00,32.5,28.2,29.83,East,94,0.0,0.0,84,0.00,,---,0.02,VWS V13.01,2013-01-27 03:04:00,
2013-01-26 20:05:00,32.5,28.2,29.83,East,94,0.0,0.0,84,0.00,,---,0.02,VWS V13.01,2013-01-27 03:05:00,
2013-01-26 20:06:00,32.5,28.2,29.83,East,94,0.0,0.0,84,0.00,,---,0.02,VWS V13.01,2013-01-27 03:06:00,
2013-01-26 20:07:00,32.5,28.2,29.83,East,94,0.0,0.0,84,0.00,,---,0.02,VWS V13.01,2013-01-27 03:07:00,
2013-01-26 20:08:00,32.5,28.2,29.83,East,94,0.0,0.0,84,0.00,,---,0.02,VWS V13.01,2013-01-27 03:08:00,
2013-01-26 20:09:00,32.5,28.2,29.83,East,94,0.0,0.0,84,0.00,,---,0.02,VWS V13.01,2013-01-27 03:09:00,
2013-01-26 20:10:00,32.5,28.2,29.83,ENE,67,2.0,2.0,84,0.00,,---,0.02,VWS V13.01,2013-01-27 03:10:00,
2013-01-26 20:11:00,32.5,27.9,29.83,ENE,67,0.0,2.0,83,0.00,,---,0.02,VWS V13.01,2013-01-27 03:11:00,
2013-01-26 20:12:00,32.5,27.9,29.83,ENE,67,0.0,2.0,83,0.00,,---,0.02,VWS V13.01,2013-01-27 03:12:00,
2013-01-26 20:13:00,32.5,27.9,29.83,ENE,67,0.0,2.0,83,0.00,,---,0.02,VWS V13.01,2013-01-27 03:13:00,
2013-01-26 20:14:00,32.5,27.9,29.83,ENE,67,0.0,2.0,83,0.00,,---,0.02,VWS V13.01,2013-01-27 03:14:00,
2013-01-26 20:15:00,32.5,27.9,29.83,ENE,67,0.0,2.0,83,0.00,,---,0.02,VWS V13.01,2013-01-27 03:15:00,
2013-01-26 20:16:00,32.5,27.9,29.83,ENE,67,0.0,0.0,83,0.00,,---,0.02,VWS V13.01,2013-01-27 03:16:00,
2013-01-26 20:17:00,32.5,27.9,29.83,ENE,67,0.0,0.0,83,0.00,,---,0.02,VWS V13.01,2013-01-27 03:17:00,
2013-01-26 20:18:00,32.5,28.2,29.83,ENE,67,0.0,0.0,84,0.00,,---,0.02,VWS V13.01,2013-01-27 03:18:00,
2013-01-26 20:19:00,32.5,27.9,29.83,ENE,67,0.0,0.0,83,0.00,,---,0.02,VWS V13.01,2013-01-27 03:19:00,
2013-01-26 20:20:00,32.5,27.9,29.83,ENE,67,0.0,0.0,83,0.00,,---,0.02,VWS V13.01,2013-01-27 03:20:00,
2013-01-26 20:21:00,32.5,27.9,29.83,ENE,67,0.0,0.0,83,0.00,,---,0.02,VWS V13.01,2013-01-27 03:21:00,
2013-01-26 20:22:00,32.5,27.9,29.83,ENE,67,0.0,0.0,83,0.00,,---,0.02,VWS V13.01,2013-01-27 03:22:00,
2013-01-26 20:23:00,32.5,27.9,29.83,ENE,67,0.0,0.0,83,0.00,,---,0.02,VWS V13.01,2013-01-27 03:23:00,
2013-01-26 20:24:00,32.4,27.5,29.83,ENE,67,0.0,0.0,82,0.00,,---,0.02,VWS V13.01,2013-01-27 03:24:00,
2013-01-26 20:25:00,32.4,27.5,29.83,ENE,67,0.0,0.0,82,0.00,,---,0.02,VWS V13.01,2013-01-27 03:25:00,
2013-01-26 20:26:00,32.4,27.2,29.83,ENE,67,0.0,0.0,81,0.00,,---,0.02,VWS V13.01,2013-01-27 03:26:00,
2013-01-26 20:27:00,32.4,27.2,29.83,ENE,67,0.0,0.0,81,0.00,,---,0.02,VWS V13.01,2013-01-27 03:27:00,
2013-01-26 20:28:00,32.4,27.2,29.83,ENE,67,0.0,0.0,81,0.00,,---,0.02,VWS V13.01,2013-01-27 03:28:00,
2013-01-26 20:29:00,32.4,26.9,29.83,ENE,67,0.0,0.0,80,0.00,,---,0.02,VWS V13.01,2013-01-27 03:29:00,
2013-01-26 20:30:00,32.4,26.9,29.83,ENE,67,0.0,0.0,80,0.00,,---,0.02,VWS V13.01,2013-01-27 03:30:00,
2013-01-26 20:31:00,32.5,27.3,29.83,ENE,67,0.0,0.0,81,0.00,,---,0.02,VWS V13.01,2013-01-27 03:31:00,
2013-01-26 20:32:00,32.5,27.3,29.83,ENE,67,0.0,0.0,81,0.00,,---,0.02,VWS V13.01,2013-01-27 03:32:00,
2013-01-26 20:33:00,32.5,27.3,29.83,ENE,67,0.0,0.0,81,0.00,,---,0.02,VWS V13.01,2013-01-27 03:33:00,
2013-01-26 20:34:00,32.5,27.3,29.83,ENE,67,0.0,0.0,81,0.00,,---,0.02,VWS V13.01,2013-01-27 03:34:00,
2013-01-26 20:35:00,32.5,27.3,29.83,ENE,67,0.0,0.0,81,0.00,,---,0.02,VWS V13.01,2013-01-27 03:35:00,
2013-01-26 20:36:00,32.5,27.6,29.83,East,82,0.0,2.0,82,0.00,,---,0.02,VWS V13.01,2013-01-27 03:36:00,
2013-01-26 20:37:00,32.5,27.6,29.83,East,82,0.0,2.0,82,0.00,,---,0.02,VWS V13.01,2013-01-27 03:37:00,
2013-01-26 20:38:00,32.5,27.6,29.83,East,82,0.0,2.0,82,0.00,,---,0.02,VWS V13.01,2013-01-27 03:38:00,
2013-01-26 20:39:00,32.5,27.6,29.83,East,82,0.0,2.0,82,0.00,,---,0.02,VWS V13.01,2013-01-27 03:39:00,
2013-01-26 20:40:00,32.5,27.6,29.83,East,82,0.0,2.0,82,0.00,,---,0.02,VWS V13.01,2013-01-27 03:40:00,
2013-01-26 20:41:00,32.5,27.6,29.83,East,82,0.0,0.0,82,0.00,,---,0.02,VWS V13.01,2013-01-27 03:41:00,
2013-01-26 20:42:00,32.5,27.6,29.83,East,82,0.0,0.0,82,0.00,,---,0.02,VWS V13.01,2013-01-27 03:42:00,
2013-01-26 20:43:00,32.5,27.9,29.83,East,82,0.0,0.0,83,0.00,,---,0.02,VWS V13.01,2013-01-27 03:43:00,
2013-01-26 20:44:00,32.5,27.9,29.85,East,82,0.0,0.0,83,0.00,,---,0.02,VWS V13.01,2013-01-27 03:44:00,
2013-01-26 20:45:00,32.5,27.9,29.85,East,82,0.0,0.0,83,0.00,,---,0.02,VWS V13.01,2013-01-27 03:45:00,
2013-01-26 20:46:00,32.5,27.9,29.85,East,82,0.0,0.0,83,0.00,,---,0.02,VWS V13.01,2013-01-27 03:46:00,
2013-01-26 20:47:00,32.5,27.9,29.85,East,82,0.0,0.0,83,0.00,,---,0.02,VWS V13.01,2013-01-27 03:47:00,
2013-01-26 20:48:00,32.5,27.9,29.85,East,82,0.0,0.0,83,0.00,,---,0.02,VWS V13.01,2013-01-27 03:48:00,
2013-01-26 20:49:00,32.5,27.9,29.85,East,82,0.0,0.0,83,0.00,,---,0.02,VWS V13.01,2013-01-27 03:49:00,
2013-01-26 20:50:00,32.5,27.9,29.85,East,82,0.0,0.0,83,0.00,,---,0.02,VWS V13.01,2013-01-27 03:50:00,
2013-01-26 20:51:00,32.5,27.9,29.85,East,82,0.0,0.0,83,0.00,,---,0.02,VWS V13.01,2013-01-27 03:51:00,
2013-01-26 20:52:00,32.5,27.9,29.85,East,82,0.0,0.0,83,0.00,,---,0.02,VWS V13.01,2013-01-27 03:52:00,
2013-01-26 20:53:00,32.5,27.9,29.85,East,82,0.0,0.0,83,0.00,,---,0.02,VWS V13.01,2013-01-27 03:53:00,
2013-01-26 20:54:00,32.5,27.9,29.85,East,82,0.0,0.0,83,0.00,,---,0.02,VWS V13.01,2013-01-27 03:54:00,
2013-01-26 20:55:00,32.5,27.9,29.85,East,82,0.0,0.0,83,0.00,,---,0.02,VWS V13.01,2013-01-27 03:55:00,
2013-01-26 20:56:00,32.5,27.9,29.85,East,82,0.0,0.0,83,0.00,,---,0.02,VWS V13.01,2013-01-27 03:56:00,
2013-01-26 20:57:00,32.5,27.9,29.85,East,82,0.0,0.0,83,0.00,,---,0.02,VWS V13.01,2013-01-27 03:57:00,
2013-01-26 20:58:00,32.5,27.9,29.85,East,82,0.0,0.0,83,0.00,,---,0.02,VWS V13.01,2013-01-27 03:58:00,
2013-01-26 20:59:00,32.5,27.9,29.85,East,82,0.0,0.0,83,0.00,,---,0.02,VWS V13.01,2013-01-27 03:59:00,
2013-01-26 21:00:00,32.5,27.9,29.85,East,82,0.0,0.0,83,0.00,,---,0.02,VWS V13.01,2013-01-27 04:00:00,
2013-01-26 21:01:00,32.5,27.9,29.85,East,82,0.0,0.0,83,0.00,,---,0.02,VWS V13.01,2013-01-27 04:01:00,
2013-01-26 21:02:00,32.5,27.9,29.85,East,82,0.0,0.0,83,0.00,,---,0.02,VWS V13.01,2013-01-27 04:02:00,
2013-01-26 21:03:00,32.5,27.9,29.85,East,82,0.0,0.0,83,0.00,,---,0.02,VWS V13.01,2013-01-27 04:03:00,
2013-01-26 21:04:00,32.5,27.9,29.85,East,82,0.0,0.0,83,0.00,,---,0.02,VWS V13.01,2013-01-27 04:04:00,
2013-01-26 21:05:00,32.5,27.9,29.85,East,82,0.0,0.0,83,0.00,,---,0.02,VWS V13.01,2013-01-27 04:05:00,
2013-01-26 21:06:00,32.4,27.8,29.85,East,82,0.0,0.0,83,0.00,,---,0.02,VWS V13.01,2013-01-27 04:06:00,
2013-01-26 21:07:00,32.4,28.1,29.85,East,82,0.0,0.0,84,0.00,,---,0.02,VWS V13.01,2013-01-27 04:07:00,
2013-01-26 21:08:00,32.4,28.1,29.85,East,82,0.0,1.0,84,0.00,,---,0.02,VWS V13.01,2013-01-27 04:08:00,
2013-01-26 21:09:00,32.4,28.1,29.85,ENE,74,0.0,1.0,84,0.00,,---,0.02,VWS V13.01,2013-01-27 04:09:00,
2013-01-26 21:10:00,32.4,28.1,29.85,ENE,74,0.0,1.0,84,0.00,,---,0.02,VWS V13.01,2013-01-27 04:10:00,
2013-01-26 21:11:00,32.4,28.1,29.85,ENE,74,0.0,0.0,84,0.00,,---,0.02,VWS V13.01,2013-01-27 04:11:00,
2013-01-26 21:12:00,32.4,28.1,29.85,North,355,1.0,1.0,84,0.00,,---,0.02,VWS V13.01,2013-01-27 04:12:00,
2013-01-26 21:13:00,32.4,28.1,29.85,North,355,0.0,1.0,84,0.00,,---,0.02,VWS V13.01,2013-01-27 04:13:00,
2013-01-26 21:14:00,32.4,28.1,29.83,North,355,0.0,1.0,84,0.00,,---,0.02,VWS V13.01,2013-01-27 04:14:00,
2013-01-26 21:15:00,32.4,28.1,29.83,North,355,0.0,1.0,84,0.00,,---,0.02,VWS V13.01,2013-01-27 04:15:00,
2013-01-26 21:16:00,32.2,27.9,29.83,North,355,0.0,0.0,84,0.00,,---,0.02,VWS V13.01,2013-01-27 04:16:00,
2013-01-26 21:17:00,32.2,27.9,29.83,North,355,0.0,0.0,84,0.00,,---,0.02,VWS V13.01,2013-01-27 04:17:00,
2013-01-26 21:18:00,32.2,27.9,29.83,North,355,0.0,0.0,84,0.00,,---,0.02,VWS V13.01,2013-01-27 04:18:00,
2013-01-26 21:19:00,32.2,27.9,29.83,North,355,0.0,0.0,84,0.00,,---,0.02,VWS V13.01,2013-01-27 04:19:00,
2013-01-26 21:20:00,32.2,27.9,29.83,North,355,0.0,1.0,84,0.00,,---,0.02,VWS V13.01,2013-01-27 04:20:00,
2013-01-26 21:21:00,32.2,27.9,29.83,North,355,0.0,0.0,84,0.00,,---,0.02,VWS V13.01,2013-01-27 04:21:00,
2013-01-26 21:22:00,32.2,27.9,29.83,North,355,0.0,0.0,84,0.00,,---,0.02,VWS V13.01,2013-01-27 04:22:00,
2013-01-26 21:23:00,32.2,27.9,29.83,North,355,0.0,0.0,84,0.00,,---,0.02,VWS V13.01,2013-01-27 04:23:00,
2013-01-26 21:24:00,32.1,28.1,29.83,North,355,0.0,0.0,85,0.00,,---,0.02,VWS V13.01,2013-01-27 04:24:00,
2013-01-26 21:25:00,32.1,28.1,29.83,North,355,0.0,0.0,85,0.00,,---,0.02,VWS V13.01,2013-01-27 04:25:00,
2013-01-26 21:26:00,32.1,28.1,29.83,North,355,0.0,0.0,85,0.00,,---,0.02,VWS V13.01,2013-01-27 04:26:00,
2013-01-26 21:27:00,32.1,28.1,29.83,North,355,0.0,0.0,85,0.00,,---,0.02,VWS V13.01,2013-01-27 04:27:00,
2013-01-26 21:28:00,32.1,28.1,29.83,North,351,0.0,0.0,85,0.00,,---,0.02,VWS V13.01,2013-01-27 04:28:00,
2013-01-26 21:29:00,32.1,28.1,29.84,NNE,21,0.0,3.0,85,0.00,,---,0.02,VWS V13.01,2013-01-27 04:29:00,
2013-01-26 21:30:00,31.9,27.9,29.84,NNE,21,0.0,3.0,85,0.00,,---,0.02,VWS V13.01,2013-01-27 04:30:00,
2013-01-26 21:31:00,31.9,27.9,29.84,NE,40,0.0,0.0,85,0.00,,---,0.02,VWS V13.01,2013-01-27 04:31:00,
2013-01-26 21:32:00,31.9,27.9,29.84,NE,44,0.0,1.0,85,0.00,,---,0.02,VWS V13.01,2013-01-27 04:32:00,
2013-01-26 21:33:00,31.9,27.9,29.84,NE,44,0.0,1.0,85,0.00,,---,0.02,VWS V13.01,2013-01-27 04:33:00,
2013-01-26 21:34:00,31.9,27.9,29.84,NE,44,0.0,1.0,85,0.00,,---,0.02,VWS V13.01,2013-01-27 04:34:00,
2013-01-26 21:35:00,31.9,27.9,29.84,NE,44,0.0,1.0,85,0.00,,---,0.02,VWS V13.01,2013-01-27 04:35:00,
2013-01-26 21:36:00,31.8,27.8,29.84,North,355,0.0,3.0,85,0.00,,---,0.02,VWS V13.01,2013-01-27 04:36:00,
2013-01-26 21:37:00,31.8,27.8,29.84,North,355,0.0,3.0,85,0.00,,---,0.02,VWS V13.01,2013-01-27 04:37:00,
2013-01-26 21:38:00,31.8,27.8,29.84,ESE,121,0.0,3.0,85,0.00,,---,0.02,VWS V13.01,2013-01-27 04:38:00,
2013-01-26 21:39:00,31.8,27.8,29.84,NNE,32,1.0,3.0,85,0.00,,---,0.02,VWS V13.01,2013-01-27 04:39:00,
2013-01-26 21:40:00,31.8,27.8,29.84,NW,311,1.0,3.0,85,0.00,,---,0.02,VWS V13.01,2013-01-27 04:40:00,
2013-01-26 21:41:00,31.8,27.8,29.84,NNE,16,0.0,2.0,85,0.00,,---,0.02,VWS V13.01,2013-01-27 04:41:00,
2013-01-26 21:43:00,31.6,27.9,29.84,NE,44,0.0,2.0,86,0.00,,---,0.02,VWS V13.01,2013-01-27 04:43:00,
2013-01-26 21:44:00,31.6,27.9,29.84,NE,44,1.0,2.0,86,0.00,,---,0.02,VWS V13.01,2013-01-27 04:44:00,
2013-01-26 21:45:00,31.6,27.9,29.84,NE,42,2.0,3.0,86,0.00,,---,0.02,VWS V13.01,2013-01-27 04:45:00,
2013-01-26 21:46:00,31.6,27.9,29.84,East,80,0.0,2.0,86,0.00,,---,0.02,VWS V13.01,2013-01-27 04:46:00,
2013-01-26 21:47:00,31.5,27.8,29.84,NE,48,0.0,2.0,86,0.00,,---,0.02,VWS V13.01,2013-01-27 04:47:00,
2013-01-26 21:48:00,31.5,27.8,29.84,NE,48,0.0,2.0,86,0.00,,---,0.02,VWS V13.01,2013-01-27 04:48:00,
2013-01-26 21:49:00,31.5,27.8,29.84,NE,46,0.0,2.0,86,0.00,,---,0.02,VWS V13.01,2013-01-27 04:49:00,
2013-01-26 21:50:00,31.5,27.8,29.84,NE,46,0.0,2.0,86,0.00,,---,0.02,VWS V13.01,2013-01-27 04:50:00,
2013-01-26 21:51:00,31.3,27.6,29.84,NE,46,0.0,0.0,86,0.00,,---,0.02,VWS V13.01,2013-01-27 04:51:00,
2013-01-26 21:52:00,31.3,27.6,29.84,North,5,0.0,1.0,86,0.00,,---,0.02,VWS V13.01,2013-01-27 04:52:00,
2013-01-26 21:53:00,31.3,27.6,29.84,North,5,0.0,1.0,86,0.00,,---,0.02,VWS V13.01,2013-01-27 04:53:00,
2013-01-26 21:54:00,31.3,27.6,29.84,North,5,0.0,1.0,86,0.00,,---,0.02,VWS V13.01,2013-01-27 04:54:00,
2013-01-26 21:55:00,31.3,27.6,29.84,NNE,33,0.0,1.0,86,0.00,,---,0.02,VWS V13.01,2013-01-27 04:55:00,
2013-01-26 21:56:00,31.2,27.5,29.84,NNE,27,0.0,1.0,86,0.00,,---,0.02,VWS V13.01,2013-01-27 04:56:00,
2013-01-26 21:57:00,31.2,27.5,29.84,NNE,27,0.0,1.0,86,0.00,,---,0.02,VWS V13.01,2013-01-27 04:57:00,
2013-01-26 21:58:00,31.2,27.5,29.84,NNE,27,0.0,1.0,86,0.00,,---,0.02,VWS V13.01,2013-01-27 04:58:00,
2013-01-26 21:59:00,31.2,27.5,29.84,NNE,27,0.0,1.0,86,0.00,,---,0.02,VWS V13.01,2013-01-27 04:59:00,
2013-01-26 22:00:00,31.2,27.5,29.84,NNE,27,0.0,1.0,86,0.00,,---,0.02,VWS V13.01,2013-01-27 05:00:00,
2013-01-26 22:01:00,31.0,27.3,29.84,North,5,0.0,1.0,86,0.00,,---,0.02,VWS V13.01,2013-01-27 05:01:00,
2013-01-26 22:02:00,31.0,27.3,29.84,North,5,0.0,1.0,86,0.00,,---,0.02,VWS V13.01,2013-01-27 05:02:00,
2013-01-26 22:03:00,31.0,27.3,29.84,North,5,0.0,1.0,86,0.00,,---,0.02,VWS V13.01,2013-01-27 05:03:00,
2013-01-26 22:04:00,31.0,27.3,29.84,North,5,0.0,1.0,86,0.00,,---,0.02,VWS V13.01,2013-01-27 05:04:00,
2013-01-26 22:05:00,31.0,27.3,29.84,North,5,0.0,1.0,86,0.00,,---,0.02,VWS V13.01,2013-01-27 05:05:00,
2013-01-26 22:06:00,30.9,27.2,29.84,North,5,0.0,0.0,86,0.00,,---,0.02,VWS V13.01,2013-01-27 05:06:00,
2013-01-26 22:07:00,30.9,27.2,29.84,North,5,0.0,0.0,86,0.00,,---,0.02,VWS V13.01,2013-01-27 05:07:00,
2013-01-26 22:08:00,30.9,27.2,29.84,North,5,0.0,0.0,86,0.00,,---,0.02,VWS V13.01,2013-01-27 05:08:00,
2013-01-26 22:09:00,30.9,27.2,29.84,North,5,0.0,0.0,86,0.00,,---,0.02,VWS V13.01,2013-01-27 05:09:00,
2013-01-26 22:10:00,30.9,27.2,29.84,North,5,0.0,0.0,86,0.00,,---,0.02,VWS V13.01,2013-01-27 05:10:00,
2013-01-26 22:11:00,30.7,27.0,29.84,North,5,0.0,0.0,86,0.00,,---,0.02,VWS V13.01,2013-01-27 05:11:00,
2013-01-26 22:12:00,30.7,27.0,29.84,North,5,0.0,0.0,86,0.00,,---,0.02,VWS V13.01,2013-01-27 05:12:00,
2013-01-26 22:13:00,30.7,27.0,29.84,North,5,0.0,0.0,86,0.00,,---,0.02,VWS V13.01,2013-01-27 05:13:00,
2013-01-26 22:14:00,30.7,27.0,29.83,North,5,0.0,0.0,86,0.00,,---,0.02,VWS V13.01,2013-01-27 05:14:00,
2013-01-26 22:15:00,30.7,27.0,29.83,North,5,0.0,0.0,86,0.00,,---,0.02,VWS V13.01,2013-01-27 05:15:00,
2013-01-26 22:16:00,30.7,27.0,29.83,North,5,0.0,0.0,86,0.00,,---,0.02,VWS V13.01,2013-01-27 05:16:00,
2013-01-26 22:17:00,30.7,27.0,29.83,North,5,0.0,0.0,86,0.00,,---,0.02,VWS V13.01,2013-01-27 05:17:00,
2013-01-26 22:18:00,30.7,27.0,29.83,North,5,0.0,0.0,86,0.00,,---,0.02,VWS V13.01,2013-01-27 05:18:00,
2013-01-26 22:19:00,30.7,27.0,29.83,North,5,0.0,0.0,86,0.00,,---,0.02,VWS V13.01,2013-01-27 05:19:00,
2013-01-26 22:20:00,30.7,27.0,29.83,North,5,0.0,0.0,86,0.00,,---,0.02,VWS V13.01,2013-01-27 05:20:00,
2013-01-26 22:21:00,30.6,26.9,29.83,North,5,0.0,0.0,86,0.00,,---,0.02,VWS V13.01,2013-01-27 05:21:00,
2013-01-26 22:22:00,30.6,26.9,29.83,North,5,0.0,0.0,86,0.00,,---,0.02,VWS V13.01,2013-01-27 05:22:00,
2013-01-26 22:23:00,30.6,26.9,29.83,North,5,0.0,0.0,86,0.00,,---,0.02,VWS V13.01,2013-01-27 05:23:00,
2013-01-26 22:24:00,30.6,26.9,29.83,North,5,0.0,0.0,86,0.00,,---,0.02,VWS V13.01,2013-01-27 05:24:00,
2013-01-26 22:25:00,30.6,26.9,29.83,North,5,0.0,0.0,86,0.00,,---,0.02,VWS V13.01,2013-01-27 05:25:00,
2013-01-26 22:26:00,30.6,26.9,29.83,North,5,0.0,0.0,86,0.00,,---,0.02,VWS V13.01,2013-01-27 05:26:00,
2013-01-26 22:27:00,30.6,26.9,29.83,North,5,0.0,0.0,86,0.00,,---,0.02,VWS V13.01,2013-01-27 05:27:00,
2013-01-26 22:28:00,30.6,26.9,29.83,North,5,0.0,0.0,86,0.00,,---,0.02,VWS V13.01,2013-01-27 05:28:00,
2013-01-26 22:29:00,30.6,26.9,29.83,North,5,0.0,0.0,86,0.00,,---,0.02,VWS V13.01,2013-01-27 05:29:00,
2013-01-26 22:30:00,30.6,26.9,29.83,North,5,0.0,0.0,86,0.00,,---,0.02,VWS V13.01,2013-01-27 05:30:00,
2013-01-26 22:31:00,30.6,26.9,29.83,North,5,0.0,0.0,86,0.00,,---,0.02,VWS V13.01,2013-01-27 05:31:00,
2013-01-26 22:32:00,30.4,26.4,29.83,NE,53,0.0,0.0,85,0.00,,---,0.02,VWS V13.01,2013-01-27 05:32:00,
2013-01-26 22:33:00,30.4,26.4,29.83,NE,55,0.0,1.0,85,0.00,,---,0.02,VWS V13.01,2013-01-27 05:33:00,
2013-01-26 22:34:00,30.4,26.4,29.83,NE,55,0.0,1.0,85,0.00,,---,0.02,VWS V13.01,2013-01-27 05:34:00,
2013-01-26 22:35:00,30.4,26.4,29.83,NE,55,0.0,1.0,85,0.00,,---,0.02,VWS V13.01,2013-01-27 05:35:00,
2013-01-26 22:36:00,30.4,26.4,29.83,NE,55,0.0,0.0,85,0.00,,---,0.02,VWS V13.01,2013-01-27 05:36:00,
2013-01-26 22:37:00,30.4,26.4,29.83,NE,55,0.0,0.0,85,0.00,,---,0.02,VWS V13.01,2013-01-27 05:37:00,
2013-01-26 22:38:00,30.4,26.4,29.83,NE,55,0.0,0.0,85,0.00,,---,0.02,VWS V13.01,2013-01-27 05:38:00,
2013-01-26 22:39:00,30.4,26.4,29.83,NE,55,0.0,0.0,85,0.00,,---,0.02,VWS V13.01,2013-01-27 05:39:00,
2013-01-26 22:40:00,30.4,26.4,29.83,NE,55,0.0,0.0,85,0.00,,---,0.02,VWS V13.01,2013-01-27 05:40:00,
2013-01-26 22:41:00,30.4,26.4,29.83,ENE,65,0.0,0.0,85,0.00,,---,0.02,VWS V13.01,2013-01-27 05:41:00,
2013-01-26 22:42:00,30.4,26.4,29.83,East,99,0.0,1.0,85,0.00,,---,0.02,VWS V13.01,2013-01-27 05:42:00,
2013-01-26 22:43:00,30.4,26.4,29.83,ENE,59,0.0,2.0,85,0.00,,---,0.02,VWS V13.01,2013-01-27 05:43:00,
2013-01-26 22:44:00,30.4,26.4,29.86,North,355,1.0,2.0,85,0.00,,---,0.02,VWS V13.01,2013-01-27 05:44:00,
2013-01-26 22:45:00,30.4,26.4,29.86,ENE,59,4.0,4.0,85,0.00,,---,0.02,VWS V13.01,2013-01-27 05:45:00,
2013-01-26 22:46:00,30.4,26.4,29.86,ENE,60,0.0,4.0,85,0.00,,---,0.02,VWS V13.01,2013-01-27 05:46:00,
2013-01-26 22:47:00,30.4,26.4,29.86,NE,42,0.0,4.0,85,0.00,,---,0.02,VWS V13.01,2013-01-27 05:47:00,
2013-01-26 22:48:00,30.4,26.4,29.86,NE,38,0.0,4.0,85,0.00,,---,0.02,VWS V13.01,2013-01-27 05:48:00,
2013-01-26 22:49:00,30.4,26.7,29.86,NNE,24,1.0,4.0,86,0.00,,---,0.02,VWS V13.01,2013-01-27 05:49:00,
2013-01-26 22:50:00,30.4,26.7,29.86,NNE,24,0.0,4.0,86,0.00,,---,0.02,VWS V13.01,2013-01-27 05:50:00,
2013-01-26 22:51:00,30.4,26.7,29.86,NNE,24,0.0,0.0,86,0.00,,---,0.02,VWS V13.01,2013-01-27 05:51:00,
2013-01-26 22:52:00,30.6,26.9,29.86,NNE,25,0.0,0.0,86,0.00,,---,0.02,VWS V13.01,2013-01-27 05:52:00,
2013-01-26 22:53:00,30.6,26.9,29.86,NNE,25,0.0,0.0,86,0.00,,---,0.02,VWS V13.01,2013-01-27 05:53:00,
2013-01-26 22:54:00,30.4,26.7,29.86,NE,50,0.0,0.0,86,0.00,,---,0.02,VWS V13.01,2013-01-27 05:54:00,
2013-01-26 22:55:00,30.4,26.7,29.86,NE,50,0.0,0.0,86,0.00,,---,0.02,VWS V13.01,2013-01-27 05:55:00,
2013-01-26 22:56:00,30.4,26.7,29.86,NE,50,0.0,0.0,86,0.00,,---,0.02,VWS V13.01,2013-01-27 05:56:00,
2013-01-26 22:57:00,30.4,26.7,29.86,NE,50,0.0,0.0,86,0.00,,---,0.02,VWS V13.01,2013-01-27 05:57:00,
2013-01-26 22:58:00,30.4,26.7,29.86,NE,50,0.0,0.0,86,0.00,,---,0.02,VWS V13.01,2013-01-27 05:58:00,
2013-01-26 22:59:00,30.4,26.7,29.86,NE,50,0.0,0.0,86,0.00,,---,0.02,VWS V13.01,2013-01-27 05:59:00,
2013-01-26 23:00:00,30.4,26.7,29.86,NE,50,0.0,0.0,86,0.00,,---,0.02,VWS V13.01,2013-01-27 06:00:00,
2013-01-26 23:01:00,30.4,27.0,29.86,NE,50,0.0,0.0,87,0.00,,---,0.02,VWS V13.01,2013-01-27 06:01:00,
2013-01-26 23:02:00,30.4,27.0,29.86,NE,50,0.0,0.0,87,0.00,,---,0.02,VWS V13.01,2013-01-27 06:02:00,
2013-01-26 23:03:00,30.4,27.0,29.86,NE,50,0.0,0.0,87,0.00,,---,0.02,VWS V13.01,2013-01-27 06:03:00,
2013-01-26 23:04:00,30.4,27.0,29.86,NE,48,0.0,0.0,87,0.00,,---,0.02,VWS V13.01,2013-01-27 06:04:00,
2013-01-26 23:05:00,30.4,27.0,29.86,NE,48,0.0,0.0,87,0.00,,---,0.02,VWS V13.01,2013-01-27 06:05:00,
2013-01-26 23:06:00,30.4,27.0,29.86,NE,48,0.0,0.0,87,0.00,,---,0.02,VWS V13.01,2013-01-27 06:06:00,
2013-01-26 23:07:00,30.4,27.0,29.86,NE,48,0.0,0.0,87,0.00,,---,0.02,VWS V13.01,2013-01-27 06:07:00,
2013-01-26 23:08:00,30.4,27.0,29.86,NE,48,0.0,0.0,87,0.00,,---,0.02,VWS V13.01,2013-01-27 06:08:00,
2013-01-26 23:09:00,30.4,27.0,29.86,NE,48,0.0,0.0,87,0.00,,---,0.02,VWS V13.01,2013-01-27 06:09:00,
2013-01-26 23:10:00,30.4,27.0,29.86,NE,48,0.0,0.0,87,0.00,,---,0.02,VWS V13.01,2013-01-27 06:10:00,
2013-01-26 23:11:00,30.4,27.0,29.86,NE,48,0.0,0.0,87,0.00,,---,0.02,VWS V13.01,2013-01-27 06:11:00,
2013-01-26 23:12:00,30.4,27.0,29.86,NE,48,0.0,0.0,87,0.00,,---,0.02,VWS V13.01,2013-01-27 06:12:00,
2013-01-26 23:13:00,30.3,26.9,29.86,NE,48,0.0,0.0,87,0.00,,---,0.02,VWS V13.01,2013-01-27 06:13:00,
2013-01-26 23:14:00,30.3,26.9,29.86,NE,48,0.0,0.0,87,0.00,,---,0.02,VWS V13.01,2013-01-27 06:14:00,
2013-01-26 23:15:00,30.3,26.9,29.84,NE,48,0.0,0.0,87,0.00,,---,0.02,VWS V13.01,2013-01-27 06:15:00,
2013-01-26 23:16:00,30.3,26.9,29.84,NE,48,0.0,0.0,87,0.00,,---,0.02,VWS V13.01,2013-01-27 06:16:00,
2013-01-26 23:17:00,30.3,26.9,29.84,NE,48,0.0,0.0,87,0.00,,---,0.02,VWS V13.01,2013-01-27 06:17:00,
2013-01-26 23:18:00,30.3,26.9,29.84,NE,48,0.0,0.0,87,0.00,,---,0.02,VWS V13.01,2013-01-27 06:18:00,
2013-01-26 23:19:00,30.3,26.9,29.84,NE,48,0.0,0.0,87,0.00,,---,0.02,VWS V13.01,2013-01-27 06:19:00,
2013-01-26 23:20:00,30.3,26.9,29.84,NE,48,0.0,0.0,87,0.00,,---,0.02,VWS V13.01,2013-01-27 06:20:00,
2013-01-26 23:21:00,30.3,26.9,29.84,NE,48,0.0,0.0,87,0.00,,---,0.02,VWS V13.01,2013-01-27 06:21:00,
2013-01-26 23:22:00,30.3,26.9,29.84,NE,48,0.0,0.0,87,0.00,,---,0.02,VWS V13.01,2013-01-27 06:22:00,
2013-01-26 23:23:00,30.3,26.9,29.84,NE,48,0.0,0.0,87,0.00,,---,0.02,VWS V13.01,2013-01-27 06:23:00,
2013-01-26 23:24:00,30.3,26.9,29.84,NE,48,0.0,0.0,87,0.00,,---,0.02,VWS V13.01,2013-01-27 06:24:00,
2013-01-26 23:25:00,30.3,26.9,29.84,NE,48,0.0,0.0,87,0.00,,---,0.02,VWS V13.01,2013-01-27 06:25:00,
2013-01-26 23:26:00,30.3,26.9,29.84,NE,48,0.0,0.0,87,0.00,,---,0.02,VWS V13.01,2013-01-27 06:26:00,
2013-01-26 23:27:00,30.3,26.9,29.84,NE,48,0.0,0.0,87,0.00,,---,0.02,VWS V13.01,2013-01-27 06:27:00,
2013-01-26 23:28:00,30.1,26.7,29.84,NE,48,0.0,0.0,87,0.00,,---,0.02,VWS V13.01,2013-01-27 06:28:00,
2013-01-26 23:29:00,30.1,26.7,29.84,NE,48,0.0,0.0,87,0.00,,---,0.02,VWS V13.01,2013-01-27 06:29:00,
2013-01-26 23:30:00,30.1,26.7,29.84,NE,48,0.0,0.0,87,0.00,,---,0.02,VWS V13.01,2013-01-27 06:30:00,
2013-01-26 23:31:00,30.1,26.7,29.84,NE,48,0.0,0.0,87,0.00,,---,0.02,VWS V13.01,2013-01-27 06:31:00,
2013-01-26 23:32:00,30.1,26.7,29.84,NE,48,0.0,0.0,87,0.00,,---,0.02,VWS V13.01,2013-01-27 06:32:00,
2013-01-26 23:33:00,30.1,26.7,29.84,NE,48,0.0,0.0,87,0.00,,---,0.02,VWS V13.01,2013-01-27 06:33:00,
2013-01-26 23:34:00,30.1,26.7,29.84,NE,48,0.0,0.0,87,0.00,,---,0.02,VWS V13.01,2013-01-27 06:34:00,
2013-01-26 23:35:00,30.1,26.7,29.84,NE,48,0.0,0.0,87,0.00,,---,0.02,VWS V13.01,2013-01-27 06:35:00,
2013-01-26 23:36:00,30.1,26.7,29.84,NE,48,0.0,0.0,87,0.00,,---,0.02,VWS V13.01,2013-01-27 06:36:00,
2013-01-26 23:37:00,30.1,26.7,29.84,NE,48,0.0,0.0,87,0.00,,---,0.02,VWS V13.01,2013-01-27 06:37:00,
2013-01-26 23:38:00,30.1,26.7,29.84,NE,48,0.0,0.0,87,0.00,,---,0.02,VWS V13.01,2013-01-27 06:38:00,
2013-01-26 23:39:00,30.1,26.7,29.84,NE,48,0.0,0.0,87,0.00,,---,0.02,VWS V13.01,2013-01-27 06:39:00,
2013-01-26 23:40:00,30.1,26.7,29.84,NE,48,0.0,0.0,87,0.00,,---,0.02,VWS V13.01,2013-01-27 06:40:00,
2013-01-26 23:41:00,30.1,26.7,29.84,NE,48,0.0,0.0,87,0.00,,---,0.02,VWS V13.01,2013-01-27 06:41:00,
2013-01-26 23:42:00,30.1,27.0,29.84,NE,48,0.0,0.0,88,0.00,,---,0.02,VWS V13.01,2013-01-27 06:42:00,
2013-01-26 23:43:00,30.1,27.0,29.84,NE,48,0.0,0.0,88,0.00,,---,0.02,VWS V13.01,2013-01-27 06:43:00,
2013-01-26 23:44:00,30.1,27.0,29.84,NE,48,0.0,0.0,88,0.00,,---,0.02,VWS V13.01,2013-01-27 06:44:00,
2013-01-26 23:45:00,30.1,27.0,29.84,NE,48,0.0,0.0,88,0.00,,---,0.02,VWS V13.01,2013-01-27 06:45:00,
2013-01-26 23:46:00,30.0,26.9,29.84,NE,48,0.0,0.0,88,0.00,,---,0.02,VWS V13.01,2013-01-27 06:46:00,
2013-01-26 23:47:00,30.0,26.9,29.84,NE,48,0.0,0.0,88,0.00,,---,0.02,VWS V13.01,2013-01-27 06:47:00,
2013-01-26 23:48:00,30.0,26.9,29.84,NE,48,0.0,0.0,88,0.00,,---,0.02,VWS V13.01,2013-01-27 06:48:00,
2013-01-26 23:49:00,30.0,26.9,29.84,NE,48,0.0,0.0,88,0.00,,---,0.02,VWS V13.01,2013-01-27 06:49:00,
2013-01-26 23:50:00,30.0,26.9,29.84,NE,48,0.0,0.0,88,0.00,,---,0.02,VWS V13.01,2013-01-27 06:50:00,
2013-01-26 23:54:00,30.0,26.9,29.84,NE,48,0.0,0.0,88,0.00,,---,0.02,VWS V13.01,2013-01-27 06:54:00,
2013-01-26 23:55:00,30.0,26.6,29.84,NE,48,0.0,0.0,87,0.00,,---,0.02,VWS V13.01,2013-01-27 06:55:00,
2013-01-26 23:56:00,30.0,26.6,29.84,NE,48,0.0,0.0,87,0.00,,---,0.02,VWS V13.01,2013-01-27 06:56:00,
2013-01-26 23:57:00,30.0,26.6,29.84,NE,48,0.0,0.0,87,0.00,,---,0.02,VWS V13.01,2013-01-27 06:57:00,
2013-01-26 23:58:00,30.0,26.6,29.84,NE,48,0.0,0.0,87,0.00,,---,0.02,VWS V13.01,2013-01-27 06:58:00,
2013-01-26 23:59:00,30.0,26.6,29.84,NE,48,0.0,0.0,87,0.00,,---,0.02,VWS V13.01,2013-01-27 06:59:00,